[[{"header":{"parameterUnit":"m.s-1","parameterCategory":1,"la1":31.0,"la2":29.5877,"lo1":-88.7671,"lo2":-86.6584,"dx":0.0162,"dy":0.0185,"nx":115,"ny":88,"refTime":"2022-11-08T06:00:00:Z","depth":0,"parameterNumber":2,"parameterNumberName":"U-component_of_WINDS"},"data":[0.0,0.0,0.0,0.0,0.0,0.0,0.0,0.0,0.0,0.0,0.0,0.0,0.0,0.0,0.0,0.0,0.0,0.0,0.0,0.0,0.0,0.0,0.0,0.0,0.0,0.0,0.0,0.0,0.0,0.0,0.0,0.0,0.0,0.0,0.0,0.0,0.0,0.0,0.0,0.0,0.0,0.0,0.0,0.0,0.0,0.0,0.0,0.0,0.0,0.0,0.0,0.0,0.0,0.0,0.0,0.0,0.0,0.0,0.0,0.0,0.0,0.0,0.0,0.0,0.0,0.0,0.0,0.0,0.0,0.0,0.0,0.0,0.0,0.0,0.0,0.0,0.0,0.0,0.0,0.0,0.0,0.0,0.0,0.0,0.0,0.0,0.0,0.0,0.0,0.0,0.0,0.0,0.0,0.0,0.0,0.0,0.0,0.0,0.0,0.0,0.0,0.0,0.0,0.0,0.0,0.0,0.0,0.0,0.0,0.0,0.0,0.0,0.0,0.0,0.0,0.0,0.0,0.0,0.0,0.0,0.0,0.0,0.0,0.0,0.0,0.0,0.0,0.0,0.0,0.0,0.0,0.0,0.0,0.0,0.0,0.0,0.0,0.0,0.0,0.0,0.0,0.0,0.0,0.0,0.0,0.0,0.0,0.0,0.0,0.0,0.0,0.0,0.0,0.0,0.0,0.0,0.0,0.0,0.0,0.0,0.0,0.0,0.0,0.0,0.0,0.0,0.0,0.0,0.0,0.0,0.0,0.0,0.0,0.0,0.0,0.0,0.0,0.0,0.0,0.0,0.0,0.0,0.0,0.0,0.0,0.0,0.0,0.0,0.0,0.0,0.0,0.0,0.0,0.0,0.0,0.0,0.0,0.0,0.0,0.0,0.0,0.0,0.0,0.0,0.0,0.0,0.0,0.0,0.0,0.0,0.0,0.0,0.0,0.0,0.0,0.0,0.0,0.0,0.0,0.0,0.0,0.0,0.0,0.0,0.0,0.0,0.0,0.0,0.0,0.0,0.0,0.0,0.0,0.0,0.0,0.0,0.0,0.0,0.0,0.0,0.0,0.0,0.0,0.0,0.0,0.0,0.0,0.0,0.0,0.0,0.0,0.0,0.0,0.0,0.0,0.0,0.0,0.0,0.0,0.0,0.0,0.0,0.0,0.0,0.0,0.0,0.0,0.0,0.0,0.0,0.0,0.0,0.0,0.0,0.0,0.0,0.0,0.0,0.0,0.0,0.0,0.0,0.0,0.0,0.0,0.0,0.0,0.0,0.0,0.0,0.0,0.0,0.0,0.0,0.0,0.0,0.0,0.0,0.0,0.0,0.0,0.0,0.0,0.0,0.0,0.0,0.0,0.0,0.0,0.0,0.0,0.0,0.0,0.0,0.0,0.0,0.0,0.0,0.0,0.0,0.0,0.0,0.0,0.0,0.0,0.0,0.0,0.0,0.0,0.0,0.0,0.0,0.0,0.0,0.0,0.0,0.0,0.0,0.0,0.0,0.0,0.0,0.0,0.0,0.0,0.0,0.0,0.0,0.0,0.0,0.0,0.0,0.0,0.0,0.0,0.0,0.0,0.0,0.0,0.0,0.0,0.0,0.0,0.0,0.0,0.0,0.0,0.0,0.0,0.0,0.0,0.0,0.0,0.0,0.0,0.0,0.0,0.0,0.0,0.0,0.0,0.0,0.0,0.0,0.0,0.0,0.0,0.0,0.0,0.0,0.0,0.0,0.0,0.0,0.0,0.0,0.0,0.0,0.0,0.0,0.0,0.0,0.0,0.0,0.0,0.0,0.0,0.0,0.0,0.0,0.0,0.0,0.0,0.0,0.0,0.0,0.0,0.0,0.0,0.0,0.0,0.0,0.0,0.0,0.0,0.0,0.0,0.0,0.0,0.0,0.0,0.0,0.0,0.0,0.0,0.0,0.0,0.0,0.0,0.0,0.0,0.0,0.0,0.0,0.0,0.0,0.0,0.0,0.0,0.0,0.0,0.0,0.0,0.0,0.0,0.0,0.0,0.0,0.0,0.0,0.0,0.0,0.0,0.0,0.0,0.0,0.0,0.0,0.0,0.0,0.0,0.0,0.0,0.0,0.0,0.0,0.0,0.0,0.0,0.0,0.0,0.0,0.0,0.0,0.0,0.0,0.0,0.0,0.0,0.0,0.0,0.0,0.0,0.0,0.0,0.0,0.0,0.0,0.0,0.0,0.0,0.0,0.0,0.0,0.0,0.0,0.0,0.0,0.0,0.0,0.0,0.0,0.0,0.0,0.0,0.0,0.0,0.0,0.0,0.0,0.0,0.0,0.0,0.0,0.0,0.0,0.0,0.0,0.0,0.0,0.0,0.0,0.0,0.0,0.0,0.0,0.0,0.0,0.0,0.0,0.0,0.0,0.0,0.0,0.0,0.0,0.0,0.0,0.0,0.0,0.0,0.0,0.0,0.0,0.0,0.0,0.0,0.0,0.0,0.0,0.0,0.0,0.0,0.0,0.0,0.0,0.0,0.0,0.0,0.0,0.0,0.0,0.0,0.0,0.0,0.0,0.0,0.0,0.0,0.0,0.0,0.0,0.0,0.0,0.0,0.0,0.0,0.0,0.0,0.0,0.0,0.0,0.0,0.0,0.0,0.0,0.0,0.0,0.0,0.0,0.0,0.0,0.0,0.0,0.0,0.0,0.0,0.0,0.0,0.0,0.0,0.0,0.0,0.0,0.0,0.0,0.0,0.0,0.0,0.0,0.0,0.0,0.0,0.0,0.0,0.0,0.0,0.0,0.0,0.0,0.0,0.0,0.0,0.0,0.0,0.0,0.0,0.0,0.0,0.0,0.0,0.0,0.0,0.0,0.0,0.0,0.0,0.0,0.0,0.0,0.0,0.0,0.0,0.0,0.0,0.0,0.0,0.0,0.0,0.0,0.0,0.0,0.0,0.0,0.0,0.0,0.0,0.0,0.0,0.0,0.0,0.0,0.0,0.0,0.0,0.0,0.0,0.0,0.0,0.0,0.0,0.0,0.0,0.0,0.0,0.0,0.0,0.0,0.0,0.0,0.0,0.0,0.0,0.0,0.0,0.0,0.0,0.0,0.0,0.0,0.0,0.0,0.0,0.0,0.0,0.0,0.0,0.0,0.0,0.0,0.0,0.0,0.0,0.0,0.0,0.0,0.0,0.0,0.0,0.0,0.0,0.0,0.0,0.0,0.0,0.0,0.0,0.0,0.0,0.0,0.0,0.0,0.0,0.0,0.0,0.0,0.0,0.0,0.0,0.0,0.0,0.0,0.0,0.0,0.0,0.0,0.0,0.0,0.0,0.0,0.0,0.0,0.0,0.0,0.0,0.0,0.0,0.0,0.0,0.0,0.0,0.0,0.0,0.0,0.0,0.0,0.0,0.0,0.0,0.0,0.0,0.0,0.0,0.0,0.0,0.0,0.0,0.0,0.0,0.0,0.0,0.0,0.0,0.0,0.0,0.0,0.0,0.0,0.0,0.0,0.0,0.0,0.0,0.0,0.0,0.0,0.0,0.0,0.0,0.0,0.0,0.0,0.0,0.0,0.0,0.0,0.0,0.0,0.0,0.0,0.0,0.0,0.0,0.0,0.0,0.0,0.0,0.0,0.0,0.0,0.0,0.0,0.0,0.0,0.0,0.0,0.0,0.0,0.0,0.0,0.0,0.0,0.0,0.0,0.0,0.0,0.0,0.0,0.0,0.0,0.0,0.0,0.0,0.0,0.0,0.0,0.0,0.0,0.0,0.0,0.0,0.0,0.0,0.0,0.0,0.0,0.0,0.0,0.0,0.0,0.0,0.0,0.0,0.0,0.0,0.0,0.0,0.0,0.0,0.0,0.0,0.0,0.0,0.0,0.0,0.0,0.0,0.0,0.0,0.0,0.0,0.0,0.0,0.0,0.0,0.0,0.0,0.0,0.0,0.0,0.0,0.0,0.0,0.0,0.0,0.0,0.0,0.0,0.0,0.0,0.0,0.0,0.0,0.0,0.0,0.0,0.0,0.0,0.0,0.0,0.0,0.0,0.0,0.0,0.0,0.0,0.0,0.0,0.0,0.0,0.0,0.0,0.0,0.0,0.0,0.0,0.0,0.0,0.0,0.0,0.0,0.0,0.0,0.0,0.0,0.0,0.0,0.0,0.0,0.0,0.0,0.0,0.0,0.0,0.0,0.0,0.0,0.0,0.0,0.0,0.0,0.0,0.0,0.0,0.0,0.0,0.0,0.0,0.0,0.0,0.0,0.0,1.6606,0.0,0.0,0.0,1.3229,0.0,0.0,0.0,0.0,0.0,0.0,0.0,0.0,0.0,0.0,0.0,0.0,0.0,0.0,0.0,0.0,0.0,0.0,0.0,0.0,0.0,0.0,0.0,0.0,0.0,0.0,0.0,0.0,0.0,0.0,0.0,0.0,0.0,0.0,0.0,0.0,0.0,0.0,0.0,0.0,0.0,0.0,0.0,0.0,0.0,0.0,0.0,0.0,0.0,0.0,0.0,0.0,0.0,0.0,0.0,0.0,0.0,0.0,0.0,0.0,0.0,0.0,0.0,0.0,0.0,0.0,0.0,0.0,0.0,0.0,0.0,0.0,0.0,0.0,0.0,0.0,0.0,0.0,0.0,0.0,0.0,0.0,0.0,0.0,0.0,0.0,0.0,0.0,0.0,0.0,0.0,0.0,0.0,0.0,0.0,0.0,0.0,0.0,0.0,0.0,0.0,0.0,0.0,0.0,0.0,0.0,0.0,0.0,0.0,0.0,1.5998,1.5126,1.521,1.4369,1.2442,0.0,0.0,0.0,0.0,0.0,0.0,0.0,0.0,0.0,0.0,0.0,0.0,0.0,0.0,0.0,0.0,0.0,0.0,0.0,0.0,0.0,0.0,0.0,0.0,0.0,0.0,0.0,0.0,0.0,0.0,0.0,0.0,0.0,0.0,0.0,0.0,0.0,0.0,0.0,0.0,0.0,0.0,0.0,0.0,0.0,0.0,0.0,0.0,0.0,0.0,0.0,0.0,0.0,0.0,0.0,0.0,0.0,0.0,0.0,0.0,0.0,0.0,0.0,0.0,0.0,0.0,0.0,0.0,0.0,0.0,0.0,0.0,0.0,0.0,0.0,0.0,0.0,0.0,0.0,0.0,0.0,0.0,0.0,0.0,0.0,0.0,0.0,0.0,0.0,0.0,0.0,0.0,0.0,0.0,0.0,0.0,0.0,0.0,0.0,0.0,0.0,0.0,0.0,0.0,0.0,0.0,0.0,0.0,0.0,0.0,0.0,0.0,1.5057,1.42,1.2056,0.0,0.0,0.0,0.0,0.0,0.0,0.0,0.0,0.0,0.0,0.0,0.0,0.0,0.0,0.0,0.0,0.0,0.0,0.0,0.0,0.0,0.0,0.0,0.0,0.0,0.0,0.0,0.0,0.0,0.0,0.0,0.0,0.0,0.0,0.0,0.0,0.0,0.0,0.0,0.0,0.0,0.0,0.0,0.0,0.0,0.0,0.0,0.0,0.0,0.0,0.0,0.0,0.0,0.0,0.0,0.0,0.0,0.0,0.0,0.0,0.0,0.0,0.0,0.0,0.0,0.0,0.0,0.0,0.0,0.0,0.0,0.0,0.0,0.0,0.0,0.0,0.0,0.0,0.0,0.0,0.0,0.0,0.0,0.0,0.0,0.0,0.0,0.0,0.0,0.0,0.0,0.0,0.0,0.0,0.0,0.0,0.0,0.0,0.0,0.0,0.0,0.0,0.0,0.0,0.0,0.0,0.0,0.0,0.0,0.0,1.4645,1.5301,1.4897,0.0,1.2135,0.0,0.0,0.0,0.0,0.0,0.0,0.0,0.0,0.0,0.0,0.0,0.0,0.0,0.0,0.0,0.0,0.0,0.0,0.0,0.0,0.0,0.0,0.0,0.0,0.0,0.0,0.0,0.0,0.0,0.0,0.0,0.0,0.0,0.0,0.0,0.0,0.0,0.0,0.0,0.0,0.0,0.0,0.0,0.0,0.0,0.0,0.0,0.0,0.0,0.0,0.0,0.0,0.0,0.0,0.0,0.0,0.0,0.0,0.0,0.0,0.0,0.0,0.0,0.0,0.0,0.0,0.0,0.0,0.0,0.0,0.0,0.0,0.0,0.0,0.0,0.0,0.0,0.0,0.0,0.0,0.0,0.0,0.0,0.0,0.0,0.0,0.0,0.0,0.0,0.0,0.0,0.0,0.0,0.0,0.0,0.0,0.0,0.0,0.0,0.0,0.0,0.0,0.0,0.0,0.0,0.0,0.0,0.0,0.0,0.0,1.4837,1.5027,1.4098,1.3131,0.0,0.0,0.0,0.0,0.0,0.0,0.0,0.0,0.0,0.0,0.0,0.0,0.0,0.0,0.0,0.0,0.0,0.0,0.0,0.0,0.0,0.0,0.0,0.0,0.0,0.0,0.0,0.0,0.0,0.0,0.0,0.0,0.0,0.0,0.0,0.0,0.0,0.0,0.0,0.0,0.0,0.0,0.0,0.0,0.0,0.0,0.0,0.0,0.0,0.0,0.0,0.0,0.0,0.0,0.0,0.0,0.0,0.0,0.0,0.0,0.0,0.0,0.0,0.0,0.0,0.0,0.0,0.0,0.0,0.0,0.0,0.0,0.0,0.0,0.0,0.0,0.0,0.0,0.0,0.0,0.0,0.0,0.0,0.0,0.0,0.0,0.0,0.0,0.0,0.0,0.0,0.0,0.0,0.0,0.0,0.0,0.0,0.0,0.0,0.0,0.0,0.0,0.0,0.0,0.0,0.0,0.0,0.0,0.0,0.0,1.4812,1.4921,1.4726,1.3505,1.2417,1.1634,0.0,0.0,0.0,0.0,0.0,0.0,0.0,0.0,0.0,0.0,0.0,0.0,0.0,0.0,0.0,0.0,0.0,0.0,0.0,0.0,0.0,0.0,0.0,0.0,0.0,0.0,0.0,0.0,0.0,0.0,0.0,0.0,0.0,0.0,0.0,0.0,0.0,0.0,0.0,0.0,0.0,0.0,0.0,0.0,0.0,0.0,0.0,0.0,0.0,0.0,0.0,0.0,0.0,0.0,0.0,0.0,0.0,0.0,0.0,0.0,0.0,0.0,0.0,0.0,0.0,0.0,0.0,0.0,0.0,0.0,0.0,0.0,0.0,0.0,0.0,0.0,0.0,0.0,0.0,0.0,0.0,0.0,0.0,0.0,0.0,0.0,0.0,0.0,0.0,0.0,0.0,0.0,0.0,0.0,0.0,0.0,0.0,0.0,0.0,0.0,0.0,0.0,0.0,0.0,0.0,0.0,0.0,0.0,1.5865,1.5149,1.473,1.4704,1.3354,1.1833,0.0,0.0,0.0,0.0,0.0,0.0,0.0,0.0,0.0,0.0,0.0,0.0,0.0,0.0,0.0,0.0,0.0,0.0,0.0,0.0,0.0,0.0,0.0,0.0,0.0,0.0,0.0,0.0,0.0,0.0,0.0,0.0,0.0,0.0,0.0,0.0,0.0,0.0,0.0,0.0,0.0,0.0,0.0,0.0,0.0,0.0,0.0,0.0,0.0,0.0,0.0,0.0,0.0,0.0,0.0,0.0,0.0,0.0,0.0,0.0,0.0,0.0,0.0,0.0,0.0,0.0,0.0,0.0,0.0,0.0,0.0,0.0,0.0,0.0,0.0,0.0,0.0,0.0,0.0,0.0,0.0,0.0,0.0,0.0,0.0,0.0,0.0,0.0,0.0,0.0,0.0,0.0,0.0,0.0,0.0,0.0,0.0,0.0,0.0,0.0,0.0,0.0,0.0,0.0,0.0,0.0,0.0,0.0,0.0,1.3332,1.3863,1.4587,1.5482,1.3662,1.2253,0.0,0.0,0.0,0.0,0.0,0.0,0.0,0.0,0.0,0.0,0.0,0.0,0.0,0.0,0.0,0.0,0.0,0.0,0.0,0.0,0.0,0.0,0.0,0.0,0.0,0.0,0.0,0.0,0.0,0.0,0.0,0.0,0.0,0.0,0.0,0.0,0.0,0.0,0.0,0.0,0.0,0.0,0.0,0.0,0.0,0.0,0.0,0.0,0.0,0.0,0.0,0.0,0.0,0.0,0.0,0.0,0.0,0.0,0.0,0.0,0.0,0.0,0.0,0.0,0.0,0.0,0.0,0.0,0.0,0.0,0.0,0.0,0.0,0.0,0.0,0.0,0.0,0.0,0.0,0.0,0.0,0.0,0.0,0.0,0.0,0.0,0.0,0.0,0.0,0.0,0.0,0.0,0.0,0.0,0.0,0.0,0.0,0.0,0.0,0.0,0.0,0.0,0.0,0.0,0.0,0.0,0.0,0.0,0.0,1.3419,1.488,1.573,1.5752,1.4007,1.2371,0.0,0.0,0.0,0.0,0.0,0.0,0.0,0.0,0.0,0.0,0.0,0.0,0.0,0.0,0.0,0.0,0.0,0.0,0.0,0.0,0.0,0.0,0.0,0.0,0.0,0.0,0.0,0.0,0.0,0.0,0.0,0.0,0.0,0.0,0.0,0.0,0.0,0.0,0.0,0.0,0.0,0.0,0.0,0.0,0.0,0.0,0.0,0.0,0.0,0.0,0.0,0.0,0.0,0.0,0.0,0.0,0.0,0.0,0.0,0.0,0.0,0.0,0.0,0.0,0.0,0.0,0.0,0.0,0.0,0.0,0.0,0.0,0.0,0.0,0.0,0.0,0.0,0.0,0.0,0.0,0.0,0.0,0.0,0.0,0.0,0.0,0.0,0.0,0.0,0.0,0.0,0.0,0.0,0.0,0.0,0.0,0.0,0.0,0.0,0.0,0.0,0.0,0.0,0.0,0.0,0.0,0.0,0.0,1.3708,1.6599,1.8332,1.7883,1.541,1.4347,1.2123,0.0,0.0,0.0,0.0,0.0,0.0,0.0,0.0,0.0,0.0,0.0,0.0,0.0,0.0,0.0,0.0,0.0,0.0,0.0,0.0,0.0,0.0,0.0,0.0,0.0,0.0,0.0,0.0,0.0,0.0,0.0,0.0,0.0,0.0,0.0,0.0,0.0,0.0,0.0,0.0,0.0,0.0,0.0,0.0,0.0,0.0,0.0,0.0,0.0,0.0,0.0,0.0,0.0,0.0,0.0,0.0,0.0,0.0,0.0,0.0,0.0,0.0,0.0,0.0,0.0,0.0,0.0,0.0,0.0,0.0,0.0,0.0,0.0,0.0,0.0,0.0,0.0,0.0,0.0,0.0,0.0,0.0,0.0,0.0,0.0,0.0,0.0,0.0,0.0,0.0,0.0,0.0,0.0,0.0,0.0,0.0,0.0,0.0,0.0,0.0,0.0,0.0,0.0,0.0,0.0,0.0,0.0,0.0,0.0,1.4422,1.5793,1.6287,1.5732,1.3799,1.2296,0.0,0.0,0.0,0.0,0.0,0.0,0.0,0.0,0.0,0.0,0.0,0.0,0.0,0.0,0.0,0.0,0.0,0.0,0.0,0.0,0.0,0.0,0.0,0.0,0.0,0.0,0.0,0.0,0.0,0.0,0.0,0.0,0.0,0.0,0.0,0.0,0.0,0.0,0.0,0.0,0.0,0.0,0.0,0.0,0.0,0.0,0.0,0.0,0.0,0.0,0.0,0.0,0.0,0.0,0.0,0.0,0.0,0.0,0.0,0.0,0.0,0.0,0.0,0.0,0.0,0.0,0.0,0.0,0.0,0.0,0.0,0.0,0.0,0.0,0.0,0.0,0.0,0.0,0.0,0.0,0.0,0.0,0.0,0.0,0.0,0.0,0.0,0.0,0.0,0.0,0.0,0.0,0.0,0.0,0.0,0.0,0.0,0.0,0.0,0.0,0.0,0.0,0.0,0.0,0.0,0.0,0.0,0.0,0.0,1.5264,1.6798,1.7275,1.6479,1.4454,1.3032,1.2265,0.0,0.0,0.0,0.0,0.0,0.0,0.0,0.0,0.0,0.0,0.0,0.0,0.0,0.0,0.0,0.0,0.0,0.0,0.0,0.0,0.0,0.0,0.0,0.0,0.0,0.0,0.0,0.0,0.0,0.0,0.0,0.0,0.0,0.0,0.0,0.0,0.0,0.0,0.0,0.0,0.0,0.0,0.0,0.0,0.0,0.0,0.0,0.0,0.0,0.0,0.0,0.0,0.0,0.0,0.0,0.0,0.0,0.0,0.0,0.0,0.0,0.0,0.0,0.0,0.0,0.0,0.0,0.0,0.0,0.0,0.0,0.0,0.0,0.0,0.0,0.0,0.0,0.0,0.0,0.0,0.0,0.0,0.0,0.0,0.0,0.0,0.0,0.0,0.0,0.0,0.0,0.0,0.0,0.0,0.0,0.0,0.0,0.0,0.0,0.0,0.0,0.0,0.0,0.0,0.0,0.0,0.0,0.0,1.8277,2.0507,2.0286,1.7469,1.605,1.4186,0.0,0.0,0.0,0.0,0.0,0.0,0.0,0.0,0.0,0.0,0.0,0.0,0.0,0.0,0.0,0.0,0.0,0.0,0.0,0.0,0.0,0.0,0.0,0.0,0.0,0.0,0.0,0.0,0.0,0.0,0.0,0.0,0.0,0.0,0.0,0.0,0.0,0.0,0.0,0.0,0.0,0.0,0.0,0.0,0.0,0.0,0.0,0.0,0.0,0.0,0.0,0.0,0.0,0.0,0.0,0.0,0.0,0.0,0.0,0.0,0.0,0.0,0.0,0.0,0.0,0.0,0.0,0.0,0.0,0.0,0.0,0.0,0.0,0.0,0.0,0.0,0.0,0.0,0.0,0.0,0.0,0.0,0.0,0.0,0.0,0.0,0.0,0.0,0.0,0.0,0.0,0.0,0.0,0.0,0.0,0.0,0.0,0.0,0.0,0.0,0.0,0.0,0.0,0.0,0.0,0.0,0.0,0.0,0.0,1.9192,2.0149,1.9905,1.8422,1.6315,1.4759,0.0,0.0,0.0,0.0,0.0,0.0,0.0,0.0,0.0,0.0,0.0,0.0,0.0,0.0,0.0,0.0,0.0,0.0,0.0,0.0,0.0,0.0,0.0,0.0,0.0,0.0,0.0,0.0,0.0,0.0,0.0,0.0,0.0,0.0,0.0,0.0,0.0,0.0,0.0,0.0,0.0,0.0,0.0,0.0,0.0,0.0,0.0,0.0,0.0,0.0,0.0,0.0,0.0,0.0,0.0,0.0,0.0,0.0,0.0,0.0,0.0,0.0,0.0,0.0,0.0,0.0,0.0,0.0,0.0,0.0,0.0,0.0,0.0,0.0,0.0,0.0,0.0,0.0,0.0,0.0,0.0,0.0,0.0,0.0,0.0,0.0,0.0,0.0,0.0,0.0,0.0,0.0,0.0,0.0,0.0,0.0,0.0,0.0,0.0,0.0,0.0,0.0,0.0,0.0,0.0,0.0,0.0,0.0,1.8238,1.9778,1.988,1.959,1.8976,1.704,1.5578,0.0,0.0,0.0,0.0,0.0,0.0,0.0,0.0,0.0,0.0,0.0,0.0,0.0,0.0,0.0,0.0,0.0,0.0,0.0,0.0,0.0,0.0,0.0,0.0,0.0,0.0,0.0,0.0,0.0,0.0,0.0,0.0,0.0,0.0,0.0,0.0,0.0,0.0,0.0,0.0,0.0,0.0,0.0,0.0,0.0,0.0,0.0,0.0,0.0,0.0,0.0,0.0,0.0,0.0,0.0,0.0,0.0,0.0,0.0,0.0,0.0,0.0,0.0,0.0,0.0,0.0,0.0,0.0,0.0,0.0,0.0,0.0,0.0,0.0,0.0,0.0,0.0,0.0,0.0,0.0,0.0,0.0,0.0,0.0,0.0,0.0,0.0,0.0,0.0,0.0,0.0,0.0,0.0,0.0,0.0,0.0,0.0,0.0,0.0,0.0,0.0,0.0,0.0,0.0,0.0,0.0,0.0,0.0,1.9291,2.0162,1.9802,1.9474,1.9221,1.7958,1.6506,0.0,0.0,0.0,0.0,0.0,0.0,0.0,0.0,0.0,0.0,0.0,0.0,0.0,0.0,0.0,0.0,0.0,0.0,0.0,0.0,0.0,0.0,0.0,0.0,0.0,0.0,0.0,0.0,0.0,0.0,0.0,0.0,0.0,0.0,0.0,0.0,0.0,0.0,0.0,0.0,0.0,0.0,0.0,0.0,0.0,0.0,0.0,0.0,0.0,0.0,0.0,0.0,0.0,0.0,0.0,0.0,0.0,0.0,0.0,0.0,0.0,0.0,0.0,0.0,0.0,0.0,0.0,0.0,0.0,0.0,0.0,0.0,0.0,0.0,0.0,0.0,0.0,0.0,0.0,0.0,0.0,0.0,0.0,0.0,0.0,0.0,0.0,0.0,0.0,0.0,0.0,0.0,0.0,0.0,0.0,0.0,0.0,0.0,0.0,0.0,0.0,0.0,0.0,0.0,0.0,0.0,0.0,0.0,1.9444,2.0671,2.029,1.9879,1.9523,1.832,1.7136,0.0,0.0,0.0,0.0,0.0,0.0,0.0,0.0,0.0,0.0,0.0,0.0,0.0,0.0,0.0,0.0,0.0,0.0,0.0,0.0,0.0,0.0,0.0,0.0,0.0,0.0,0.0,0.0,0.0,0.0,0.0,0.0,0.0,0.0,0.0,0.0,0.0,0.0,0.0,0.0,0.0,0.0,0.0,0.0,0.0,0.0,0.0,0.0,1.7515,0.0,0.0,0.0,0.0,0.0,0.0,0.0,0.0,0.0,0.0,0.0,0.0,0.0,0.0,0.0,0.0,0.0,0.0,0.0,0.0,0.0,0.0,0.0,0.0,0.0,0.0,0.0,0.0,0.0,0.0,0.0,0.0,0.0,0.0,0.0,0.0,0.0,0.0,0.0,0.0,0.0,0.0,0.0,0.0,0.0,0.0,0.0,0.0,0.0,0.0,0.0,0.0,0.0,0.0,0.0,0.0,0.0,0.0,0.0,2.0087,2.0703,2.0766,2.0601,2.0166,1.9481,1.8226,0.0,0.0,0.0,0.0,0.0,0.0,0.0,0.0,0.0,0.0,0.0,0.0,0.0,0.0,0.0,0.0,0.0,0.0,0.0,0.0,0.0,0.0,0.0,0.0,0.0,0.0,0.0,0.0,0.0,0.0,0.0,0.0,0.0,0.0,0.0,0.0,0.0,0.0,0.0,0.0,0.0,0.0,0.0,0.0,0.0,0.0,0.0,0.0,0.0,0.0,0.0,0.0,0.0,0.0,0.0,0.0,0.0,0.0,0.0,0.0,0.0,0.0,0.0,0.0,0.0,0.0,0.0,0.0,0.0,0.0,0.0,0.0,0.0,0.0,0.0,0.0,0.0,0.0,0.0,0.0,0.0,0.0,0.0,0.0,0.0,0.0,0.0,0.0,0.0,0.0,0.0,0.0,0.0,0.0,0.0,0.0,0.0,0.0,0.0,0.0,0.0,0.0,0.0,0.0,0.0,0.0,0.0,1.9784,2.0762,2.0785,2.1293,2.1372,2.0977,2.0756,1.9374,1.6725,0.0,0.0,0.0,0.0,0.0,0.0,0.0,0.0,0.0,0.0,0.0,0.0,0.0,0.0,0.0,0.0,0.0,0.0,0.0,0.0,0.0,0.0,0.0,0.0,0.0,0.0,0.0,0.0,0.0,0.0,0.0,0.0,0.0,0.0,0.0,0.0,0.0,0.0,1.4288,1.5751,0.0,0.0,0.0,0.0,0.0,0.0,0.0,0.0,1.7434,0.0,0.0,0.0,0.0,0.0,0.0,0.0,0.0,0.0,0.0,0.0,0.0,0.0,0.0,0.0,0.0,0.0,0.0,0.0,0.0,0.0,0.0,0.0,0.0,0.0,0.0,0.0,0.0,0.0,0.0,0.0,0.0,0.0,0.0,0.0,0.0,0.0,0.0,0.0,0.0,0.0,0.0,0.0,0.0,0.0,0.0,0.0,0.0,0.0,0.0,0.0,0.0,0.0,0.0,0.0,0.0,2.0123,2.01,2.0669,2.1889,2.1863,2.1779,2.1701,2.1165,1.9927,1.7946,0.0,0.0,0.0,0.0,0.0,0.0,0.0,0.0,0.0,0.0,0.0,0.0,0.0,0.0,0.0,0.0,0.0,0.0,0.0,0.0,0.0,0.0,0.0,0.0,0.0,0.0,0.0,0.0,0.0,0.0,0.0,0.0,0.0,0.0,0.0,0.0,0.0,0.0,0.0,1.796,1.8905,0.0,0.0,0.0,0.0,0.0,0.0,0.0,0.0,1.8029,0.0,0.0,0.0,0.0,0.0,0.0,0.0,0.0,0.0,0.0,0.0,0.0,0.0,0.0,0.0,0.0,0.0,0.0,0.0,0.0,0.0,0.0,0.0,0.0,0.0,0.0,0.0,0.0,0.0,0.0,0.0,0.0,0.0,0.0,0.0,0.0,0.0,0.0,0.0,0.0,0.0,0.0,0.0,0.0,0.0,0.0,0.0,0.0,0.0,0.0,0.0,0.0,0.0,0.0,0.0,2.0028,2.169,2.2696,2.3026,2.2936,2.2795,2.2539,2.1604,2.0041,0.0,0.0,0.0,0.0,0.0,0.0,0.0,0.0,0.0,0.0,0.0,0.0,0.0,0.0,0.0,0.0,0.0,0.0,0.0,0.0,0.0,0.0,0.0,0.0,0.0,0.0,0.0,0.0,0.0,0.0,0.0,0.0,0.0,0.0,0.0,0.0,0.0,0.0,0.0,0.0,1.8477,1.9573,2.0033,0.0,0.0,0.0,0.0,0.0,0.0,1.803,1.7479,0.0,0.0,0.0,0.0,0.0,0.0,0.0,0.0,0.0,0.0,0.0,0.0,0.0,0.0,0.0,0.0,0.0,0.0,0.0,0.0,0.0,0.0,0.0,0.0,0.0,0.0,0.0,0.0,0.0,0.0,0.0,0.0,0.0,0.0,0.0,0.0,0.0,0.0,0.0,0.0,0.0,0.0,0.0,0.0,0.0,0.0,0.0,0.0,0.0,0.0,0.0,0.0,0.0,0.0,0.0,1.9603,2.2754,2.4223,2.3814,2.3654,2.3432,2.3083,2.1824,1.9972,0.0,0.0,0.0,0.0,0.0,0.0,0.0,0.0,0.0,0.0,0.0,0.0,0.0,0.0,0.0,0.0,0.0,0.0,0.0,0.0,0.0,0.0,0.0,0.0,0.0,0.0,0.0,0.0,0.0,0.0,0.0,0.0,0.0,0.0,0.0,0.0,0.0,0.0,0.0,0.0,0.0,1.9832,2.0006,1.9379,0.0,0.0,0.0,0.0,1.9298,1.8441,0.0,0.0,0.0,0.0,0.0,0.0,0.0,0.0,0.0,0.0,0.0,0.0,0.0,0.0,0.0,0.0,0.0,0.0,0.0,0.0,0.0,0.0,0.0,0.0,0.0,0.0,0.0,0.0,0.0,0.0,0.0,0.0,0.0,0.0,0.0,0.0,0.0,0.0,0.0,0.0,0.0,0.0,0.0,0.0,0.0,0.0,0.0,0.0,0.0,0.0,0.0,0.0,0.0,0.0,0.0,0.0,1.9558,2.1468,2.2891,2.373,2.318,2.2779,2.2745,2.1519,1.9691,0.0,0.0,0.0,0.0,0.0,0.0,0.0,0.0,0.0,0.0,0.0,0.0,0.0,0.0,0.0,0.0,0.0,0.0,0.0,0.0,0.0,0.0,0.0,0.0,0.0,0.0,0.0,0.0,0.0,0.0,0.0,0.0,0.0,0.0,0.0,0.0,0.0,0.0,0.0,0.0,0.0,1.993,2.0518,1.9334,1.8848,0.0,0.0,1.9861,2.1108,2.1041,0.0,0.0,0.0,0.0,0.0,0.0,0.0,0.0,0.0,0.0,0.0,0.0,0.0,0.0,0.0,0.0,0.0,0.0,0.0,0.0,0.0,0.0,0.0,0.0,0.0,0.0,0.0,0.0,0.0,0.0,0.0,0.0,0.0,0.0,0.0,0.0,0.0,0.0,0.0,0.0,0.0,0.0,0.0,0.0,0.0,0.0,0.0,0.0,0.0,0.0,0.0,0.0,0.0,0.0,0.0,1.8554,2.0316,2.1993,2.3171,2.385,2.2718,2.2048,2.2071,2.1242,1.9532,0.0,0.0,0.0,0.0,0.0,0.0,0.0,0.0,0.0,0.0,0.0,0.0,0.0,0.0,0.0,0.0,0.0,0.0,0.0,0.0,0.0,0.0,0.0,0.0,0.0,0.0,0.0,0.0,0.0,0.0,0.0,0.0,0.0,0.0,0.0,0.0,0.0,0.0,0.0,0.0,0.0,0.0,2.1909,2.0864,0.0,0.0,0.0,2.0225,2.0831,0.0,0.0,0.0,0.0,0.0,0.0,0.0,0.0,0.0,0.0,0.0,0.0,0.0,0.0,0.0,0.0,0.0,0.0,0.0,0.0,0.0,0.0,0.0,0.0,0.0,0.0,0.0,0.0,0.0,0.0,0.0,0.0,0.0,0.0,0.0,0.0,0.0,0.0,0.0,0.0,0.0,0.0,0.0,0.0,0.0,0.0,0.0,0.0,0.0,0.0,0.0,0.0,0.0,0.0,0.0,0.0,0.0,2.0305,2.2449,2.3504,2.3365,2.2071,2.1479,2.1735,2.1096,0.0,0.0,0.0,0.0,0.0,0.0,0.0,0.0,0.0,0.0,0.0,0.0,0.0,0.0,0.0,0.0,0.0,0.0,0.0,0.0,0.0,0.0,0.0,0.0,0.0,0.0,0.0,1.0709,0.0,0.0,0.0,0.0,0.0,0.0,0.0,0.0,0.0,0.0,0.0,0.0,0.0,0.0,2.244,2.2996,2.2123,2.17,0.0,0.0,2.0839,2.1304,2.1562,2.1179,0.0,0.0,0.0,0.0,0.0,0.0,0.0,0.0,0.0,0.0,0.0,0.0,0.0,0.0,0.0,0.0,0.0,0.0,0.0,0.0,0.0,0.0,0.0,0.0,0.0,0.0,0.0,0.0,0.0,0.0,0.0,0.0,0.0,0.0,0.0,0.0,0.0,0.0,0.0,0.0,0.0,0.0,0.0,0.0,0.0,0.0,0.0,0.0,0.0,0.0,0.0,0.0,0.0,0.0,0.0,1.8694,2.2123,2.3202,2.181,2.1037,2.1175,2.2197,2.1169,1.9537,0.0,0.0,0.0,0.0,0.0,0.0,0.0,0.0,0.0,0.0,0.0,0.0,0.0,0.0,0.0,0.0,0.0,0.0,0.0,0.0,0.0,0.0,0.0,0.0,0.0,0.0,0.0,0.0,0.0,0.0,0.0,0.0,0.0,0.0,0.0,0.0,0.0,0.0,0.0,0.0,0.0,2.138,2.3284,2.2371,2.2074,0.0,0.0,2.2251,2.3802,2.3623,2.2289,1.9269,0.0,0.0,0.0,0.0,0.0,0.0,0.0,0.0,0.0,0.0,0.0,0.0,0.0,0.0,0.0,0.0,0.0,0.0,0.0,0.0,0.0,0.0,0.0,0.0,0.0,0.0,0.0,0.0,0.0,0.0,0.0,0.0,0.0,0.0,0.0,0.0,0.0,0.0,0.0,0.0,0.0,0.0,0.0,0.0,0.0,0.0,0.0,0.0,0.0,0.0,0.0,0.0,0.0,1.8446,1.8958,2.0602,2.1316,2.0956,2.0016,1.9687,2.0145,2.0698,1.9979,0.0,0.0,0.0,0.0,0.0,0.0,0.0,0.0,0.0,0.0,0.0,0.0,0.0,0.0,0.0,0.0,0.0,0.0,0.0,0.0,0.0,0.0,0.0,0.0,0.0,0.0,0.0,0.0,1.4802,1.544,1.5867,0.0,0.0,0.0,0.0,0.0,0.0,0.0,0.0,0.0,0.0,2.2738,2.3981,2.3699,0.0,0.0,2.4194,2.3972,2.4893,2.4053,2.2749,2.1119,2.0572,0.0,0.0,0.0,0.0,0.0,0.0,0.0,0.0,0.0,0.0,0.0,0.0,0.0,0.0,0.0,0.0,0.0,0.0,0.0,0.0,0.0,0.0,0.0,0.0,0.0,0.0,0.0,0.0,0.0,0.0,0.0,0.0,0.0,0.0,0.0,0.0,0.0,0.0,0.0,0.0,0.0,0.0,0.0,0.0,0.0,0.0,0.0,0.0,0.0,0.0,0.0,0.0,1.7962,1.8637,1.9609,2.0077,2.0059,1.9233,1.8968,1.9358,2.068,2.0544,0.0,0.0,0.0,0.0,0.0,0.0,0.0,0.0,0.0,0.0,0.0,0.0,0.0,0.0,0.0,0.0,0.0,0.0,0.0,0.0,0.0,0.0,0.0,0.0,0.0,0.0,0.0,0.0,1.6338,1.6807,1.6811,0.0,0.0,0.0,0.0,0.0,0.0,0.0,0.0,0.0,0.0,2.4073,2.487,2.504,2.5083,2.5195,2.4762,2.4441,2.4577,2.3756,2.2852,2.1999,0.0,0.0,0.0,0.0,0.0,0.0,0.0,0.0,0.0,0.0,0.0,0.0,0.0,0.0,0.0,0.0,0.0,0.0,0.0,0.0,0.0,0.0,0.0,0.0,0.0,0.0,0.0,0.0,0.0,0.0,1.0812,0.0,0.0,0.0,0.0,0.0,0.0,0.0,0.0,0.0,0.0,0.0,0.0,0.0,0.0,0.0,0.0,0.0,0.0,0.0,0.0,0.0,0.0,1.7539,1.722,1.9395,2.0019,1.8921,1.8804,1.9358,2.0473,2.1235,2.1244,2.0487,0.0,0.0,0.0,0.0,0.0,0.0,0.0,0.0,0.0,0.0,0.0,0.0,0.0,0.0,0.0,0.0,0.0,0.0,0.0,0.0,0.0,0.0,0.0,0.0,0.0,0.0,1.5141,1.5985,1.6587,0.0,0.0,0.0,0.0,0.0,0.0,0.0,0.0,0.0,0.0,2.3933,2.4934,2.5894,2.6211,2.5914,2.4761,2.4053,2.339,2.2858,2.2815,2.2482,0.0,0.0,0.0,0.0,0.0,0.0,0.0,0.0,0.0,0.0,0.0,0.0,0.0,0.0,0.0,0.0,0.0,0.0,0.0,0.0,0.0,0.0,0.0,0.0,0.0,0.0,0.0,1.3072,1.2451,0.0,0.0,0.0,0.0,0.0,0.0,0.0,0.0,0.0,0.0,0.0,1.8302,1.9538,0.0,0.0,0.0,0.0,0.0,0.0,0.0,0.0,0.0,0.0,0.0,0.0,1.7934,1.8064,1.9184,1.97,1.9535,1.9042,1.9119,1.9801,2.053,2.0707,2.0216,0.0,0.0,0.0,0.0,0.0,0.0,0.0,0.0,0.0,0.0,0.0,0.0,0.0,0.0,0.0,0.0,0.0,0.0,0.0,0.0,0.0,0.0,0.0,0.0,0.0,1.6419,0.0,0.0,0.0,0.0,0.0,0.0,0.0,0.0,0.0,0.0,0.0,2.2568,2.3436,2.4487,2.5371,2.6016,2.6547,2.6806,0.0,0.0,0.0,0.0,0.0,0.0,0.0,0.0,0.0,0.0,0.0,0.0,0.0,0.0,2.453,2.1642,2.0526,2.0309,2.1196,0.0,0.0,0.0,0.0,0.0,0.0,0.0,0.0,0.0,0.0,0.0,0.0,0.0,0.0,1.5288,0.0,1.4651,0.0,0.0,0.0,0.0,0.0,0.0,0.0,0.0,1.9103,2.0077,2.0331,2.1295,2.1178,0.0,2.0456,1.9787,0.0,0.0,0.0,0.0,0.0,0.0,0.0,0.0,1.8495,1.9456,1.9783,2.0044,2.0219,1.9669,1.9479,1.9765,2.0403,2.079,2.0786,2.0005,1.9419,0.0,0.0,0.0,0.0,0.0,0.0,0.0,0.0,0.0,0.0,0.0,0.0,0.0,0.0,0.0,0.0,0.0,0.0,0.0,0.0,0.0,0.0,0.0,1.7339,0.0,0.0,0.0,0.0,0.0,0.0,0.0,0.0,0.0,2.023,2.2296,2.3963,2.4325,2.5309,2.5996,2.6104,0.0,0.0,0.0,0.0,0.0,0.0,0.0,2.3845,2.4538,2.3474,2.2409,2.215,2.3638,2.4771,2.432,0.0,0.0,2.3588,2.2284,2.1926,2.2861,2.3638,2.4011,2.362,2.5549,2.7055,0.0,0.0,0.0,0.0,0.0,0.0,0.0,0.0,1.7434,1.7151,0.0,1.6699,0.0,0.0,0.0,0.0,0.0,1.7521,0.0,0.0,2.1956,2.2895,2.2913,2.2931,2.2908,2.2871,2.2497,2.2028,2.1427,2.0308,0.0,0.0,0.0,0.0,0.0,0.0,1.9167,2.1235,2.104,2.0915,2.0941,2.0591,2.04,2.0394,2.0817,2.1412,2.2167,2.162,2.0972,2.0159,1.7981,0.0,0.0,0.0,0.0,0.0,0.0,0.0,0.0,0.0,0.0,0.0,0.0,0.0,0.0,0.0,0.0,0.0,0.0,0.0,0.0,1.8503,0.0,0.0,0.0,0.0,0.0,0.0,0.0,0.0,0.0,0.0,2.1167,2.2778,2.4452,2.5395,0.0,0.0,0.0,0.0,2.805,2.6198,2.6059,2.5815,2.4775,2.5091,2.5465,2.5564,0.0,0.0,2.5378,2.6127,2.6353,2.4359,2.5737,2.7003,2.6815,2.5573,2.4848,2.5253,2.5509,2.5851,2.6596,2.8079,2.9526,1.9289,0.0,0.0,0.0,0.0,1.8076,1.8751,1.9997,2.0035,1.9458,1.8546,1.8824,0.0,0.0,0.0,0.0,0.0,0.0,2.0052,2.1457,2.2166,2.2955,2.3828,2.3828,2.3657,2.3334,2.3547,2.3257,2.2533,2.2522,2.0754,1.7327,0.0,0.0,0.0,0.0,2.0171,2.1199,2.126,2.1391,2.1655,2.1068,2.0639,2.0425,2.0537,2.0875,2.1429,2.1291,2.1157,2.1012,1.9536,0.0,0.0,0.0,0.0,0.0,0.0,0.0,0.0,0.0,0.0,0.0,0.0,0.0,0.0,0.0,0.0,0.0,0.0,0.0,1.6291,1.859,1.9481,0.0,0.0,0.0,0.0,0.0,0.0,0.0,0.0,0.0,2.3863,2.5224,2.6207,0.0,0.0,2.7339,2.6874,2.7987,2.8529,2.772,2.7631,0.0,0.0,2.605,2.5646,2.6868,2.756,2.7796,2.7388,2.7675,2.7715,2.7096,2.7526,2.7918,2.783,2.7057,2.6706,2.7508,2.7806,2.7992,2.8519,2.9534,3.0325,2.1695,2.0522,1.9482,1.9502,2.0222,1.9997,2.0628,2.1819,2.1797,2.1394,2.0738,2.0995,2.0255,1.8844,1.8546,0.0,0.0,0.0,2.1514,2.3125,2.3393,2.4005,2.4874,2.5058,2.4929,2.4519,2.4617,2.4222,2.333,2.3634,2.218,1.9203,0.0,0.0,1.9698,2.0382,2.1295,2.236,2.2167,2.2153,2.2355,2.183,2.1306,2.0804,2.0788,2.0802,2.0818,2.1252,2.1648,2.1921,2.1035,2.0313,0.0,0.0,0.0,0.0,0.0,0.0,0.0,0.0,0.0,0.0,0.0,1.5691,1.3689,0.0,0.0,0.0,1.7537,1.7816,1.8246,2.0177,0.0,0.0,0.0,0.0,0.0,0.0,0.0,2.447,2.495,2.5449,2.647,2.7162,2.7442,2.7102,2.7694,2.8068,2.7765,0.0,2.9023,2.8594,2.8718,2.8836,2.8797,2.7585,2.6953,2.8015,2.8347,2.8445,2.8516,2.8672,2.873,2.8613,2.8672,2.8848,2.9023,2.8613,2.8251,2.8528,2.8599,2.8733,2.9133,2.987,3.0478,2.3487,2.337,2.1407,2.1065,2.1815,2.1766,2.2181,2.2892,2.282,2.2773,2.2737,2.2797,2.2198,2.1167,2.0455,0.0,2.1921,2.2226,2.3256,2.4922,2.5141,2.5461,2.5924,2.62,2.6181,2.5771,2.5409,2.4816,2.3982,2.3887,2.296,2.1283,2.1497,2.1783,2.2018,2.1724,2.2452,2.4228,2.3448,2.3038,2.3006,2.2704,2.2169,2.146,2.1444,2.1121,2.0473,2.1393,2.223,2.2759,2.2313,2.2042,2.2087,0.0,0.0,0.0,0.0,0.0,0.0,0.0,0.0,0.0,0.0,0.0,0.0,0.0,0.0,0.0,2.1687,0.0,2.2407,2.2628,0.0,0.0,0.0,2.1657,2.317,2.3745,2.4828,2.6712,0.0,0.0,2.8809,2.8652,2.8381,2.82,2.867,2.8949,2.8779,2.9325,2.9598,2.918,2.9453,2.9735,2.9715,2.9258,2.9023,2.918,2.9473,2.9609,2.9375,2.9551,2.9609,2.9355,2.9559,2.9931,3.0293,3.0312,2.998,2.8933,2.8679,2.8758,2.9293,2.9976,3.0593,2.3419,2.387,2.2139,2.2066,2.3012,2.2417,2.2441,2.2857,2.2236,2.181,2.1556,2.1827,2.1979,2.1946,2.2022,2.2715,2.386,2.2988,2.3887,2.6007,2.4476,2.4309,2.5273,2.4644,2.416,2.3877,2.3964,2.3941,2.3769,2.3546,2.3321,2.3145,2.3053,2.2605,2.1787,2.2581,2.3372,2.4134,2.3633,2.3263,2.3022,2.2898,2.2545,2.1889,2.1857,2.1385,2.0473,2.0664,2.1437,2.2711,2.2393,2.2824,2.4212,2.0294,0.0,0.0,0.0,0.0,0.0,0.0,0.0,0.0,0.0,1.9604,1.6233,0.0,1.9649,0.0,2.3671,2.4195,2.163,2.3055,0.0,0.0,2.2896,2.3323,2.5769,2.533,2.5628,2.77,2.7976,2.8359,2.9297,2.9609,2.9735,2.9693,2.9774,2.9774,2.9466,3.037,3.0898,3.0547,3.0742,3.0937,3.0605,3.0508,3.0508,3.084,3.0976,3.1133,3.1377,3.1494,3.1534,3.1455,3.1494,3.1612,3.169,3.1729,3.1631,3.1319,3.0976,3.0879,3.1309,3.1573,3.1749,2.3092,2.3425,2.2524,2.2535,2.3094,2.2339,2.2231,2.2545,2.2127,2.1888,2.183,2.2192,2.2544,2.2835,2.3015,2.3748,2.4709,2.3632,2.4206,2.6066,2.462,2.4393,2.5257,2.4879,2.4589,2.4402,2.4556,2.4416,2.4074,2.4057,2.3954,2.3713,2.392,2.363,2.2968,2.3498,2.3721,2.3594,2.3705,2.3581,2.3232,2.3101,2.272,2.2193,2.2423,2.2156,2.1412,2.1728,2.2166,2.2684,2.2496,2.3038,2.4364,2.1671,2.0372,0.0,0.0,0.0,0.0,0.0,0.0,0.0,0.0,0.0,0.0,0.0,2.1423,2.1748,2.4641,2.5488,2.3049,2.459,2.5619,2.5377,2.5139,2.5678,2.7389,2.7311,2.7643,2.8965,2.9141,2.9394,3.0087,3.0176,3.0273,3.0469,3.0664,3.0703,3.0547,3.1094,3.1504,3.1514,3.166,3.166,3.123,3.1328,3.1465,3.1523,3.168,3.1894,3.2159,3.2198,3.2198,3.2198,3.2198,3.2276,3.2402,3.2472,3.2531,3.2656,3.2539,3.2344,3.2218,3.2335,3.2472,2.2595,2.2675,2.2461,2.2435,2.2493,2.1784,2.1729,2.2101,2.1996,2.2122,2.2414,2.2776,2.3077,2.3311,2.3521,2.4177,2.5078,2.4216,2.4574,2.5869,2.5086,2.493,2.5378,2.5615,2.5657,2.5535,2.5568,2.5182,2.4413,2.4756,2.4537,2.3782,2.4379,2.4595,2.4529,2.4323,2.3893,2.3244,2.375,2.3816,2.3454,2.3105,2.2812,2.255,2.3027,2.3159,2.2888,2.3475,2.3565,2.2978,2.2898,2.3183,2.391,2.3232,2.2426,0.0,2.1182,0.0,0.0,0.0,0.0,0.0,0.0,0.0,0.0,2.3718,2.3689,2.2428,2.5215,2.6641,2.5556,2.6484,2.7226,2.7344,2.7702,2.8112,2.8594,2.9266,2.9872,3.0312,3.0312,3.0469,3.0957,3.0703,3.0625,3.1035,3.1348,3.1562,3.163,3.1669,3.1875,3.2266,3.2355,3.2246,3.1923,3.2109,3.2207,3.1914,3.2129,3.2324,3.2394,3.2394,3.2363,3.2374,3.2413,3.2511,3.2812,3.2871,3.2988,3.3269,3.3289,3.3125,3.2598,3.2637,3.2851,2.2103,2.2568,2.1213,2.1093,2.1672,2.0848,2.0914,2.1578,2.0867,2.0599,2.0704,2.133,2.1601,2.1747,2.3014,2.4285,2.5457,2.5011,2.5683,2.7071,2.5163,2.4416,2.4716,2.4008,2.364,2.3657,2.3902,2.3948,2.3776,2.4359,2.4591,2.4408,2.4823,2.4752,2.4243,0.0,0.0,0.0,2.3835,2.3438,2.3089,2.2768,2.2765,2.3121,2.3503,0.0,2.4189,2.4071,2.4213,2.4672,2.4337,0.0,0.0,0.0,0.0,0.0,0.0,0.0,0.0,0.0,0.0,0.0,2.4049,2.4085,2.3786,2.5351,2.5877,2.4695,2.6372,2.7467,2.7233,2.7721,2.834,2.9031,2.9188,2.9559,3.0273,3.0215,3.0371,3.1152,3.0976,3.1055,3.1738,3.1866,3.1797,3.1855,3.2022,3.2218,3.25,3.25,3.2695,3.3055,3.3105,3.3094,3.3035,3.3086,3.3086,3.3055,3.3074,3.3164,3.3144,3.3144,3.3164,3.3164,3.3184,3.3184,3.3301,3.3269,3.3328,3.3418,3.3406,3.3347,3.3223,3.3242,3.3269,2.1582,0.0,2.1219,2.1209,0.0,2.1301,2.1417,2.1786,2.1021,2.0955,2.1408,2.1759,2.1993,2.2154,2.2991,2.4069,2.5301,2.4667,2.5053,2.6206,2.4626,2.3852,2.3836,2.3324,2.3173,2.3334,2.3849,2.4174,2.4378,2.5078,2.536,2.5392,2.5565,2.5468,2.5165,2.5278,2.5199,2.4833,2.4469,2.415,2.38,2.3464,2.3319,2.3426,0.0,0.0,0.0,0.0,0.0,0.0,0.0,0.0,0.0,0.0,0.0,2.436,2.3668,2.3218,2.3248,2.389,2.4492,2.4844,2.53,2.5614,2.5665,2.6812,2.7084,2.6034,2.6722,2.7406,2.7861,2.8297,2.8912,2.9787,3.0273,3.0723,3.1133,3.1387,3.1562,3.1777,3.1836,3.1873,3.1886,3.1875,3.1894,3.1913,3.2118,3.2374,3.2723,3.2793,3.2949,3.3359,3.3386,3.3386,3.3386,3.3386,3.3386,3.3386,3.3386,3.3386,3.3386,3.3386,3.3386,3.3406,3.3594,3.375,3.3769,3.3906,3.4043,3.4043,3.4043,3.4062,3.4043,3.3887,3.375,2.132,2.1408,2.1672,2.1774,2.1803,2.2096,2.2213,2.2213,0.0,0.0,0.0,2.2578,2.2738,2.3018,2.3263,2.4002,2.5015,2.4414,2.4508,2.5123,2.4346,2.3767,2.3344,2.3375,2.3564,2.3986,2.4542,2.4933,2.5233,2.5881,2.6184,2.612,2.6168,2.6168,2.6152,2.5866,2.558,2.5294,2.5056,2.4785,2.4514,2.4164,2.3888,2.3623,2.4886,2.5567,2.5635,2.5882,2.5759,2.5245,2.406,2.3754,2.4513,2.4491,2.5033,2.6295,2.6308,2.6151,2.5991,2.6745,2.6796,2.5806,2.6166,2.6693,2.7344,2.7676,2.7604,2.7004,2.6957,2.7383,2.8463,2.8924,2.9592,3.0567,3.1309,3.1728,3.1845,3.2322,3.2525,3.2369,3.2443,3.2417,3.1857,3.1776,3.1738,3.1807,3.2095,3.238,3.2692,3.2856,3.3047,3.3359,3.3386,3.3386,3.3386,3.3386,3.3386,3.3386,3.3464,3.3535,3.3535,3.3594,3.362,3.3679,3.3965,3.4141,3.4199,3.4434,3.4687,3.4687,3.4687,3.4687,3.4668,3.4492,3.4329,2.1789,2.2052,2.2096,2.214,2.2155,2.2169,2.233,2.249,2.2198,2.2155,2.2257,2.2475,2.2621,2.2741,2.3886,2.4626,2.5156,2.5784,2.5881,0.0,2.5384,2.4969,2.4391,2.4406,2.476,2.5386,2.5496,2.5576,2.5656,2.6008,2.6056,2.5862,2.6056,2.6184,2.62,2.6168,2.6088,2.6041,2.4848,2.4241,2.4164,2.3755,2.3788,2.4189,2.4749,2.5227,2.5646,2.5154,2.4907,2.4996,2.4254,2.4044,2.45,2.4816,2.5238,2.5796,2.612,2.6342,2.6565,2.6725,2.6857,2.7046,2.7405,2.7411,2.6871,2.6882,2.7176,2.7775,2.7791,2.8632,3.0219,3.0432,3.0895,3.2116,3.2489,3.2703,3.2891,3.2556,3.2387,3.2574,3.23,3.2017,3.2068,3.2137,3.2073,3.2219,3.2072,3.2346,3.2492,3.2961,3.3277,3.3367,3.3386,3.3386,3.3421,3.3406,3.3433,3.3386,3.3769,3.4016,3.3984,3.4219,3.4394,3.4492,3.4551,3.4609,3.4609,3.4648,3.4766,3.4805,3.4805,3.4785,3.4805,3.498,3.5092,2.2286,2.2432,2.2608,2.2784,2.2959,2.3166,2.3296,2.3398,2.3281,2.3106,2.2988,2.3281,2.3413,2.3459,2.4082,2.4481,2.4862,2.5282,2.5327,2.5073,2.5056,2.4802,2.4393,2.4493,2.4767,2.5106,2.5711,2.5999,2.5999,2.6498,2.6658,2.6543,2.6658,2.6661,2.6486,2.647,2.6407,2.62,2.5579,2.5134,2.4913,2.4723,2.4679,2.474,2.5389,2.5877,2.6098,2.5634,2.5571,2.5996,2.5041,2.481,2.5429,2.5659,2.5889,2.6235,2.6392,2.6516,2.655,2.648,2.6752,2.7364,2.7134,2.6822,2.6458,2.6912,2.7154,2.7094,2.7063,2.7626,2.8972,2.931,2.9888,3.0982,3.1286,3.1487,3.1644,3.146,3.1269,3.1399,3.1148,3.093,3.091,3.0946,3.0928,3.0946,3.106,3.1391,3.2001,3.238,3.2743,3.3071,3.3194,3.3309,3.3482,3.372,3.3818,3.385,3.4148,3.4394,3.4414,3.4609,3.4687,3.4726,3.4902,3.5059,3.5078,3.5273,3.5391,3.541,3.541,3.541,3.5449,3.5605,3.5625,2.2828,2.2943,2.3223,2.3471,2.3735,2.3969,2.4118,2.4118,2.4192,2.4057,2.3899,2.4013,2.4118,2.4118,2.4118,2.4294,2.4573,2.4602,2.4646,2.4705,2.4719,2.4639,2.4583,2.483,2.5026,2.5269,2.6038,2.6426,2.649,2.6974,2.72,2.72,2.72,2.7057,2.6836,2.682,2.6693,2.6438,2.6422,2.6184,2.5771,2.5723,2.558,2.5293,2.5923,2.6208,2.6073,2.5761,2.5787,2.6177,2.5343,2.5172,2.5943,2.6087,2.629,2.6535,2.6582,2.6513,2.6357,2.626,2.6488,2.722,2.6745,2.6391,2.6375,2.7116,2.734,2.6632,2.6614,2.7013,2.8067,2.8533,2.8968,2.9781,3.018,3.045,3.0315,3.02,3.0136,3.0106,3.0021,2.9902,2.9662,2.9594,2.9663,2.9714,2.9833,3.0327,3.1107,3.1293,3.1555,3.218,3.2744,3.3241,3.3567,3.3818,3.4016,3.4054,3.4343,3.4514,3.4586,3.4658,3.4801,3.4898,3.5179,3.5407,3.5533,3.5762,3.5937,3.5937,3.5918,3.5976,3.5937,3.5957,3.6016,2.3413,2.3943,2.4001,2.3998,2.4089,2.4086,2.4148,2.4177,2.4426,2.4543,2.4485,2.4203,2.4133,2.4118,2.4133,2.4324,2.4602,2.4602,2.4763,2.5012,2.5042,2.5364,2.5807,2.5923,2.6306,2.6857,2.7021,2.7055,2.7055,2.7135,2.72,2.72,2.72,2.7185,2.7153,2.7137,2.7137,2.7105,2.7105,2.6771,2.6168,2.6136,2.5929,2.5564,2.5658,2.5371,2.4919,2.4474,2.4316,2.4327,2.4314,2.4539,2.516,2.5527,2.5831,2.6198,2.6262,2.6247,2.6232,2.62,2.6264,2.6344,2.6854,2.6962,2.6741,2.73,2.7651,2.7454,2.746,2.7961,2.9319,2.964,2.9778,2.989,3.0303,3.063,3.0123,2.9936,2.9731,2.9748,2.9351,2.9285,2.911,2.9092,2.9146,2.9025,2.9025,2.9198,2.9508,2.9576,2.9763,3.0463,3.1926,3.3269,3.3496,3.3624,3.3752,3.3785,3.4098,3.437,3.4499,3.4708,3.496,3.5225,3.5467,3.5627,3.5816,3.6016,3.6016,3.6035,3.6035,3.6035,3.6035,3.6035,3.6035,2.413,2.4397,2.4397,2.4514,2.4675,2.469,2.469,2.4705,2.4836,2.4895,2.488,2.4749,2.469,2.469,2.469,2.4778,2.488,2.4895,2.4954,2.5086,2.5086,2.5356,2.5794,2.6011,2.638,2.69,2.71,2.72,2.72,2.72,2.72,2.72,2.72,2.72,2.72,2.72,2.72,2.72,2.72,2.7057,2.6787,2.6597,2.6327,2.6009,2.5929,2.585,2.5579,2.5407,2.5343,2.5341,2.5359,2.5486,2.5738,2.5882,2.6025,2.6168,2.6168,2.6168,2.6216,2.6375,2.6582,2.6788,2.7232,2.7421,2.7328,2.7548,2.7767,2.791,2.7783,2.7932,2.8478,2.8675,2.8736,2.8747,2.8688,2.8558,2.8329,2.8204,2.8107,2.8082,2.7987,2.7916,2.7895,2.7895,2.7803,2.765,2.7623,2.7827,2.8196,2.8305,2.868,2.9537,3.1042,3.2117,3.2677,3.356,3.3916,3.4124,3.4407,3.4622,3.4622,3.4975,3.5333,3.5489,3.5606,3.5743,3.5928,3.5982,3.6035,3.6035,3.6035,3.6035,3.6035,3.6035,3.6035,2.4602,2.4587,2.4514,2.4602,2.4822,2.4822,2.4822,2.4822,2.4822,2.4822,2.4822,2.4822,2.4822,2.4851,2.4998,2.51,2.51,2.51,2.5018,2.495,2.4916,2.5086,2.5322,2.5626,2.6063,2.6501,2.6757,2.6844,2.6814,2.6893,2.6858,2.6775,2.6853,2.6934,2.7034,2.7067,2.71,2.72,2.72,2.72,2.7169,2.6946,2.6725,2.6502,2.647,2.6422,2.6327,2.6327,2.6311,2.6216,2.6168,2.6168,2.6168,2.6168,2.6248,2.6311,2.6359,2.6358,2.6419,2.6688,2.6906,2.7185,2.7566,2.7807,2.7744,2.7792,2.7902,2.7965,2.7815,2.767,2.771,2.7771,2.7749,2.752,2.7301,2.72,2.7105,2.6932,2.6896,2.688,2.6877,2.672,2.6741,2.6769,2.6723,2.6511,2.652,2.6656,2.7246,2.7476,2.7834,2.8678,2.9651,3.0737,3.1687,3.286,3.3761,3.3969,3.4066,3.4299,3.4462,3.4773,3.5127,3.4921,3.5401,3.5743,3.5811,3.5845,3.6035,3.6035,3.6035,3.6035,3.6035,3.6035,3.6035,2.4602,2.4558,2.4232,2.4145,2.4177,2.4192,2.4177,2.4221,2.4192,2.4177,2.4206,2.4192,2.4177,2.4232,2.4788,2.5071,2.5037,2.4974,2.4791,2.4472,2.4486,2.4515,2.4578,2.4902,2.5427,2.6005,2.6094,2.6028,2.5843,2.6045,2.6004,2.5738,2.6032,2.6334,2.6604,2.6655,2.6851,2.7037,2.7021,2.7135,2.7102,2.712,2.7023,2.6975,2.7137,2.6946,2.6709,2.6677,2.6518,2.6232,2.6168,2.6168,2.6168,2.6184,2.6343,2.6613,2.6644,2.6765,2.6949,2.7006,2.7041,2.7189,2.7675,2.799,2.7663,2.7869,2.7916,2.776,2.7621,2.7566,2.7687,2.7885,2.7788,2.725,2.7368,2.7286,2.7034,2.6675,2.6515,2.6515,2.6383,2.631,2.6164,2.6061,2.6179,2.6158,2.6325,2.6528,2.662,2.6841,2.7089,2.7356,2.8207,2.9351,3.0737,3.2126,3.27,3.2976,3.3342,3.3442,3.3463,3.3608,3.4033,3.4474,3.4956,3.5299,3.5504,3.5709,3.5967,3.6035,3.6035,3.6035,3.6035,3.6035,3.6035,2.4793,2.4573,2.425,2.4118,2.4118,2.4118,2.4118,2.4118,2.4118,2.4118,2.4118,2.4118,2.4058,2.4064,2.4295,2.4328,2.414,2.3908,2.3743,2.3596,2.3596,2.3842,2.4247,2.4175,2.4488,2.507,2.5197,2.5277,2.5395,2.5487,2.5468,2.5354,2.5461,2.562,2.5718,2.5718,2.5816,2.5897,2.5718,2.5685,2.5913,2.5489,2.5456,2.5945,2.6746,2.7042,2.6725,2.6709,2.655,2.6216,2.6168,2.6168,2.62,2.6165,2.629,2.6611,2.647,2.6455,2.6721,2.6784,2.6874,2.7076,2.7334,2.745,2.7347,2.7304,2.7258,2.7316,2.7154,2.7111,2.7332,2.762,2.771,2.7407,2.708,2.6885,2.6653,2.6398,2.6266,2.6457,2.6544,2.6647,2.6559,2.6632,2.6559,2.6383,2.6427,2.6413,2.6252,2.631,2.6442,2.6526,2.7276,2.8169,2.8606,3.0943,3.2345,3.2588,3.2886,3.339,3.3582,3.3824,3.4248,3.4543,3.4853,3.5299,3.5641,3.5845,3.6035,3.6035,3.6035,3.6035,3.6035,3.6035,3.6035,2.4646,2.4397,2.3954,2.3764,2.3764,2.3764,2.3823,2.3943,2.3925,2.3984,2.4071,2.3988,2.3876,2.3818,2.3615,2.3436,2.3281,2.3337,2.3336,2.3203,2.3203,2.3381,2.3641,2.36,2.3847,2.4361,2.4618,2.466,2.4545,2.4732,2.481,2.4681,2.4772,2.4912,2.4976,2.4994,2.5073,2.5106,2.4879,2.486,2.5048,2.4639,2.46,2.5176,2.6034,2.6481,2.6371,2.6469,2.6502,2.6359,2.628,2.6168,2.6168,2.6035,2.6093,2.6414,2.6247,2.6191,2.6415,2.655,2.6617,2.6743,2.6878,2.6948,2.6933,2.6876,2.6937,2.7043,2.6949,2.6879,2.706,2.7286,2.742,2.7354,2.6959,2.6661,2.6647,2.6383,2.6266,2.6325,2.6471,2.6617,2.6676,2.6661,2.653,2.6369,2.6413,2.6383,2.6237,2.6281,2.6339,2.6375,2.6947,2.7403,2.7868,2.9495,3.0732,3.1063,3.2243,3.2923,3.3482,3.3831,3.4301,3.4577,3.4956,3.5436,3.5777,3.5967,3.6001,3.6001,3.6035,3.6035,3.6035,3.6035,3.6035,2.4148,2.4057,2.3398,2.3267,2.334,2.331,2.3369,2.3676,2.3676,2.382,2.3974,2.3681,2.3546,2.3379,2.2942,2.261,2.2781,2.3442,2.3575,2.3262,2.3256,2.3147,2.2984,2.3174,2.3486,2.3899,2.4331,2.4035,2.3325,2.3796,2.3978,2.3755,2.399,2.4269,2.4605,2.4575,2.4767,2.4974,2.4777,2.4767,2.5021,2.4639,2.4528,2.4843,2.4983,2.5233,2.5636,2.6038,2.6358,2.6613,2.6407,2.6232,2.6184,2.5877,2.5808,2.6149,2.616,2.611,2.6188,2.6434,2.6418,2.6272,2.6403,2.6578,2.6688,2.6838,2.6958,2.6952,2.6926,2.6917,2.6939,2.6997,2.7027,2.6983,2.691,2.6866,2.6852,2.6676,2.6383,2.6179,2.6208,2.6076,2.6076,2.6237,2.6281,2.6296,2.6398,2.6559,2.653,2.6691,2.691,2.6925,2.7003,2.7146,2.7467,2.7939,2.8644,2.9423,3.0994,3.2087,3.261,3.3029,3.3884,3.4301,3.4749,3.523,3.5694,3.5865,3.5947,3.5947,3.5982,3.6035,3.6035,3.6035,3.6035,2.4456,2.4412,2.3987,2.391,2.4104,2.3913,2.3969,2.4218,2.4075,2.3854,2.3666,2.3551,2.3337,2.3109,2.2851,2.276,2.2795,2.3086,2.2951,2.2539,2.2485,2.2539,2.2579,2.2499,2.2624,2.2929,2.3074,2.3139,2.3099,2.3253,2.3375,2.349,2.3454,2.372,2.4201,2.3849,2.394,2.4609,2.4192,2.4036,2.4256,2.3804,2.3548,2.3634,2.3837,2.4163,2.4523,2.555,2.6294,2.6659,2.6597,2.655,2.6485,2.6144,2.6213,2.669,2.6565,2.6448,2.6444,2.6467,2.6467,2.6331,2.624,2.6326,2.6458,2.6414,2.6405,2.6355,2.6337,2.6398,2.6603,2.6661,2.6764,2.6969,2.6793,2.6691,2.6705,2.6588,2.6471,2.6413,2.6544,2.6661,2.6676,2.6661,2.6632,2.6632,2.6749,2.6808,2.6852,2.6896,2.6983,2.6998,2.6998,2.6998,2.7274,2.7492,2.7931,2.8908,3.0291,3.1635,3.207,3.2802,3.3588,3.4163,3.4577,3.5024,3.5489,3.5728,3.5811,3.5913,3.6001,3.6035,3.6035,3.6035,3.6035,2.4675,2.4749,2.4426,2.4485,2.4749,2.4558,2.4661,2.4876,2.4548,2.4305,2.419,2.3789,2.3509,2.3242,2.3005,2.2889,2.2893,2.2893,2.2693,2.2385,2.2345,2.2418,2.2552,2.2439,2.2331,2.245,2.2615,2.2712,2.2831,2.293,2.3126,2.3233,2.3124,2.3253,2.3634,2.3314,2.3428,2.3856,2.3454,2.3278,2.3395,2.3055,2.2827,2.2993,2.3178,2.3634,2.4313,2.5244,2.595,2.6426,2.6689,2.6834,2.6702,2.6415,2.6344,2.6387,2.6424,2.6254,2.604,2.6141,2.6252,2.6149,2.6026,2.6091,2.6266,2.6179,2.6208,2.6193,2.6354,2.6421,2.6647,2.6691,2.6793,2.6969,2.6837,2.6691,2.6691,2.6691,2.6691,2.672,2.6852,2.6969,2.6998,2.6998,2.6998,2.6998,2.6998,2.6998,2.6998,2.6983,2.6998,2.6998,2.6998,2.6998,2.6998,2.7165,2.7347,2.8465,2.9793,3.1069,3.1965,3.2961,3.3851,3.4163,3.4543,3.4921,3.5352,3.5523,3.5606,3.5797,3.606,3.6035,3.6035,3.6035,3.6035,2.4836,2.5056,2.4807,2.4924,2.5188,2.5159,2.5252,2.5411,2.5092,2.4999,2.496,2.4282,2.3852,2.3706,2.3186,2.2954,2.2893,2.2893,2.288,2.2827,2.2827,2.284,2.2827,2.28,2.2666,2.2539,2.2747,2.2779,2.2635,2.2852,2.3018,2.3088,2.3032,2.3051,2.3206,2.3051,2.3079,2.3299,2.2927,2.2865,2.3084,2.2781,2.266,2.2929,2.3011,2.3536,2.4485,2.4913,2.5387,2.6059,2.6741,2.6932,2.6711,2.6571,2.6231,2.5835,2.5891,2.5702,2.5328,2.5784,2.5962,2.5737,2.5883,2.5991,2.6031,2.6284,2.6422,2.6473,2.6713,2.6925,2.6954,2.6954,2.7005,2.6983,2.6954,2.6939,2.6983,2.6969,2.6939,2.6954,2.6983,2.6998,2.6998,2.6998,2.6998,2.6998,2.6998,2.6998,2.6998,2.6998,2.6998,2.6998,2.6998,2.6998,2.6998,2.7034,2.7384,2.8938,2.9959,3.081,3.1963,3.3018,3.4073,3.435,3.4557,3.4916,3.523,3.5501,3.5797,3.6111,3.6156,3.6064,3.6074,3.6113,3.6035,2.533,2.5418,2.5544,2.5827,2.6061,2.5886,2.5769,2.5754,2.5412,2.5045,2.4628,2.4325,2.3915,2.3467,2.3281,2.3086,2.296,2.2893,2.2893,2.2893,2.2893,2.2893,2.2893,2.2893,2.2853,2.2773,2.2848,2.2835,2.2802,2.2883,2.3032,2.3295,2.3028,2.3189,2.3591,2.3162,2.3361,2.3878,2.3694,2.3488,2.3557,2.3515,2.3303,2.2914,2.3133,2.3413,2.3872,2.4351,2.5106,2.6035,2.6522,2.6598,2.6277,2.6212,2.622,2.62,2.6064,2.5968,2.5833,2.6072,2.6154,2.5826,2.5869,2.5898,2.5874,2.6213,2.638,2.6503,2.6772,2.6983,2.6998,2.6998,2.6998,2.6998,2.6962,2.6998,2.6998,2.6998,2.6998,2.6998,2.6998,2.6998,2.6998,2.7013,2.7027,2.7027,2.7042,2.7056,2.7115,2.71,2.7159,2.7042,2.7013,2.6998,2.6998,2.6998,2.7725,2.9509,3.0378,3.0742,3.1886,3.295,3.3979,3.4748,3.4763,3.5025,3.5438,3.5746,3.6077,3.6305,3.6452,3.64,3.6333,3.6328,3.6133,2.5661,2.5924,2.6135,2.6413,2.6676,2.65,2.6315,2.6056,2.5712,2.5232,2.4715,2.4354,2.404,2.3674,2.3412,2.3247,2.306,2.2947,2.2893,2.2893,2.2893,2.2893,2.2893,2.2893,2.2893,2.2893,2.2893,2.2893,2.288,2.2893,2.2996,2.3092,2.2991,2.314,2.3386,2.3168,2.3161,2.3632,2.3563,2.3459,2.3494,2.3494,2.3322,2.2989,2.3099,2.3236,2.3454,2.4078,2.4807,2.5349,2.5725,2.5818,2.5638,2.5736,2.5886,2.6072,2.5974,2.5939,2.5989,2.6148,2.6128,2.5941,2.5869,2.5822,2.589,2.6166,2.6385,2.6422,2.6619,2.6728,2.6728,2.6619,2.6582,2.6692,2.6765,2.6801,2.6947,2.6998,2.6998,2.6998,2.6998,2.6998,2.6998,2.71,2.7174,2.7232,2.7378,2.7408,2.7415,2.7341,2.7349,2.7305,2.7283,2.7378,2.7408,2.7408,2.7607,2.9305,3.1048,3.1309,3.2388,3.3411,3.4162,3.4972,3.5009,3.5135,3.555,3.5909,3.6096,3.6332,3.6572,3.6701,3.656,3.6513,3.6279,2.5939,2.65,2.6508,2.6648,2.6881,2.6874,2.6488,2.6202,2.5831,2.5428,2.502,2.4488,2.4231,2.4168,2.3634,2.3332,2.3252,2.3027,2.292,2.2893,2.2893,2.2893,2.2893,2.2893,2.2893,2.2893,2.2893,2.2893,2.2893,2.2893,2.2893,2.2928,2.2914,2.288,2.303,2.2914,2.2893,2.3002,2.3096,2.3123,2.315,2.3177,2.3155,2.3027,2.3,2.3159,2.3467,2.3963,2.4406,2.4434,2.4795,2.5054,2.5021,2.5228,2.5349,2.5419,2.5583,2.5691,2.5841,2.587,2.5855,2.5789,2.5733,2.5676,2.569,2.591,2.6143,2.6093,2.6312,2.6312,2.6276,2.5983,2.6019,2.6239,2.6363,2.6546,2.6838,2.6983,2.6998,2.6998,2.6998,2.6998,2.7152,2.7313,2.7481,2.7525,2.7604,2.7648,2.7678,2.7663,2.7678,2.7721,2.7765,2.7838,2.7838,2.7838,2.8116,2.8941,3.1228,3.236,3.3578,3.4432,3.4812,3.5192,3.5412,3.554,3.572,3.5952,3.6165,3.6396,3.6701,3.6717,3.6693,3.6631,3.651,2.6369,2.6479,2.6453,2.6474,2.6495,2.6166,2.5836,2.5483,2.5373,2.5152,2.477,2.4556,2.4409,2.4195,2.3834,2.3554,2.3292,2.3046,2.2893,2.2893,2.2893,2.2893,2.2893,2.2893,2.2893,2.2893,2.2893,2.2893,2.2893,2.2893,2.2893,2.2893,2.2893,2.2893,2.2893,2.2893,2.2893,2.2934,2.3073,2.3166,2.3207,2.3388,2.3402,2.322,2.3172,2.3255,2.3356,2.3725,2.3904,2.4129,2.4713,2.5051,2.4858,2.487,2.5052,2.523,2.5149,2.5171,2.5402,2.5657,2.5665,2.5446,2.5341,2.5189,2.4894,2.5263,2.5483,2.552,2.5726,2.591,2.5836,2.5543,2.5607,2.5828,2.6011,2.6158,2.6473,2.6867,2.7027,2.7013,2.7042,2.7086,2.7371,2.7437,2.7627,2.7751,2.7868,2.7911,2.7955,2.7999,2.8043,2.8116,2.8101,2.8145,2.8145,2.8274,2.8623,2.9071,3.0996,3.2932,3.4144,3.4954,3.5138,3.554,3.5981,3.6018,3.598,3.6237,3.6512,3.6638,3.6762,3.6768,3.677,3.6739,3.6719,2.6457,2.6698,2.651,2.6385,2.6312,2.5983,2.558,2.5263,2.5203,2.4968,2.4673,2.4599,2.4506,2.4369,2.3981,2.3674,2.35,2.322,2.3027,2.2974,2.2979,2.2993,2.2907,2.2893,2.2893,2.2907,2.2893,2.2893,2.2893,2.2893,2.2893,2.2893,2.2893,2.2893,2.2893,2.2893,2.2893,2.2907,2.3041,2.3113,2.3153,2.3281,2.3407,2.3292,2.3292,2.3345,2.3541,2.3821,2.3955,2.4143,2.4598,2.4825,2.4571,2.4521,2.4757,2.5098,2.5125,2.5162,2.5472,2.5505,2.5396,2.5189,2.5042,2.4821,2.4747,2.4968,2.5166,2.5239,2.5373,2.5446,2.5249,2.5079,2.5156,2.5677,2.595,2.6214,2.6683,2.7047,2.7217,2.7247,2.7378,2.751,2.7656,2.7744,2.792,2.8131,2.8403,2.8447,2.8476,2.8505,2.8476,2.8467,2.8423,2.8423,2.8461,2.8683,2.9165,2.9732,3.0795,3.2609,3.4067,3.472,3.5204,3.5665,3.6164,3.6182,3.6165,3.646,3.6664,3.6755,3.677,3.6822,3.6798,3.6749,3.6732,2.6414,2.6947,2.6436,2.6253,2.6239,2.58,2.5396,2.5115,2.5115,2.4894,2.4636,2.4599,2.4586,2.4466,2.4088,2.3848,2.3701,2.3541,2.3273,2.3188,2.33,2.3273,2.3161,2.3121,2.3121,2.3027,2.2934,2.2907,2.2893,2.2893,2.2893,2.2893,2.2893,2.2893,2.2893,2.2893,2.2893,2.2907,2.3081,2.3174,2.3215,2.3268,2.3447,2.3452,2.3519,2.3634,2.3848,2.4102,2.4275,2.4275,2.4466,2.4476,2.4356,2.4289,2.4465,2.5065,2.5051,2.5134,2.5267,2.5235,2.5079,2.5079,2.4821,2.4636,2.4673,2.4857,2.5005,2.5092,2.5092,2.5046,2.4727,2.478,2.5063,2.5589,2.6083,2.6608,2.7102,2.7415,2.7634,2.7569,2.7671,2.778,2.797,2.8116,2.8306,2.8481,2.8739,2.8886,2.8886,2.8871,2.8769,2.8739,2.8681,2.8666,2.8666,2.869,2.9189,2.9722,3.0592,3.1988,3.3596,3.4374,3.4938,3.5793,3.6201,3.6201,3.6201,3.6275,3.646,3.6664,3.6682,3.657,3.6623,3.6728,3.6774,2.6605,2.6925,2.585,2.5593,2.5763,2.5102,2.4784,2.471,2.4747,2.4673,2.4599,2.4599,2.4599,2.4492,2.4302,2.4008,2.383,2.3723,2.3683,2.3603,2.3661,2.3656,2.3576,2.3536,2.3589,2.3509,2.3228,2.2987,2.296,2.2893,2.3,2.2934,2.2947,2.296,2.2974,2.2907,2.2987,2.3081,2.3348,2.3549,2.3643,2.3861,2.4035,2.3981,2.3955,2.4022,2.4155,2.4396,2.4532,2.4532,2.4572,2.4559,2.4506,2.4492,2.4606,2.4683,2.4747,2.4857,2.4894,2.4821,2.471,2.4673,2.4636,2.4599,2.4636,2.4673,2.4747,2.476,2.4787,2.478,2.5021,2.4997,2.5157,2.561,2.6199,2.6682,2.7008,2.7602,2.8087,2.7993,2.7984,2.8043,2.8262,2.8423,2.8549,2.8651,2.8798,2.8886,2.8886,2.8886,2.8856,2.8856,2.8856,2.8856,2.8842,2.8827,2.9036,2.9293,3.006,3.1085,3.2517,3.3785,3.4652,3.5381,3.5978,3.6201,3.6201,3.6201,3.6238,3.6423,3.6386,3.6331,3.6405,3.6551,3.6901,2.6242,2.6276,2.552,2.5299,2.5373,2.4857,2.4599,2.4599,2.4599,2.4599,2.4599,2.4599,2.4599,2.4519,2.4292,2.4048,2.391,2.3941,2.3937,2.387,2.3915,2.3901,2.3843,2.383,2.3817,2.3736,2.3496,2.3362,2.3362,2.3388,2.3335,2.3375,2.3375,2.3362,2.3375,2.3402,2.3348,2.3442,2.3643,2.3817,2.383,2.4115,2.4142,2.4222,2.4222,2.4275,2.4399,2.4492,2.4599,2.4586,2.4599,2.4599,2.4599,2.4599,2.4599,2.4599,2.4599,2.4599,2.4599,2.4599,2.4599,2.4599,2.4599,2.4599,2.4599,2.4599,2.4599,2.4639,2.4823,2.4917,2.5088,2.5211,2.5438,2.5819,2.6463,2.6916,2.7312,2.81,2.8313,2.8364,2.8461,2.8534,2.8608,2.871,2.8754,2.8812,2.8886,2.8886,2.8886,2.8886,2.8886,2.8886,2.8886,2.8886,2.8886,2.8886,2.8886,2.9119,2.9508,3.0539,3.1638,3.2952,3.3974,3.4819,3.5381,3.6126,3.6201,3.6201,3.6201,3.6201,3.6238,3.6256,3.6275,3.6386,3.6719,2.5757,2.5763,2.5299,2.5115,2.5115,2.4784,2.4599,2.4599,2.4599,2.4599,2.4599,2.4599,2.4599,2.4532,2.4409,2.4168,2.4004,2.4209,2.4155,2.4088,2.4182,2.4155,2.4008,2.3941,2.3995,2.4048,2.4017,2.3875,2.3736,2.3736,2.3777,2.3736,2.379,2.3817,2.3763,2.371,2.3803,2.3817,2.3848,2.3861,2.3928,2.3991,2.4035,2.4262,2.4289,2.4372,2.4546,2.4586,2.4599,2.4599,2.4599,2.4599,2.4599,2.4599,2.4599,2.4599,2.4599,2.4599,2.4599,2.4599,2.4599,2.4599,2.4599,2.4599,2.4599,2.4599,2.4626,2.4756,2.4903,2.5195,2.5317,2.5478,2.577,2.6114,2.6676,2.7262,2.7636,2.8125,2.8579,2.872,2.8847,2.8871,2.8788,2.8827,2.8827,2.8827,2.8886,2.8886,2.8886,2.8886,2.8886,2.8886,2.8886,2.8886,2.8886,2.8886,2.8886,2.8964,2.9275,2.9959,3.1078,3.2212,3.3369,3.4744,3.553,3.6201,3.6201,3.6201,3.6201,3.6201,3.6201,3.6201,3.6238,3.6275,3.646,2.5478,2.5726,2.5005,2.4857,2.5079,2.4747,2.4599,2.4599,2.4599,2.4599,2.4599,2.4599,2.4599,2.4572,2.4559,2.4506,2.4492,2.4466,2.4466,2.4399,2.4466,2.4479,2.4466,2.4506,2.4399,2.4409,2.4412,2.4222,2.4017,2.3897,2.3857,2.387,2.391,2.3843,2.3888,2.395,2.3817,2.387,2.4035,2.4262,2.4412,2.4476,2.4479,2.4532,2.4532,2.4559,2.4626,2.4626,2.4613,2.4639,2.4626,2.4613,2.4599,2.4599,2.4599,2.4599,2.4599,2.4599,2.4599,2.4599,2.4599,2.4599,2.4599,2.4599,2.4639,2.4666,2.4783,2.501,2.5104,2.5355,2.5703,2.5891,2.6091,2.6343,2.6751,2.7197,2.7608,2.8079,2.8549,2.873,2.8808,2.8808,2.8793,2.8847,2.8886,2.8886,2.8886,2.8886,2.8886,2.8886,2.8886,2.8886,2.8886,2.8886,2.8886,2.8886,2.8886,2.8886,2.9353,2.9726,3.0924,3.2228,3.3748,3.4969,3.5717,3.6163,3.6201,3.6201,3.6201,3.6201,3.6201,3.6201,3.6201,3.6275,3.6312,2.5359,2.5115,2.5005,2.4894,2.4857,2.4673,2.4599,2.4599,2.4599,2.4599,2.4599,2.4599,2.4599,2.4599,2.4599,2.4586,2.4599,2.4599,2.4599,2.4599,2.4599,2.4599,2.4586,2.4599,2.4599,2.4599,2.4586,2.4492,2.4289,2.4249,2.4262,2.4235,2.4249,2.4289,2.4195,2.4249,2.4275,2.4315,2.4396,2.4502,2.4559,2.4613,2.4679,2.4863,2.4706,2.4719,2.4823,2.4666,2.4706,2.4823,2.489,2.4983,2.509,2.5106,2.5144,2.5106,2.5106,2.4946,2.4666,2.4613,2.4613,2.4599,2.4613,2.4666,2.4823,2.489,2.4997,2.5291,2.5478,2.5743,2.5971,2.6145,2.6239,2.6465,2.6742,2.7136,2.753,2.8015,2.8407,2.8588,2.873,2.8705,2.8744,2.8847,2.8886,2.8886,2.8886,2.8886,2.8886,2.8886,2.8886,2.8886,2.8886,2.8886,2.8886,2.8886,2.8886,2.9042,2.9843,3.0346,3.1194,3.2457,3.3899,3.4932,3.5605,3.594,3.6126,3.6201,3.6201,3.6201,3.6201,3.6201,3.6201,3.6238,3.6367,2.5483,2.4784,2.5079,2.4968,2.4599,2.4599,2.4599,2.4599,2.4599,2.4599,2.4599,2.4599,2.4599,2.4599,2.4599,2.4599,2.4599,2.4599,2.4599,2.4599,2.4599,2.4599,2.4599,2.4599,2.4599,2.4599,2.4599,2.4559,2.4572,2.4559,2.4532,2.4599,2.4506,2.4546,2.4572,2.4546,2.4519,2.4532,2.4639,2.4756,2.4783,2.4826,2.4997,2.5064,2.4973,2.4919,2.5117,2.5024,2.5024,2.513,2.5184,2.5277,2.5411,2.5424,2.5358,2.5317,2.5264,2.5077,2.4786,2.4666,2.473,2.473,2.4653,2.4746,2.513,2.5157,2.5302,2.5571,2.5797,2.5957,2.6131,2.6305,2.6333,2.6452,2.6623,2.7018,2.7372,2.7687,2.7976,2.8157,2.8314,2.851,2.8588,2.8783,2.8847,2.8886,2.8886,2.8886,2.8886,2.8886,2.8886,2.8886,2.8886,2.8886,2.8886,2.8886,2.8886,2.9119,2.9881,3.0809,3.1616,3.2571,3.3823,3.4707,3.553,3.5903,3.6201,3.6201,3.6201,3.6201,3.6201,3.6201,3.6201,3.6256,3.6479,2.5887,2.5152,2.5189,2.4954,2.4586,2.4599,2.4599,2.4559,2.4586,2.4599,2.4599,2.4613,2.4639,2.4639,2.4693,2.4693,2.4639,2.4599,2.4639,2.4639,2.4599,2.4599,2.4599,2.4599,2.4599,2.4599,2.4599,2.4599,2.4599,2.4599,2.4599,2.4599,2.4679,2.4626,2.4653,2.4719,2.4733,2.4773,2.4943,2.505,2.5117,2.5237,2.5411,2.5451,2.5464,2.5464,2.5478,2.5384,2.5398,2.5478,2.5491,2.5545,2.5651,2.5611,2.5518,2.5384,2.5264,2.509,2.4853,2.4903,2.5024,2.497,2.489,2.4893,2.5411,2.5237,2.5422,2.5877,2.6038,2.6145,2.6292,2.6412,2.6386,2.6426,2.6544,2.6781,2.7018,2.7136,2.7412,2.7687,2.7961,2.8236,2.8431,2.8627,2.8847,2.8886,2.8886,2.8886,2.8886,2.8886,2.8886,2.8886,2.8886,2.8886,2.8886,2.8886,2.8886,2.908,2.961,3.077,3.1868,3.2935,3.4012,3.4839,3.568,3.5978,3.6201,3.6201,3.6201,3.6201,3.6201,3.6201,3.6312,3.6423,3.6738,2.607,2.5529,2.513,2.4734,2.4346,2.4519,2.4492,2.4386,2.4519,2.4599,2.4626,2.481,2.4903,2.4943,2.5117,2.517,2.5144,2.497,2.493,2.4836,2.4719,2.4626,2.4599,2.4613,2.4599,2.4613,2.4599,2.4599,2.4599,2.4653,2.4746,2.4836,2.4917,2.4917,2.4943,2.5037,2.5093,2.5133,2.5264,2.5344,2.5371,2.5438,2.5598,2.5772,2.5558,2.5638,2.5718,2.5585,2.5638,2.5732,2.5772,2.5852,2.5905,2.5825,2.5678,2.5569,2.5398,2.5211,2.5104,2.5117,2.5144,2.5264,2.513,2.5157,2.5705,2.569,2.585,2.6118,2.6213,2.6279,2.6333,2.6386,2.64,2.64,2.6465,2.6637,2.6755,2.6874,2.6992,2.7254,2.7726,2.8157,2.8314,2.851,2.8705,2.8886,2.8886,2.8886,2.8886,2.8886,2.8886,2.8886,2.8886,2.8886,2.8886,2.8886,2.8886,2.9119,2.9392,3.0423,3.1638,3.3331,3.4351,3.5194,3.5717,3.594,3.6089,3.6163,3.6201,3.6201,3.6201,3.6201,3.6349,3.6534,3.6886,2.5898,2.5524,2.4802,2.4404,2.4222,2.4386,2.4359,2.4239,2.4479,2.4666,2.4783,2.4997,2.5144,2.5251,2.5398,2.5491,2.5411,2.5304,2.5224,2.5144,2.5037,2.4826,2.4796,2.4783,2.4773,2.4733,2.4746,2.4759,2.4919,2.4903,2.5037,2.5184,2.5291,2.5317,2.5251,2.5384,2.5518,2.5518,2.5611,2.5638,2.5651,2.5772,2.5852,2.6091,2.5905,2.5905,2.6012,2.5945,2.5932,2.6038,2.6078,2.6145,2.6172,2.6079,2.5865,2.5732,2.5571,2.5371,2.5251,2.5304,2.5331,2.5558,2.5371,2.5558,2.5931,2.6065,2.6065,2.6293,2.6373,2.64,2.64,2.64,2.64,2.64,2.64,2.6505,2.6623,2.6702,2.6742,2.686,2.7412,2.7961,2.8197,2.8378,2.873,2.8886,2.8886,2.8886,2.8886,2.8886,2.8886,2.8886,2.8886,2.8886,2.8886,2.8886,2.8886,2.8964,2.9314,2.992,3.1194,3.28,3.4087,3.4707,3.5194,3.5717,3.6015,3.6163,3.6201,3.6201,3.6201,3.6201,3.6312,3.6497,3.6775,2.5402,2.5107,2.4251,2.4004,2.4159,2.4209,2.4222,2.4249,2.4543,2.4786,2.5064,2.5181,2.5291,2.5478,2.5611,2.5665,2.5638,2.5558,2.5504,2.5478,2.5371,2.5277,2.5157,2.5064,2.5077,2.5115,2.5077,2.517,2.5371,2.5331,2.5411,2.5545,2.5665,2.5824,2.5531,2.5518,2.5531,2.5558,2.5798,2.5904,2.5917,2.6012,2.6119,2.6238,2.6225,2.6198,2.6239,2.6253,2.6213,2.6212,2.6078,2.6118,2.6159,2.5772,2.5545,2.5504,2.5237,2.4983,2.4733,2.5186,2.5611,2.5891,2.5678,2.5772,2.6146,2.6225,2.6131,2.6373,2.64,2.64,2.64,2.64,2.64,2.64,2.64,2.6426,2.6505,2.6544,2.6584,2.6821,2.7254,2.7712,2.7986,2.83,2.8691,2.8886,2.8886,2.8886,2.8886,2.8886,2.8886,2.8886,2.8886,2.8886,2.8886,2.8886,2.8886,2.8925,2.9119,2.9664,3.0152,3.1194,3.2495,3.384,3.4707,3.5231,3.5754,3.6201,3.6201,3.6201,3.6201,3.6201,3.6312,3.646,3.6775,2.5884,2.5515,2.4788,2.421,2.3869,2.4086,2.4209,2.4289,2.4703,2.509,2.5371,2.5596,2.573,2.5877,2.5985,2.6052,2.6039,2.5891,2.585,2.5824,2.5651,2.5478,2.5371,2.5331,2.5344,2.5358,2.5358,2.5237,2.5197,2.5438,2.5518,2.5611,2.5945,2.6172,2.6119,2.6079,2.6039,2.5865,2.5931,2.5904,2.5705,2.5785,2.5919,2.6131,2.6145,2.6212,2.6346,2.6306,2.6253,2.6158,2.5971,2.5944,2.5838,2.5411,2.5264,2.5184,2.4983,2.497,2.5119,2.5611,2.5919,2.6078,2.6065,2.5999,2.6306,2.6319,2.6333,2.636,2.6386,2.64,2.64,2.64,2.64,2.64,2.64,2.64,2.6426,2.6465,2.6544,2.69,2.7333,2.7947,2.8378,2.8456,2.8769,2.8886,2.8886,2.8886,2.8886,2.8886,2.8886,2.8886,2.8886,2.8886,2.8886,2.8886,2.8886,2.8925,2.8925,2.908,2.9625,3.023,3.1462,3.3104,3.3936,3.4727,3.5568,3.6201,3.6201,3.6201,3.6201,3.6201,3.6238,3.646,3.6738,2.5665,2.5318,2.4413,2.3879,2.3609,2.3994,2.4302,2.4556,2.5024,2.5398,2.5703,2.5917,2.6051,2.6172,2.6293,2.64,2.6373,2.6252,2.6145,2.6118,2.5971,2.5718,2.5585,2.5504,2.5384,2.5411,2.5358,2.5277,2.5304,2.5545,2.5732,2.5919,2.6079,2.6172,2.6212,2.6172,2.6039,2.5825,2.5745,2.5705,2.5585,2.5571,2.5625,2.5784,2.5825,2.5879,2.6026,2.6066,2.6012,2.5838,2.5705,2.5638,2.5411,2.5184,2.5077,2.5064,2.513,2.5186,2.5598,2.5824,2.6091,2.6293,2.6212,2.6252,2.6346,2.636,2.6373,2.6386,2.64,2.64,2.64,2.64,2.64,2.64,2.64,2.64,2.6386,2.6426,2.6465,2.686,2.7412,2.8065,2.8691,2.8769,2.8886,2.8886,2.8886,2.8886,2.8886,2.8886,2.8886,2.8886,2.8886,2.8886,2.8886,2.8886,2.8886,2.8886,2.8886,2.8886,2.9314,3.0013,3.1194,3.2381,3.3634,3.4764,3.568,3.6201,3.6201,3.6201,3.6201,3.6201,3.6201,3.6386,3.6627,2.477,2.4419,2.3205,2.3017,2.3436,2.3972,2.4502,2.5079,2.5398,2.5692,2.6011,2.6024,2.6158,2.6333,2.64,2.64,2.6386,2.636,2.6306,2.6319,2.6252,2.5932,2.5678,2.5506,2.5464,2.5251,2.5184,2.5358,2.5504,2.5651,2.5932,2.6132,2.5999,2.5984,2.5931,2.5864,2.5718,2.5558,2.5504,2.5438,2.5317,2.5371,2.5398,2.5464,2.5518,2.5558,2.5638,2.5638,2.5585,2.5451,2.5277,2.5317,2.5159,2.4893,2.5079,2.5291,2.5373,2.5665,2.5877,2.5984,2.6158,2.636,2.6373,2.6386,2.6386,2.64,2.64,2.64,2.64,2.64,2.64,2.64,2.64,2.64,2.64,2.64,2.64,2.6426,2.6426,2.6821,2.7358,2.8026,2.8691,2.8886,2.8886,2.8886,2.8886,2.8886,2.8886,2.8886,2.8886,2.8886,2.8886,2.8886,2.8886,2.8886,2.8886,2.8886,2.8886,2.8964,2.9353,2.9897,3.1155,3.2364,3.3672,3.4802,3.5829,3.6201,3.6201,3.6201,3.6201,3.6201,3.6201,3.6201,3.6386,2.5313,2.4927,2.4009,2.345,2.3342,2.3883,2.4547,2.5242,2.5682,2.6024,2.6305,2.6305,2.6239,2.6386,2.64,2.6373,2.6373,2.636,2.6226,2.6226,2.6305,2.5959,2.5758,2.5651,2.5623,2.5438,2.5358,2.5317,2.5464,2.5638,2.5812,2.6011,2.5825,2.5625,2.5529,2.5382,2.5304,2.5251,2.5237,2.5117,2.4959,2.4933,2.505,2.5157,2.5197,2.5277,2.5398,2.5438,2.5384,2.5184,2.513,2.5104,2.4786,2.4693,2.4813,2.5184,2.5518,2.5917,2.6011,2.6185,2.6293,2.636,2.6386,2.64,2.6386,2.6373,2.6373,2.6346,2.6386,2.64,2.64,2.64,2.64,2.64,2.64,2.64,2.64,2.6386,2.6465,2.6939,2.7516,2.8065,2.8691,2.8886,2.8886,2.8886,2.8886,2.8886,2.8886,2.8886,2.8886,2.8886,2.8886,2.8886,2.8886,2.8886,2.8886,2.8886,2.8886,2.8964,2.9236,2.9959,3.1139,3.2631,3.4313,3.5269,3.6015,3.6201,3.6201,3.6201,3.6201,3.6201,3.6201,3.6201,3.6275,2.4697,2.4401,2.3661,2.3254,2.3298,2.3846,2.4474,2.5021,2.5492,2.5909,2.6186,2.6066,2.6052,2.6012,2.6012,2.6012,2.6012,2.5985,2.5959,2.6118,2.6146,2.5865,2.5732,2.5638,2.5438,2.5331,2.5133,2.5026,2.5213,2.5504,2.5705,2.6131,2.5758,2.5531,2.5424,2.5355,2.5117,2.505,2.497,2.481,2.4666,2.4599,2.4733,2.4863,2.4917,2.5037,2.5119,2.5146,2.5039,2.493,2.4903,2.4836,2.4693,2.4786,2.4973,2.5384,2.5798,2.6105,2.6225,2.6279,2.636,2.64,2.6386,2.6306,2.6306,2.6332,2.6253,2.6226,2.6319,2.64,2.64,2.64,2.64,2.64,2.64,2.64,2.64,2.64,2.6742,2.7215,2.7726,2.8236,2.8588,2.8769,2.8886,2.8886,2.8886,2.8886,2.8886,2.8886,2.8886,2.8886,2.8886,2.8886,2.8886,2.8886,2.8886,2.8886,2.8886,2.9003,2.9197,3.05,3.2173,3.3693,3.5214,3.5829,3.6201,3.6201,3.6201,3.6201,3.6201,3.6201,3.6201,3.6201,3.6312,2.3438,2.3414,2.2644,2.2747,2.3196,2.38,2.4232,2.4485,2.4905,2.5465,2.5802,2.5588,2.5508,2.5613,2.5651,2.5638,2.5692,2.5718,2.5758,2.5957,2.6038,2.581,2.5451,2.5438,2.5211,2.4799,2.4679,2.4853,2.4919,2.5264,2.5772,2.6293,2.5798,2.5558,2.5663,2.5396,2.5197,2.517,2.501,2.4799,2.4653,2.4599,2.4599,2.4613,2.4626,2.4653,2.4639,2.4626,2.4613,2.4626,2.4653,2.4679,2.4906,2.5211,2.5451,2.5665,2.6052,2.6239,2.6319,2.6373,2.6373,2.64,2.6386,2.6239,2.6238,2.6319,2.6319,2.6212,2.6226,2.636,2.64,2.64,2.64,2.64,2.64,2.64,2.64,2.6426,2.6663,2.7097,2.7412,2.7922,2.8261,2.8417,2.851,2.8691,2.8783,2.8783,2.8886,2.8886,2.8886,2.8886,2.8886,2.8886,2.8886,2.8886,2.8886,2.8886,2.8886,2.8925,2.9042,3.0947,3.3352,3.4652,3.5791,3.5978,3.6201,3.6201,3.6201,3.6201,3.6201,3.6201,3.6201,3.6201,3.6349,2.3401,2.3378,2.3036,2.3094,2.333,2.3714,2.4004,2.4145,2.4028,2.4571,2.527,2.5177,2.5172,2.5361,2.5361,2.54,2.5504,2.5571,2.561,2.5677,2.5784,2.5623,2.5077,2.517,2.497,2.4719,2.4653,2.4839,2.5199,2.5504,2.5678,2.6038,2.5705,2.5651,2.5732,2.5451,2.5411,2.5398,2.5317,2.4999,2.4719,2.4626,2.4599,2.4613,2.4639,2.4666,2.4666,2.4639,2.4759,2.4917,2.4957,2.509,2.5266,2.5651,2.5812,2.5957,2.6212,2.6333,2.64,2.64,2.64,2.64,2.636,2.6199,2.6198,2.6346,2.6346,2.6212,2.6198,2.6306,2.64,2.64,2.6373,2.6373,2.64,2.64,2.64,2.6505,2.6663,2.69,2.7136,2.7451,2.7869,2.8065,2.8157,2.8275,2.8392,2.851,2.8822,2.8886,2.8886,2.8886,2.8886,2.8886,2.8886,2.8886,2.8886,2.8886,2.8886,2.8886,2.9003,3.1062,3.3314,3.5027,3.6163,3.6201,3.6201,3.6201,3.6201,3.6201,3.6201,3.6201,3.6201,3.6201,3.6405,2.293,2.2918,2.3056,2.32,2.3439,2.3692,2.3802,2.3732,2.3502,2.3751,2.4316,2.4315,2.4489,2.4791,2.4853,2.515,2.5255,2.5478,2.5623,2.565,2.5569,2.5438,2.5224,2.5024,2.4863,2.4716,2.4836,2.5104,2.5598,2.5745,2.5904,2.6078,2.5865,2.5758,2.5825,2.5798,2.5705,2.5705,2.5718,2.5451,2.5013,2.4973,2.4986,2.4986,2.4973,2.4973,2.4986,2.4986,2.5079,2.5224,2.5264,2.5317,2.5504,2.5758,2.5957,2.6051,2.6225,2.64,2.64,2.64,2.64,2.64,2.6386,2.6253,2.6118,2.6238,2.6279,2.6172,2.6279,2.6386,2.6386,2.64,2.6292,2.6238,2.6319,2.64,2.64,2.6426,2.6663,2.6939,2.7136,2.7294,2.7687,2.8118,2.8157,2.8314,2.8353,2.8549,2.8769,2.8886,2.8886,2.8886,2.8886,2.8886,2.8886,2.8886,2.8886,2.8886,2.8886,2.9688,3.0346,3.16,3.3201,3.4952,3.6052,3.6201,3.6201,3.6201,3.6201,3.6201,3.6201,3.6201,3.6201,3.6201,3.6405,2.2382,2.2465,2.2889,2.3225,2.3463,2.3655,2.3595,2.3369,2.3143,2.303,2.3152,2.3254,2.3538,2.3822,2.411,2.4541,2.4966,2.5386,2.565,2.5623,2.5571,2.5411,2.5264,2.5117,2.4903,2.485,2.4957,2.5422,2.5917,2.5957,2.6051,2.6292,2.6239,2.6132,2.6239,2.6212,2.6051,2.6051,2.6011,2.5865,2.5705,2.5545,2.5464,2.5464,2.5518,2.5518,2.5504,2.5504,2.5504,2.5611,2.5625,2.5705,2.5758,2.5998,2.6051,2.6172,2.6292,2.6373,2.64,2.64,2.64,2.64,2.64,2.6306,2.6185,2.6158,2.6212,2.6265,2.6372,2.6412,2.6386,2.636,2.6252,2.6172,2.6319,2.6386,2.6386,2.6386,2.6637,2.6913,2.6978,2.7097,2.7412,2.7844,2.8118,2.8236,2.851,2.8744,2.8886,2.8886,2.8886,2.8886,2.8886,2.8886,2.8886,2.8886,2.8886,2.8886,2.908,3.0384,3.1523,3.2135,3.3239,3.4952,3.5829,3.6089,3.6201,3.6201,3.6201,3.6201,3.6201,3.6201,3.6201,3.6238,3.6367,2.255,2.2975,2.3084,2.3321,2.3655,2.3571,2.3369,2.3143,2.2877,2.2686,2.2579,2.2581,2.2856,2.3575,2.4193,2.4601,2.4859,2.5352,2.5371,2.5251,2.5545,2.5411,2.5237,2.5144,2.493,2.4997,2.5222,2.5489,2.5998,2.6051,2.6131,2.6346,2.6373,2.6319,2.6333,2.6319,2.6305,2.6292,2.6292,2.6186,2.6066,2.5852,2.5545,2.5518,2.5518,2.5518,2.5518,2.5518,2.5665,2.5891,2.6052,2.6119,2.6159,2.6186,2.6226,2.6239,2.6399,2.6373,2.64,2.64,2.64,2.64,2.64,2.6386,2.6279,2.6293,2.6319,2.6319,2.6386,2.6386,2.64,2.64,2.6293,2.6279,2.636,2.6373,2.6412,2.6386,2.6518,2.6597,2.6584,2.6663,2.6742,2.7175,2.7569,2.7844,2.8314,2.8534,2.8886,2.8886,2.8886,2.8886,2.8886,2.8886,2.8886,2.8886,2.8886,2.8886,2.9119,3.0036,3.0986,3.1982,3.3276,3.4764,3.5717,3.6163,3.6201,3.6201,3.6201,3.6201,3.6201,3.6201,3.6201,3.6238,3.6367]},{"header":{"parameterUnit":"m.s-1","parameterCategory":1,"la1":31.0,"la2":29.5877,"lo1":-88.7671,"lo2":-86.6584,"dx":0.0162,"dy":0.0185,"nx":115,"ny":88,"refTime":"2022-11-08T06:00:00:Z","depth":0,"parameterNumber":3,"parameterNumberName":"V-component_of_WINDS"},"data":[0.0,0.0,0.0,0.0,0.0,0.0,0.0,0.0,0.0,0.0,0.0,0.0,0.0,0.0,0.0,0.0,0.0,0.0,0.0,0.0,0.0,0.0,0.0,0.0,0.0,0.0,0.0,0.0,0.0,0.0,0.0,0.0,0.0,0.0,0.0,0.0,0.0,0.0,0.0,0.0,0.0,0.0,0.0,0.0,0.0,0.0,0.0,0.0,0.0,0.0,0.0,0.0,0.0,0.0,0.0,0.0,0.0,0.0,0.0,0.0,0.0,0.0,0.0,0.0,0.0,0.0,0.0,0.0,0.0,0.0,0.0,0.0,0.0,0.0,0.0,0.0,0.0,0.0,0.0,0.0,0.0,0.0,0.0,0.0,0.0,0.0,0.0,0.0,0.0,0.0,0.0,0.0,0.0,0.0,0.0,0.0,0.0,0.0,0.0,0.0,0.0,0.0,0.0,0.0,0.0,0.0,0.0,0.0,0.0,0.0,0.0,0.0,0.0,0.0,0.0,0.0,0.0,0.0,0.0,0.0,0.0,0.0,0.0,0.0,0.0,0.0,0.0,0.0,0.0,0.0,0.0,0.0,0.0,0.0,0.0,0.0,0.0,0.0,0.0,0.0,0.0,0.0,0.0,0.0,0.0,0.0,0.0,0.0,0.0,0.0,0.0,0.0,0.0,0.0,0.0,0.0,0.0,0.0,0.0,0.0,0.0,0.0,0.0,0.0,0.0,0.0,0.0,0.0,0.0,0.0,0.0,0.0,0.0,0.0,0.0,0.0,0.0,0.0,0.0,0.0,0.0,0.0,0.0,0.0,0.0,0.0,0.0,0.0,0.0,0.0,0.0,0.0,0.0,0.0,0.0,0.0,0.0,0.0,0.0,0.0,0.0,0.0,0.0,0.0,0.0,0.0,0.0,0.0,0.0,0.0,0.0,0.0,0.0,0.0,0.0,0.0,0.0,0.0,0.0,0.0,0.0,0.0,0.0,0.0,0.0,0.0,0.0,0.0,0.0,0.0,0.0,0.0,0.0,0.0,0.0,0.0,0.0,0.0,0.0,0.0,0.0,0.0,0.0,0.0,0.0,0.0,0.0,0.0,0.0,0.0,0.0,0.0,0.0,0.0,0.0,0.0,0.0,0.0,0.0,0.0,0.0,0.0,0.0,0.0,0.0,0.0,0.0,0.0,0.0,0.0,0.0,0.0,0.0,0.0,0.0,0.0,0.0,0.0,0.0,0.0,0.0,0.0,0.0,0.0,0.0,0.0,0.0,0.0,0.0,0.0,0.0,0.0,0.0,0.0,0.0,0.0,0.0,0.0,0.0,0.0,0.0,0.0,0.0,0.0,0.0,0.0,0.0,0.0,0.0,0.0,0.0,0.0,0.0,0.0,0.0,0.0,0.0,0.0,0.0,0.0,0.0,0.0,0.0,0.0,0.0,0.0,0.0,0.0,0.0,0.0,0.0,0.0,0.0,0.0,0.0,0.0,0.0,0.0,0.0,0.0,0.0,0.0,0.0,0.0,0.0,0.0,0.0,0.0,0.0,0.0,0.0,0.0,0.0,0.0,0.0,0.0,0.0,0.0,0.0,0.0,0.0,0.0,0.0,0.0,0.0,0.0,0.0,0.0,0.0,0.0,0.0,0.0,0.0,0.0,0.0,0.0,0.0,0.0,0.0,0.0,0.0,0.0,0.0,0.0,0.0,0.0,0.0,0.0,0.0,0.0,0.0,0.0,0.0,0.0,0.0,0.0,0.0,0.0,0.0,0.0,0.0,0.0,0.0,0.0,0.0,0.0,0.0,0.0,0.0,0.0,0.0,0.0,0.0,0.0,0.0,0.0,0.0,0.0,0.0,0.0,0.0,0.0,0.0,0.0,0.0,0.0,0.0,0.0,0.0,0.0,0.0,0.0,0.0,0.0,0.0,0.0,0.0,0.0,0.0,0.0,0.0,0.0,0.0,0.0,0.0,0.0,0.0,0.0,0.0,0.0,0.0,0.0,0.0,0.0,0.0,0.0,0.0,0.0,0.0,0.0,0.0,0.0,0.0,0.0,0.0,0.0,0.0,0.0,0.0,0.0,0.0,0.0,0.0,0.0,0.0,0.0,0.0,0.0,0.0,0.0,0.0,0.0,0.0,0.0,0.0,0.0,0.0,0.0,0.0,0.0,0.0,0.0,0.0,0.0,0.0,0.0,0.0,0.0,0.0,0.0,0.0,0.0,0.0,0.0,0.0,0.0,0.0,0.0,0.0,0.0,0.0,0.0,0.0,0.0,0.0,0.0,0.0,0.0,0.0,0.0,0.0,0.0,0.0,0.0,0.0,0.0,0.0,0.0,0.0,0.0,0.0,0.0,0.0,0.0,0.0,0.0,0.0,0.0,0.0,0.0,0.0,0.0,0.0,0.0,0.0,0.0,0.0,0.0,0.0,0.0,0.0,0.0,0.0,0.0,0.0,0.0,0.0,0.0,0.0,0.0,0.0,0.0,0.0,0.0,0.0,0.0,0.0,0.0,0.0,0.0,0.0,0.0,0.0,0.0,0.0,0.0,0.0,0.0,0.0,0.0,0.0,0.0,0.0,0.0,0.0,0.0,0.0,0.0,0.0,0.0,0.0,0.0,0.0,0.0,0.0,0.0,0.0,0.0,0.0,0.0,0.0,0.0,0.0,0.0,0.0,0.0,0.0,0.0,0.0,0.0,0.0,0.0,0.0,0.0,0.0,0.0,0.0,0.0,0.0,0.0,0.0,0.0,0.0,0.0,0.0,0.0,0.0,0.0,0.0,0.0,0.0,0.0,0.0,0.0,0.0,0.0,0.0,0.0,0.0,0.0,0.0,0.0,0.0,0.0,0.0,0.0,0.0,0.0,0.0,0.0,0.0,0.0,0.0,0.0,0.0,0.0,0.0,0.0,0.0,0.0,0.0,0.0,0.0,0.0,0.0,0.0,0.0,0.0,0.0,0.0,0.0,0.0,0.0,0.0,0.0,0.0,0.0,0.0,0.0,0.0,0.0,0.0,0.0,0.0,0.0,0.0,0.0,0.0,0.0,0.0,0.0,0.0,0.0,0.0,0.0,0.0,0.0,0.0,0.0,0.0,0.0,0.0,0.0,0.0,0.0,0.0,0.0,0.0,0.0,0.0,0.0,0.0,0.0,0.0,0.0,0.0,0.0,0.0,0.0,0.0,0.0,0.0,0.0,0.0,0.0,0.0,0.0,0.0,0.0,0.0,0.0,0.0,0.0,0.0,0.0,0.0,0.0,0.0,0.0,0.0,0.0,0.0,0.0,0.0,0.0,0.0,0.0,0.0,0.0,0.0,0.0,0.0,0.0,0.0,0.0,0.0,0.0,0.0,0.0,0.0,0.0,0.0,0.0,0.0,0.0,0.0,0.0,0.0,0.0,0.0,0.0,0.0,0.0,0.0,0.0,0.0,0.0,0.0,0.0,0.0,0.0,0.0,0.0,0.0,0.0,0.0,0.0,0.0,0.0,0.0,0.0,0.0,0.0,0.0,0.0,0.0,0.0,0.0,0.0,0.0,0.0,0.0,0.0,0.0,0.0,0.0,0.0,0.0,0.0,0.0,0.0,0.0,0.0,0.0,0.0,0.0,0.0,0.0,0.0,0.0,0.0,0.0,0.0,0.0,0.0,0.0,0.0,0.0,0.0,0.0,0.0,0.0,0.0,0.0,0.0,0.0,0.0,0.0,0.0,0.0,0.0,0.0,0.0,0.0,0.0,0.0,0.0,0.0,0.0,0.0,0.0,0.0,0.0,0.0,0.0,0.0,0.0,0.0,0.0,0.0,0.0,0.0,0.0,0.0,0.0,0.0,0.0,0.0,0.0,0.0,0.0,0.0,0.0,0.0,0.0,0.0,0.0,0.0,0.0,0.0,0.0,0.0,0.0,0.0,0.0,0.0,0.0,0.0,0.0,0.0,0.0,0.0,0.0,0.0,0.0,0.0,0.0,0.0,0.0,0.0,0.0,0.0,0.0,0.0,0.0,0.0,0.0,0.0,0.0,0.0,0.0,0.0,0.0,0.0,0.0,0.0,0.0,0.0,0.0,0.0,0.0,0.0,0.0,0.0,0.0,0.0,0.0,0.0,0.0,0.0,0.0,0.0,0.0,0.0,0.0,0.0,0.0,0.0,0.0,0.0,0.0,0.0,0.0,0.0,0.0,0.0,0.0,0.0,0.0,0.0,0.0,0.0,0.0,0.0,0.0,0.0,0.0,0.0,0.0,0.0,0.0,0.0,1.3508,0.0,0.0,0.0,1.4422,0.0,0.0,0.0,0.0,0.0,0.0,0.0,0.0,0.0,0.0,0.0,0.0,0.0,0.0,0.0,0.0,0.0,0.0,0.0,0.0,0.0,0.0,0.0,0.0,0.0,0.0,0.0,0.0,0.0,0.0,0.0,0.0,0.0,0.0,0.0,0.0,0.0,0.0,0.0,0.0,0.0,0.0,0.0,0.0,0.0,0.0,0.0,0.0,0.0,0.0,0.0,0.0,0.0,0.0,0.0,0.0,0.0,0.0,0.0,0.0,0.0,0.0,0.0,0.0,0.0,0.0,0.0,0.0,0.0,0.0,0.0,0.0,0.0,0.0,0.0,0.0,0.0,0.0,0.0,0.0,0.0,0.0,0.0,0.0,0.0,0.0,0.0,0.0,0.0,0.0,0.0,0.0,0.0,0.0,0.0,0.0,0.0,0.0,0.0,0.0,0.0,0.0,0.0,0.0,0.0,0.0,0.0,0.0,0.0,0.0,1.3202,1.2905,1.4045,1.4686,1.4648,0.0,0.0,0.0,0.0,0.0,0.0,0.0,0.0,0.0,0.0,0.0,0.0,0.0,0.0,0.0,0.0,0.0,0.0,0.0,0.0,0.0,0.0,0.0,0.0,0.0,0.0,0.0,0.0,0.0,0.0,0.0,0.0,0.0,0.0,0.0,0.0,0.0,0.0,0.0,0.0,0.0,0.0,0.0,0.0,0.0,0.0,0.0,0.0,0.0,0.0,0.0,0.0,0.0,0.0,0.0,0.0,0.0,0.0,0.0,0.0,0.0,0.0,0.0,0.0,0.0,0.0,0.0,0.0,0.0,0.0,0.0,0.0,0.0,0.0,0.0,0.0,0.0,0.0,0.0,0.0,0.0,0.0,0.0,0.0,0.0,0.0,0.0,0.0,0.0,0.0,0.0,0.0,0.0,0.0,0.0,0.0,0.0,0.0,0.0,0.0,0.0,0.0,0.0,0.0,0.0,0.0,0.0,0.0,0.0,0.0,0.0,0.0,1.4604,1.5598,1.5712,0.0,0.0,0.0,0.0,0.0,0.0,0.0,0.0,0.0,0.0,0.0,0.0,0.0,0.0,0.0,0.0,0.0,0.0,0.0,0.0,0.0,0.0,0.0,0.0,0.0,0.0,0.0,0.0,0.0,0.0,0.0,0.0,0.0,0.0,0.0,0.0,0.0,0.0,0.0,0.0,0.0,0.0,0.0,0.0,0.0,0.0,0.0,0.0,0.0,0.0,0.0,0.0,0.0,0.0,0.0,0.0,0.0,0.0,0.0,0.0,0.0,0.0,0.0,0.0,0.0,0.0,0.0,0.0,0.0,0.0,0.0,0.0,0.0,0.0,0.0,0.0,0.0,0.0,0.0,0.0,0.0,0.0,0.0,0.0,0.0,0.0,0.0,0.0,0.0,0.0,0.0,0.0,0.0,0.0,0.0,0.0,0.0,0.0,0.0,0.0,0.0,0.0,0.0,0.0,0.0,0.0,0.0,0.0,0.0,0.0,1.3158,1.3537,1.5209,0.0,1.7823,0.0,0.0,0.0,0.0,0.0,0.0,0.0,0.0,0.0,0.0,0.0,0.0,0.0,0.0,0.0,0.0,0.0,0.0,0.0,0.0,0.0,0.0,0.0,0.0,0.0,0.0,0.0,0.0,0.0,0.0,0.0,0.0,0.0,0.0,0.0,0.0,0.0,0.0,0.0,0.0,0.0,0.0,0.0,0.0,0.0,0.0,0.0,0.0,0.0,0.0,0.0,0.0,0.0,0.0,0.0,0.0,0.0,0.0,0.0,0.0,0.0,0.0,0.0,0.0,0.0,0.0,0.0,0.0,0.0,0.0,0.0,0.0,0.0,0.0,0.0,0.0,0.0,0.0,0.0,0.0,0.0,0.0,0.0,0.0,0.0,0.0,0.0,0.0,0.0,0.0,0.0,0.0,0.0,0.0,0.0,0.0,0.0,0.0,0.0,0.0,0.0,0.0,0.0,0.0,0.0,0.0,0.0,0.0,0.0,0.0,1.37,1.4013,1.59,1.7544,0.0,0.0,0.0,0.0,0.0,0.0,0.0,0.0,0.0,0.0,0.0,0.0,0.0,0.0,0.0,0.0,0.0,0.0,0.0,0.0,0.0,0.0,0.0,0.0,0.0,0.0,0.0,0.0,0.0,0.0,0.0,0.0,0.0,0.0,0.0,0.0,0.0,0.0,0.0,0.0,0.0,0.0,0.0,0.0,0.0,0.0,0.0,0.0,0.0,0.0,0.0,0.0,0.0,0.0,0.0,0.0,0.0,0.0,0.0,0.0,0.0,0.0,0.0,0.0,0.0,0.0,0.0,0.0,0.0,0.0,0.0,0.0,0.0,0.0,0.0,0.0,0.0,0.0,0.0,0.0,0.0,0.0,0.0,0.0,0.0,0.0,0.0,0.0,0.0,0.0,0.0,0.0,0.0,0.0,0.0,0.0,0.0,0.0,0.0,0.0,0.0,0.0,0.0,0.0,0.0,0.0,0.0,0.0,0.0,0.0,1.3439,1.4409,1.5266,1.6959,1.8151,1.8755,0.0,0.0,0.0,0.0,0.0,0.0,0.0,0.0,0.0,0.0,0.0,0.0,0.0,0.0,0.0,0.0,0.0,0.0,0.0,0.0,0.0,0.0,0.0,0.0,0.0,0.0,0.0,0.0,0.0,0.0,0.0,0.0,0.0,0.0,0.0,0.0,0.0,0.0,0.0,0.0,0.0,0.0,0.0,0.0,0.0,0.0,0.0,0.0,0.0,0.0,0.0,0.0,0.0,0.0,0.0,0.0,0.0,0.0,0.0,0.0,0.0,0.0,0.0,0.0,0.0,0.0,0.0,0.0,0.0,0.0,0.0,0.0,0.0,0.0,0.0,0.0,0.0,0.0,0.0,0.0,0.0,0.0,0.0,0.0,0.0,0.0,0.0,0.0,0.0,0.0,0.0,0.0,0.0,0.0,0.0,0.0,0.0,0.0,0.0,0.0,0.0,0.0,0.0,0.0,0.0,0.0,0.0,0.0,1.4254,1.4282,1.537,1.7543,1.8592,1.8352,0.0,0.0,0.0,0.0,0.0,0.0,0.0,0.0,0.0,0.0,0.0,0.0,0.0,0.0,0.0,0.0,0.0,0.0,0.0,0.0,0.0,0.0,0.0,0.0,0.0,0.0,0.0,0.0,0.0,0.0,0.0,0.0,0.0,0.0,0.0,0.0,0.0,0.0,0.0,0.0,0.0,0.0,0.0,0.0,0.0,0.0,0.0,0.0,0.0,0.0,0.0,0.0,0.0,0.0,0.0,0.0,0.0,0.0,0.0,0.0,0.0,0.0,0.0,0.0,0.0,0.0,0.0,0.0,0.0,0.0,0.0,0.0,0.0,0.0,0.0,0.0,0.0,0.0,0.0,0.0,0.0,0.0,0.0,0.0,0.0,0.0,0.0,0.0,0.0,0.0,0.0,0.0,0.0,0.0,0.0,0.0,0.0,0.0,0.0,0.0,0.0,0.0,0.0,0.0,0.0,0.0,0.0,0.0,0.0,1.1576,1.3027,1.5506,1.8928,1.7926,1.76,0.0,0.0,0.0,0.0,0.0,0.0,0.0,0.0,0.0,0.0,0.0,0.0,0.0,0.0,0.0,0.0,0.0,0.0,0.0,0.0,0.0,0.0,0.0,0.0,0.0,0.0,0.0,0.0,0.0,0.0,0.0,0.0,0.0,0.0,0.0,0.0,0.0,0.0,0.0,0.0,0.0,0.0,0.0,0.0,0.0,0.0,0.0,0.0,0.0,0.0,0.0,0.0,0.0,0.0,0.0,0.0,0.0,0.0,0.0,0.0,0.0,0.0,0.0,0.0,0.0,0.0,0.0,0.0,0.0,0.0,0.0,0.0,0.0,0.0,0.0,0.0,0.0,0.0,0.0,0.0,0.0,0.0,0.0,0.0,0.0,0.0,0.0,0.0,0.0,0.0,0.0,0.0,0.0,0.0,0.0,0.0,0.0,0.0,0.0,0.0,0.0,0.0,0.0,0.0,0.0,0.0,0.0,0.0,0.0,1.1833,1.3998,1.6414,1.8856,1.7609,1.6988,0.0,0.0,0.0,0.0,0.0,0.0,0.0,0.0,0.0,0.0,0.0,0.0,0.0,0.0,0.0,0.0,0.0,0.0,0.0,0.0,0.0,0.0,0.0,0.0,0.0,0.0,0.0,0.0,0.0,0.0,0.0,0.0,0.0,0.0,0.0,0.0,0.0,0.0,0.0,0.0,0.0,0.0,0.0,0.0,0.0,0.0,0.0,0.0,0.0,0.0,0.0,0.0,0.0,0.0,0.0,0.0,0.0,0.0,0.0,0.0,0.0,0.0,0.0,0.0,0.0,0.0,0.0,0.0,0.0,0.0,0.0,0.0,0.0,0.0,0.0,0.0,0.0,0.0,0.0,0.0,0.0,0.0,0.0,0.0,0.0,0.0,0.0,0.0,0.0,0.0,0.0,0.0,0.0,0.0,0.0,0.0,0.0,0.0,0.0,0.0,0.0,0.0,0.0,0.0,0.0,0.0,0.0,0.0,1.1617,1.5649,1.7511,1.8079,1.7399,1.7936,1.6686,0.0,0.0,0.0,0.0,0.0,0.0,0.0,0.0,0.0,0.0,0.0,0.0,0.0,0.0,0.0,0.0,0.0,0.0,0.0,0.0,0.0,0.0,0.0,0.0,0.0,0.0,0.0,0.0,0.0,0.0,0.0,0.0,0.0,0.0,0.0,0.0,0.0,0.0,0.0,0.0,0.0,0.0,0.0,0.0,0.0,0.0,0.0,0.0,0.0,0.0,0.0,0.0,0.0,0.0,0.0,0.0,0.0,0.0,0.0,0.0,0.0,0.0,0.0,0.0,0.0,0.0,0.0,0.0,0.0,0.0,0.0,0.0,0.0,0.0,0.0,0.0,0.0,0.0,0.0,0.0,0.0,0.0,0.0,0.0,0.0,0.0,0.0,0.0,0.0,0.0,0.0,0.0,0.0,0.0,0.0,0.0,0.0,0.0,0.0,0.0,0.0,0.0,0.0,0.0,0.0,0.0,0.0,0.0,0.0,1.447,1.657,1.8188,1.9127,1.7821,1.7139,0.0,0.0,0.0,0.0,0.0,0.0,0.0,0.0,0.0,0.0,0.0,0.0,0.0,0.0,0.0,0.0,0.0,0.0,0.0,0.0,0.0,0.0,0.0,0.0,0.0,0.0,0.0,0.0,0.0,0.0,0.0,0.0,0.0,0.0,0.0,0.0,0.0,0.0,0.0,0.0,0.0,0.0,0.0,0.0,0.0,0.0,0.0,0.0,0.0,0.0,0.0,0.0,0.0,0.0,0.0,0.0,0.0,0.0,0.0,0.0,0.0,0.0,0.0,0.0,0.0,0.0,0.0,0.0,0.0,0.0,0.0,0.0,0.0,0.0,0.0,0.0,0.0,0.0,0.0,0.0,0.0,0.0,0.0,0.0,0.0,0.0,0.0,0.0,0.0,0.0,0.0,0.0,0.0,0.0,0.0,0.0,0.0,0.0,0.0,0.0,0.0,0.0,0.0,0.0,0.0,0.0,0.0,0.0,0.0,1.7424,1.9196,2.0587,2.1476,1.9578,1.8676,1.8909,0.0,0.0,0.0,0.0,0.0,0.0,0.0,0.0,0.0,0.0,0.0,0.0,0.0,0.0,0.0,0.0,0.0,0.0,0.0,0.0,0.0,0.0,0.0,0.0,0.0,0.0,0.0,0.0,0.0,0.0,0.0,0.0,0.0,0.0,0.0,0.0,0.0,0.0,0.0,0.0,0.0,0.0,0.0,0.0,0.0,0.0,0.0,0.0,0.0,0.0,0.0,0.0,0.0,0.0,0.0,0.0,0.0,0.0,0.0,0.0,0.0,0.0,0.0,0.0,0.0,0.0,0.0,0.0,0.0,0.0,0.0,0.0,0.0,0.0,0.0,0.0,0.0,0.0,0.0,0.0,0.0,0.0,0.0,0.0,0.0,0.0,0.0,0.0,0.0,0.0,0.0,0.0,0.0,0.0,0.0,0.0,0.0,0.0,0.0,0.0,0.0,0.0,0.0,0.0,0.0,0.0,0.0,0.0,2.3394,2.4657,2.494,2.41,2.2762,2.1105,0.0,0.0,0.0,0.0,0.0,0.0,0.0,0.0,0.0,0.0,0.0,0.0,0.0,0.0,0.0,0.0,0.0,0.0,0.0,0.0,0.0,0.0,0.0,0.0,0.0,0.0,0.0,0.0,0.0,0.0,0.0,0.0,0.0,0.0,0.0,0.0,0.0,0.0,0.0,0.0,0.0,0.0,0.0,0.0,0.0,0.0,0.0,0.0,0.0,0.0,0.0,0.0,0.0,0.0,0.0,0.0,0.0,0.0,0.0,0.0,0.0,0.0,0.0,0.0,0.0,0.0,0.0,0.0,0.0,0.0,0.0,0.0,0.0,0.0,0.0,0.0,0.0,0.0,0.0,0.0,0.0,0.0,0.0,0.0,0.0,0.0,0.0,0.0,0.0,0.0,0.0,0.0,0.0,0.0,0.0,0.0,0.0,0.0,0.0,0.0,0.0,0.0,0.0,0.0,0.0,0.0,0.0,0.0,0.0,2.5937,2.8379,2.8693,2.668,2.4475,2.3111,0.0,0.0,0.0,0.0,0.0,0.0,0.0,0.0,0.0,0.0,0.0,0.0,0.0,0.0,0.0,0.0,0.0,0.0,0.0,0.0,0.0,0.0,0.0,0.0,0.0,0.0,0.0,0.0,0.0,0.0,0.0,0.0,0.0,0.0,0.0,0.0,0.0,0.0,0.0,0.0,0.0,0.0,0.0,0.0,0.0,0.0,0.0,0.0,0.0,0.0,0.0,0.0,0.0,0.0,0.0,0.0,0.0,0.0,0.0,0.0,0.0,0.0,0.0,0.0,0.0,0.0,0.0,0.0,0.0,0.0,0.0,0.0,0.0,0.0,0.0,0.0,0.0,0.0,0.0,0.0,0.0,0.0,0.0,0.0,0.0,0.0,0.0,0.0,0.0,0.0,0.0,0.0,0.0,0.0,0.0,0.0,0.0,0.0,0.0,0.0,0.0,0.0,0.0,0.0,0.0,0.0,0.0,0.0,2.4845,2.8115,3.0359,3.0825,2.9502,2.7537,2.5958,0.0,0.0,0.0,0.0,0.0,0.0,0.0,0.0,0.0,0.0,0.0,0.0,0.0,0.0,0.0,0.0,0.0,0.0,0.0,0.0,0.0,0.0,0.0,0.0,0.0,0.0,0.0,0.0,0.0,0.0,0.0,0.0,0.0,0.0,0.0,0.0,0.0,0.0,0.0,0.0,0.0,0.0,0.0,0.0,0.0,0.0,0.0,0.0,0.0,0.0,0.0,0.0,0.0,0.0,0.0,0.0,0.0,0.0,0.0,0.0,0.0,0.0,0.0,0.0,0.0,0.0,0.0,0.0,0.0,0.0,0.0,0.0,0.0,0.0,0.0,0.0,0.0,0.0,0.0,0.0,0.0,0.0,0.0,0.0,0.0,0.0,0.0,0.0,0.0,0.0,0.0,0.0,0.0,0.0,0.0,0.0,0.0,0.0,0.0,0.0,0.0,0.0,0.0,0.0,0.0,0.0,0.0,0.0,2.7359,3.0032,3.1384,3.2093,3.2108,3.0948,2.899,0.0,0.0,0.0,0.0,0.0,0.0,0.0,0.0,0.0,0.0,0.0,0.0,0.0,0.0,0.0,0.0,0.0,0.0,0.0,0.0,0.0,0.0,0.0,0.0,0.0,0.0,0.0,0.0,0.0,0.0,0.0,0.0,0.0,0.0,0.0,0.0,0.0,0.0,0.0,0.0,0.0,0.0,0.0,0.0,0.0,0.0,0.0,0.0,0.0,0.0,0.0,0.0,0.0,0.0,0.0,0.0,0.0,0.0,0.0,0.0,0.0,0.0,0.0,0.0,0.0,0.0,0.0,0.0,0.0,0.0,0.0,0.0,0.0,0.0,0.0,0.0,0.0,0.0,0.0,0.0,0.0,0.0,0.0,0.0,0.0,0.0,0.0,0.0,0.0,0.0,0.0,0.0,0.0,0.0,0.0,0.0,0.0,0.0,0.0,0.0,0.0,0.0,0.0,0.0,0.0,0.0,0.0,0.0,2.8725,3.1755,3.3151,3.358,3.302,3.1732,3.0249,0.0,0.0,0.0,0.0,0.0,0.0,0.0,0.0,0.0,0.0,0.0,0.0,0.0,0.0,0.0,0.0,0.0,0.0,0.0,0.0,0.0,0.0,0.0,0.0,0.0,0.0,0.0,0.0,0.0,0.0,0.0,0.0,0.0,0.0,0.0,0.0,0.0,0.0,0.0,0.0,0.0,0.0,0.0,0.0,0.0,0.0,0.0,0.0,1.7231,0.0,0.0,0.0,0.0,0.0,0.0,0.0,0.0,0.0,0.0,0.0,0.0,0.0,0.0,0.0,0.0,0.0,0.0,0.0,0.0,0.0,0.0,0.0,0.0,0.0,0.0,0.0,0.0,0.0,0.0,0.0,0.0,0.0,0.0,0.0,0.0,0.0,0.0,0.0,0.0,0.0,0.0,0.0,0.0,0.0,0.0,0.0,0.0,0.0,0.0,0.0,0.0,0.0,0.0,0.0,0.0,0.0,0.0,0.0,3.0457,3.3171,3.4689,3.5105,3.4363,3.4128,3.2504,0.0,0.0,0.0,0.0,0.0,0.0,0.0,0.0,0.0,0.0,0.0,0.0,0.0,0.0,0.0,0.0,0.0,0.0,0.0,0.0,0.0,0.0,0.0,0.0,0.0,0.0,0.0,0.0,0.0,0.0,0.0,0.0,0.0,0.0,0.0,0.0,0.0,0.0,0.0,0.0,0.0,0.0,0.0,0.0,0.0,0.0,0.0,0.0,0.0,0.0,0.0,0.0,0.0,0.0,0.0,0.0,0.0,0.0,0.0,0.0,0.0,0.0,0.0,0.0,0.0,0.0,0.0,0.0,0.0,0.0,0.0,0.0,0.0,0.0,0.0,0.0,0.0,0.0,0.0,0.0,0.0,0.0,0.0,0.0,0.0,0.0,0.0,0.0,0.0,0.0,0.0,0.0,0.0,0.0,0.0,0.0,0.0,0.0,0.0,0.0,0.0,0.0,0.0,0.0,0.0,0.0,0.0,2.9297,3.2162,3.4678,3.6103,3.6509,3.5925,3.6639,3.4772,2.9942,0.0,0.0,0.0,0.0,0.0,0.0,0.0,0.0,0.0,0.0,0.0,0.0,0.0,0.0,0.0,0.0,0.0,0.0,0.0,0.0,0.0,0.0,0.0,0.0,0.0,0.0,0.0,0.0,0.0,0.0,0.0,0.0,0.0,0.0,0.0,0.0,0.0,0.0,1.4603,1.8959,0.0,0.0,0.0,0.0,0.0,0.0,0.0,0.0,1.9362,0.0,0.0,0.0,0.0,0.0,0.0,0.0,0.0,0.0,0.0,0.0,0.0,0.0,0.0,0.0,0.0,0.0,0.0,0.0,0.0,0.0,0.0,0.0,0.0,0.0,0.0,0.0,0.0,0.0,0.0,0.0,0.0,0.0,0.0,0.0,0.0,0.0,0.0,0.0,0.0,0.0,0.0,0.0,0.0,0.0,0.0,0.0,0.0,0.0,0.0,0.0,0.0,0.0,0.0,0.0,0.0,2.9869,3.0915,3.3238,3.7021,3.7489,3.7628,3.7493,3.7125,3.5402,3.2169,0.0,0.0,0.0,0.0,0.0,0.0,0.0,0.0,0.0,0.0,0.0,0.0,0.0,0.0,0.0,0.0,0.0,0.0,0.0,0.0,0.0,0.0,0.0,0.0,0.0,0.0,0.0,0.0,0.0,0.0,0.0,0.0,0.0,0.0,0.0,0.0,0.0,0.0,0.0,2.3196,2.503,0.0,0.0,0.0,0.0,0.0,0.0,0.0,0.0,2.2042,0.0,0.0,0.0,0.0,0.0,0.0,0.0,0.0,0.0,0.0,0.0,0.0,0.0,0.0,0.0,0.0,0.0,0.0,0.0,0.0,0.0,0.0,0.0,0.0,0.0,0.0,0.0,0.0,0.0,0.0,0.0,0.0,0.0,0.0,0.0,0.0,0.0,0.0,0.0,0.0,0.0,0.0,0.0,0.0,0.0,0.0,0.0,0.0,0.0,0.0,0.0,0.0,0.0,0.0,0.0,3.0402,3.4211,3.7219,3.9434,3.9576,3.9432,3.9039,3.8088,3.5831,0.0,0.0,0.0,0.0,0.0,0.0,0.0,0.0,0.0,0.0,0.0,0.0,0.0,0.0,0.0,0.0,0.0,0.0,0.0,0.0,0.0,0.0,0.0,0.0,0.0,0.0,0.0,0.0,0.0,0.0,0.0,0.0,0.0,0.0,0.0,0.0,0.0,0.0,0.0,0.0,2.4716,2.6481,2.6675,0.0,0.0,0.0,0.0,0.0,0.0,2.2794,2.2728,0.0,0.0,0.0,0.0,0.0,0.0,0.0,0.0,0.0,0.0,0.0,0.0,0.0,0.0,0.0,0.0,0.0,0.0,0.0,0.0,0.0,0.0,0.0,0.0,0.0,0.0,0.0,0.0,0.0,0.0,0.0,0.0,0.0,0.0,0.0,0.0,0.0,0.0,0.0,0.0,0.0,0.0,0.0,0.0,0.0,0.0,0.0,0.0,0.0,0.0,0.0,0.0,0.0,0.0,0.0,3.0585,3.668,4.0314,4.1144,4.1281,4.1049,4.0438,3.922,3.6405,0.0,0.0,0.0,0.0,0.0,0.0,0.0,0.0,0.0,0.0,0.0,0.0,0.0,0.0,0.0,0.0,0.0,0.0,0.0,0.0,0.0,0.0,0.0,0.0,0.0,0.0,0.0,0.0,0.0,0.0,0.0,0.0,0.0,0.0,0.0,0.0,0.0,0.0,0.0,0.0,0.0,2.7453,2.8145,2.7105,0.0,0.0,0.0,0.0,2.532,2.5035,0.0,0.0,0.0,0.0,0.0,0.0,0.0,0.0,0.0,0.0,0.0,0.0,0.0,0.0,0.0,0.0,0.0,0.0,0.0,0.0,0.0,0.0,0.0,0.0,0.0,0.0,0.0,0.0,0.0,0.0,0.0,0.0,0.0,0.0,0.0,0.0,0.0,0.0,0.0,0.0,0.0,0.0,0.0,0.0,0.0,0.0,0.0,0.0,0.0,0.0,0.0,0.0,0.0,0.0,0.0,0.0,3.1491,3.5862,3.9105,4.1102,4.155,4.1682,4.1567,4.0364,3.7575,0.0,0.0,0.0,0.0,0.0,0.0,0.0,0.0,0.0,0.0,0.0,0.0,0.0,0.0,0.0,0.0,0.0,0.0,0.0,0.0,0.0,0.0,0.0,0.0,0.0,0.0,0.0,0.0,0.0,0.0,0.0,0.0,0.0,0.0,0.0,0.0,0.0,0.0,0.0,0.0,0.0,2.82,2.792,2.7806,2.7714,0.0,0.0,2.82,2.9422,3.033,0.0,0.0,0.0,0.0,0.0,0.0,0.0,0.0,0.0,0.0,0.0,0.0,0.0,0.0,0.0,0.0,0.0,0.0,0.0,0.0,0.0,0.0,0.0,0.0,0.0,0.0,0.0,0.0,0.0,0.0,0.0,0.0,0.0,0.0,0.0,0.0,0.0,0.0,0.0,0.0,0.0,0.0,0.0,0.0,0.0,0.0,0.0,0.0,0.0,0.0,0.0,0.0,0.0,0.0,0.0,2.9123,3.2951,3.8046,4.1375,4.2696,4.2336,4.2073,4.2061,4.0643,3.757,0.0,0.0,0.0,0.0,0.0,0.0,0.0,0.0,0.0,0.0,0.0,0.0,0.0,0.0,0.0,0.0,0.0,0.0,0.0,0.0,0.0,0.0,0.0,0.0,0.0,0.0,0.0,0.0,0.0,0.0,0.0,0.0,0.0,0.0,0.0,0.0,0.0,0.0,0.0,0.0,0.0,0.0,3.0434,3.0357,0.0,0.0,0.0,3.0412,3.151,0.0,0.0,0.0,0.0,0.0,0.0,0.0,0.0,0.0,0.0,0.0,0.0,0.0,0.0,0.0,0.0,0.0,0.0,0.0,0.0,0.0,0.0,0.0,0.0,0.0,0.0,0.0,0.0,0.0,0.0,0.0,0.0,0.0,0.0,0.0,0.0,0.0,0.0,0.0,0.0,0.0,0.0,0.0,0.0,0.0,0.0,0.0,0.0,0.0,0.0,0.0,0.0,0.0,0.0,0.0,0.0,0.0,3.3918,4.0034,4.3289,4.3541,4.2853,4.2498,4.2543,4.1071,0.0,0.0,0.0,0.0,0.0,0.0,0.0,0.0,0.0,0.0,0.0,0.0,0.0,0.0,0.0,0.0,0.0,0.0,0.0,0.0,0.0,0.0,0.0,0.0,0.0,0.0,0.0,1.3343,0.0,0.0,0.0,0.0,0.0,0.0,0.0,0.0,0.0,0.0,0.0,0.0,0.0,0.0,3.1207,3.2538,3.2761,3.3416,0.0,0.0,3.2947,3.4177,3.4844,3.4392,0.0,0.0,0.0,0.0,0.0,0.0,0.0,0.0,0.0,0.0,0.0,0.0,0.0,0.0,0.0,0.0,0.0,0.0,0.0,0.0,0.0,0.0,0.0,0.0,0.0,0.0,0.0,0.0,0.0,0.0,0.0,0.0,0.0,0.0,0.0,0.0,0.0,0.0,0.0,0.0,0.0,0.0,0.0,0.0,0.0,0.0,0.0,0.0,0.0,0.0,0.0,0.0,0.0,0.0,0.0,3.3943,4.0482,4.3407,4.246,4.2718,4.2998,4.3272,4.1998,3.8708,0.0,0.0,0.0,0.0,0.0,0.0,0.0,0.0,0.0,0.0,0.0,0.0,0.0,0.0,0.0,0.0,0.0,0.0,0.0,0.0,0.0,0.0,0.0,0.0,0.0,0.0,0.0,0.0,0.0,0.0,0.0,0.0,0.0,0.0,0.0,0.0,0.0,0.0,0.0,0.0,0.0,3.057,3.3099,3.4284,3.5584,0.0,0.0,3.6713,3.8557,3.917,3.751,3.1715,0.0,0.0,0.0,0.0,0.0,0.0,0.0,0.0,0.0,0.0,0.0,0.0,0.0,0.0,0.0,0.0,0.0,0.0,0.0,0.0,0.0,0.0,0.0,0.0,0.0,0.0,0.0,0.0,0.0,0.0,0.0,0.0,0.0,0.0,0.0,0.0,0.0,0.0,0.0,0.0,0.0,0.0,0.0,0.0,0.0,0.0,0.0,0.0,0.0,0.0,0.0,0.0,0.0,3.1432,3.4422,3.9787,4.2579,4.2671,4.2559,4.2583,4.2714,4.2319,4.0016,0.0,0.0,0.0,0.0,0.0,0.0,0.0,0.0,0.0,0.0,0.0,0.0,0.0,0.0,0.0,0.0,0.0,0.0,0.0,0.0,0.0,0.0,0.0,0.0,0.0,0.0,0.0,0.0,2.005,2.0842,2.0961,0.0,0.0,0.0,0.0,0.0,0.0,0.0,0.0,0.0,0.0,3.4558,3.589,3.645,0.0,0.0,3.7479,3.6738,3.8515,3.7847,3.6406,3.4337,3.233,0.0,0.0,0.0,0.0,0.0,0.0,0.0,0.0,0.0,0.0,0.0,0.0,0.0,0.0,0.0,0.0,0.0,0.0,0.0,0.0,0.0,0.0,0.0,0.0,0.0,0.0,0.0,0.0,0.0,0.0,0.0,0.0,0.0,0.0,0.0,0.0,0.0,0.0,0.0,0.0,0.0,0.0,0.0,0.0,0.0,0.0,0.0,0.0,0.0,0.0,0.0,0.0,3.1667,3.4685,3.9546,4.2271,4.2712,4.2448,4.2353,4.2477,4.2458,4.0869,0.0,0.0,0.0,0.0,0.0,0.0,0.0,0.0,0.0,0.0,0.0,0.0,0.0,0.0,0.0,0.0,0.0,0.0,0.0,0.0,0.0,0.0,0.0,0.0,0.0,0.0,0.0,0.0,2.178,2.2405,2.2693,0.0,0.0,0.0,0.0,0.0,0.0,0.0,0.0,0.0,0.0,3.7742,3.8204,3.8513,3.909,4.0175,3.7948,3.6709,3.8393,3.711,3.5741,3.5078,0.0,0.0,0.0,0.0,0.0,0.0,0.0,0.0,0.0,0.0,0.0,0.0,0.0,0.0,0.0,0.0,0.0,0.0,0.0,0.0,0.0,0.0,0.0,0.0,0.0,0.0,0.0,0.0,0.0,0.0,1.603,0.0,0.0,0.0,0.0,0.0,0.0,0.0,0.0,0.0,0.0,0.0,0.0,0.0,0.0,0.0,0.0,0.0,0.0,0.0,0.0,0.0,0.0,3.2303,3.4539,4.0042,4.2687,4.2374,4.2297,4.2477,4.2862,4.2533,4.1082,3.848,0.0,0.0,0.0,0.0,0.0,0.0,0.0,0.0,0.0,0.0,0.0,0.0,0.0,0.0,0.0,0.0,0.0,0.0,0.0,0.0,0.0,0.0,0.0,0.0,0.0,0.0,1.9598,2.0575,2.1739,0.0,0.0,0.0,0.0,0.0,0.0,0.0,0.0,0.0,0.0,3.681,3.9185,3.9542,4.0361,4.0922,4.0855,3.854,3.7296,3.8853,3.7924,3.6067,0.0,0.0,0.0,0.0,0.0,0.0,0.0,0.0,0.0,0.0,0.0,0.0,0.0,0.0,0.0,0.0,0.0,0.0,0.0,0.0,0.0,0.0,0.0,0.0,0.0,0.0,0.0,2.1676,2.0545,0.0,0.0,0.0,0.0,0.0,0.0,0.0,0.0,0.0,0.0,0.0,3.3534,3.5752,0.0,0.0,0.0,0.0,0.0,0.0,0.0,0.0,0.0,0.0,0.0,0.0,3.3953,3.6082,4.0792,4.3479,4.3811,4.2833,4.2628,4.3262,4.2921,4.1137,3.7872,0.0,0.0,0.0,0.0,0.0,0.0,0.0,0.0,0.0,0.0,0.0,0.0,0.0,0.0,0.0,0.0,0.0,0.0,0.0,0.0,0.0,0.0,0.0,0.0,0.0,2.1963,0.0,0.0,0.0,0.0,0.0,0.0,0.0,0.0,0.0,0.0,0.0,3.3262,3.5407,3.9235,4.181,4.1735,4.2278,4.2899,0.0,0.0,0.0,0.0,0.0,0.0,0.0,0.0,0.0,0.0,0.0,0.0,0.0,0.0,3.4992,3.0481,2.9451,2.9412,2.9888,0.0,0.0,0.0,0.0,0.0,0.0,0.0,0.0,0.0,0.0,0.0,0.0,0.0,0.0,2.6446,0.0,2.528,0.0,0.0,0.0,0.0,0.0,0.0,0.0,0.0,3.5321,3.7414,3.7987,3.9997,3.9882,0.0,3.7431,3.4403,0.0,0.0,0.0,0.0,0.0,0.0,0.0,0.0,3.5863,3.8705,4.2668,4.4953,4.5345,4.4178,4.375,4.4264,4.3629,4.21,3.9559,3.7674,3.5905,0.0,0.0,0.0,0.0,0.0,0.0,0.0,0.0,0.0,0.0,0.0,0.0,0.0,0.0,0.0,0.0,0.0,0.0,0.0,0.0,0.0,0.0,0.0,2.4002,0.0,0.0,0.0,0.0,0.0,0.0,0.0,0.0,0.0,3.0456,3.4007,3.7209,3.8692,4.2122,4.4077,4.2965,0.0,0.0,0.0,0.0,0.0,0.0,0.0,3.7609,3.9847,3.798,3.6434,3.7184,3.9389,4.0621,3.911,0.0,0.0,3.526,3.3828,3.3642,3.4053,3.4233,3.445,3.4814,3.6234,3.7366,0.0,0.0,0.0,0.0,0.0,0.0,0.0,0.0,3.0349,2.9971,0.0,2.9329,0.0,0.0,0.0,0.0,0.0,3.169,0.0,0.0,4.1238,4.3172,4.3207,4.3241,4.3254,4.3185,4.2366,4.0623,3.792,3.4007,0.0,0.0,0.0,0.0,0.0,0.0,3.7976,4.2358,4.5444,4.7045,4.7033,4.6248,4.582,4.5737,4.4643,4.384,4.3331,4.093,3.8929,3.737,3.2149,0.0,0.0,0.0,0.0,0.0,0.0,0.0,0.0,0.0,0.0,0.0,0.0,0.0,0.0,0.0,0.0,0.0,0.0,0.0,0.0,2.6242,0.0,0.0,0.0,0.0,0.0,0.0,0.0,0.0,0.0,0.0,3.4583,3.7398,4.0495,4.2844,0.0,0.0,0.0,0.0,4.5162,4.3547,4.2214,4.1768,4.2483,4.207,4.1708,4.1922,0.0,0.0,4.1211,4.4135,4.5587,4.2138,4.4409,4.5614,4.1738,3.9285,3.8172,3.884,3.8953,3.9336,4.0856,4.2827,4.4821,3.5665,0.0,0.0,0.0,0.0,3.3034,3.4535,3.6925,3.6949,3.5884,3.4246,3.4806,0.0,0.0,0.0,0.0,0.0,0.0,3.7028,3.9777,4.1524,4.3229,4.4755,4.4755,4.4492,4.4,4.4285,4.351,4.1771,4.1643,3.6729,2.7496,0.0,0.0,0.0,0.0,4.2053,4.4506,4.6718,4.8115,4.8639,4.7319,4.6355,4.5809,4.5459,4.4831,4.3875,4.3115,4.1522,3.8952,3.5842,0.0,0.0,0.0,0.0,0.0,0.0,0.0,0.0,0.0,0.0,0.0,0.0,0.0,0.0,0.0,0.0,0.0,0.0,0.0,2.4209,2.7464,2.8983,0.0,0.0,0.0,0.0,0.0,0.0,0.0,0.0,0.0,4.0663,4.1671,4.2765,0.0,0.0,4.6821,4.4781,4.6983,4.8433,4.7413,4.6967,0.0,0.0,4.4724,4.3648,4.5784,4.6555,4.6779,4.6612,4.7575,4.8003,4.6872,4.7616,4.7931,4.6895,4.531,4.4336,4.467,4.4716,4.5014,4.5974,4.6583,4.6864,4.0536,3.7796,3.6448,3.6437,3.7292,3.7413,3.8847,4.109,4.1101,4.0342,3.9054,3.9537,3.7895,3.4706,3.4157,0.0,0.0,0.0,4.0145,4.3094,4.388,4.5147,4.672,4.7065,4.6824,4.6113,4.6238,4.5917,4.5237,4.5827,4.2268,3.4822,0.0,0.0,3.6997,4.156,4.5152,4.7544,4.8923,4.9829,5.0209,4.9032,4.7854,4.6795,4.6759,4.6111,4.4772,4.487,4.3898,4.161,3.925,3.693,0.0,0.0,0.0,0.0,0.0,0.0,0.0,0.0,0.0,0.0,0.0,2.08,1.8928,0.0,0.0,0.0,2.7037,2.8203,2.9593,3.1979,0.0,0.0,0.0,0.0,0.0,0.0,0.0,3.9981,4.2199,4.4079,4.579,4.5883,4.5671,4.5555,4.7428,4.825,4.6843,0.0,5.027,4.9526,4.9679,4.9882,4.9814,4.7718,4.6684,4.8462,4.9037,4.9206,4.939,4.9661,4.9763,4.956,4.9661,4.9965,5.027,4.956,4.8686,4.8071,4.7892,4.8176,4.8847,4.9224,4.9493,4.4406,4.4069,4.0689,3.9986,4.1136,4.1206,4.2047,4.3395,4.3432,4.3457,4.3388,4.3444,4.2303,4.0285,3.8982,0.0,4.161,4.2244,4.4086,4.6872,4.7596,4.8266,4.8949,4.9732,4.9697,4.8854,4.8294,4.8118,4.8365,4.7714,4.643,4.4682,4.3711,4.3394,4.3801,4.5164,4.7673,5.1154,5.1602,5.1744,5.1672,5.0994,4.9864,4.8341,4.8306,4.7509,4.5916,4.6141,4.5831,4.4607,4.2242,4.0126,3.8352,0.0,0.0,0.0,0.0,0.0,0.0,0.0,0.0,0.0,0.0,0.0,0.0,0.0,0.0,0.0,3.5089,0.0,3.8664,3.8081,0.0,0.0,0.0,3.4785,3.6326,3.9324,4.2045,4.3967,0.0,0.0,4.9898,4.9627,4.8972,4.8173,4.9346,4.9952,4.9102,5.0411,5.1201,5.0541,5.1014,5.1438,5.1404,5.0676,5.027,5.0541,5.1048,5.1285,5.0879,5.1183,5.1285,5.0845,5.1133,5.1776,5.2469,5.2503,5.1928,5.0051,4.9612,4.9747,5.061,5.1659,5.2656,4.541,4.5131,4.4831,4.4257,4.3508,4.3818,4.4462,4.5346,4.5654,4.547,4.4941,4.5505,4.5822,4.5881,4.6104,4.6637,4.7465,4.733,4.7976,4.9171,4.9428,4.9771,5.0209,5.0738,5.0581,4.985,5.0241,5.0123,4.9555,5.0137,5.0156,4.9634,5.015,4.8894,4.6129,4.9336,5.1808,5.3264,5.2847,5.2327,5.1708,5.1506,5.0637,4.9091,4.902,4.8032,4.5916,4.5873,4.5517,4.4632,4.3478,4.259,4.2042,3.5373,0.0,0.0,0.0,0.0,0.0,0.0,0.0,0.0,0.0,2.7232,2.4294,0.0,3.0695,0.0,3.9688,4.0921,3.6675,3.8418,0.0,0.0,3.8012,3.853,4.353,4.338,4.4111,4.7379,4.8213,4.912,5.0744,5.1285,5.1438,5.1236,5.1505,5.1505,5.0781,5.247,5.3518,5.2909,5.3247,5.3585,5.301,5.2841,5.2841,5.3416,5.3653,5.3923,5.4279,5.4481,5.4549,5.4414,5.4481,5.4684,5.482,5.4887,5.4718,5.4177,5.3653,5.3484,5.4228,5.4617,5.4921,4.7149,4.6984,4.7423,4.7114,4.632,4.5865,4.609,4.6806,4.7049,4.7074,4.7015,4.7794,4.8622,4.9391,4.9781,4.9998,4.9967,4.9966,5.0255,5.0814,5.14,5.194,5.2437,5.305,5.2883,5.2108,5.2511,5.236,5.1701,5.2183,5.2487,5.264,5.3489,5.2763,5.0619,5.2393,5.3278,5.2993,5.3242,5.3041,5.2256,5.1886,5.0731,4.8697,4.8849,4.7854,4.5399,4.5941,4.5384,4.346,4.2985,4.2652,4.236,3.7916,3.5644,0.0,0.0,0.0,0.0,0.0,0.0,0.0,0.0,0.0,0.0,0.0,3.4747,3.7013,4.22,4.365,3.9375,4.1641,4.3438,4.3624,4.2677,4.3539,4.738,4.7244,4.7819,5.0168,5.0473,5.0913,5.2046,5.2266,5.2435,5.2773,5.3112,5.3179,5.2909,5.3856,5.4566,5.4515,5.4837,5.4837,5.4093,5.4262,5.4499,5.46,5.4871,5.5243,5.5631,5.5699,5.5699,5.5699,5.5699,5.5834,5.6122,5.6172,5.6274,5.6562,5.6359,5.6021,5.5733,5.5936,5.6172,4.8942,4.8905,4.9004,4.9016,4.886,4.7595,4.7406,4.8009,4.8057,4.8472,4.9111,4.9977,5.0784,5.1449,5.1612,5.148,5.1134,5.1419,5.1811,5.2313,5.3341,5.4232,5.4971,5.5723,5.5574,5.4683,5.4754,5.4546,5.4038,5.401,5.4154,5.4532,5.508,5.5241,5.5013,5.455,5.3586,5.2208,5.3265,5.3492,5.2756,5.197,5.0346,4.8015,4.8481,4.7681,4.5287,4.6259,4.5511,4.2596,4.2284,4.2039,4.1675,4.0803,3.9688,0.0,3.725,0.0,0.0,0.0,0.0,0.0,0.0,0.0,0.0,3.8563,3.9039,3.8652,4.3673,4.6143,4.4153,4.5872,4.7158,4.7361,4.7921,4.8631,4.9526,5.0626,5.1674,5.2503,5.2503,5.2773,5.3619,5.3179,5.3044,5.3754,5.4296,5.4668,5.4854,5.4922,5.5209,5.5886,5.5969,5.5852,5.5362,5.5615,5.5784,5.5277,5.5649,5.5987,5.6037,5.6037,5.6055,5.6003,5.6071,5.624,5.6833,5.6934,5.7137,5.7697,5.773,5.7374,5.6461,5.6528,5.69,4.9209,4.8954,4.9599,4.9693,4.94,4.9415,4.9345,4.9186,4.9534,4.9731,4.9983,5.1415,5.2149,5.2341,5.3247,5.3753,5.39,5.3333,5.3619,5.4594,5.4898,5.5491,5.6255,5.6731,5.6462,5.5649,5.6224,5.6077,5.5258,5.5772,5.6054,5.6134,5.6165,5.5513,5.4371,0.0,0.0,0.0,5.3612,5.272,5.1935,5.1137,5.0025,4.861,4.9206,0.0,4.7474,4.7052,4.6451,4.5499,4.4881,0.0,0.0,0.0,0.0,0.0,0.0,0.0,0.0,0.0,0.0,0.0,4.0826,4.0533,3.9391,4.2824,4.4373,4.2665,4.5621,4.7515,4.7109,4.7954,4.9086,5.022,5.0491,5.1133,5.2435,5.2334,5.2604,5.3957,5.3653,5.3788,5.4972,5.5124,5.5074,5.5175,5.5395,5.5733,5.6292,5.6292,5.663,5.7324,5.734,5.7392,5.7291,5.7306,5.7306,5.7324,5.7358,5.7442,5.7408,5.7408,5.7442,5.7442,5.7476,5.7476,5.7679,5.7697,5.7798,5.7881,5.7934,5.7832,5.7543,5.7577,5.7697,5.0843,0.0,5.1545,5.1761,0.0,5.2229,5.2351,5.2114,5.1542,5.1948,5.3071,5.3856,5.4436,5.4834,5.542,5.5855,5.6166,5.5978,5.6106,5.6439,5.6721,5.6881,5.693,5.71,5.6908,5.642,5.7136,5.7211,5.6742,5.7333,5.7636,5.7622,5.7588,5.7118,5.6355,5.6775,5.6597,5.5776,5.504,5.4242,5.3457,5.2623,5.1317,4.9459,0.0,0.0,0.0,0.0,0.0,0.0,0.0,0.0,0.0,0.0,0.0,4.2947,4.1993,4.1618,4.2048,4.2226,4.3456,4.6116,4.7024,4.6809,4.5306,4.7753,4.8988,4.8137,4.9408,5.0148,4.9941,5.0593,5.1233,5.1723,5.2435,5.3213,5.3923,5.4363,5.4668,5.504,5.5141,5.5345,5.5788,5.584,5.5874,5.5908,5.6195,5.6499,5.6749,5.6799,5.707,5.778,5.79,5.79,5.79,5.79,5.79,5.79,5.79,5.79,5.79,5.79,5.79,5.7934,5.8186,5.8457,5.849,5.8727,5.8964,5.8964,5.8964,5.8998,5.8964,5.8693,5.8457,5.277,5.2987,5.3639,5.3892,5.3965,5.4605,5.4979,5.4979,0.0,0.0,0.0,5.5969,5.6368,5.6971,5.704,5.7326,5.7702,5.8043,5.8088,5.7953,5.8326,5.8185,5.7597,5.7585,5.7508,5.7375,5.7904,5.812,5.8033,5.8473,5.8724,5.8752,5.8688,5.8688,5.8652,5.8096,5.7453,5.6811,5.6276,5.5669,5.4978,5.4193,5.2646,5.023,5.0533,4.9841,4.8086,4.8485,4.7753,4.572,4.5251,4.4971,4.474,4.4931,4.5925,4.7683,4.8077,4.8607,4.94,4.913,4.9546,5.099,5.1771,5.1897,5.1291,5.1778,5.2259,5.2572,5.2552,5.2463,5.2286,5.2791,5.318,5.3077,5.4228,5.5023,5.5226,5.6124,5.6548,5.6277,5.6549,5.679,5.6523,5.6524,5.6456,5.6507,5.7017,5.7305,5.7127,5.7123,5.7239,5.778,5.79,5.79,5.79,5.79,5.79,5.79,5.8035,5.8084,5.8084,5.8186,5.8306,5.8407,5.8829,5.9133,5.9235,5.9641,6.008,6.008,6.008,6.008,6.0047,5.9742,5.9385,5.3929,5.4581,5.4689,5.4713,5.475,5.487,5.5269,5.5752,5.4943,5.475,5.5088,5.5716,5.6078,5.6198,5.6528,5.7061,5.7683,5.7405,5.779,0.0,5.8818,5.8911,5.9068,5.9104,5.8957,5.8733,5.8813,5.8821,5.8829,5.8759,5.8781,5.8951,5.8781,5.8724,5.8674,5.8602,5.851,5.8317,5.5727,5.4287,5.4193,5.3434,5.2349,5.0999,5.1598,5.1366,5.0063,4.9569,4.9081,4.8597,4.8054,4.8028,4.8674,4.9302,5.0139,5.1039,5.1751,5.212,5.2138,5.21,5.2427,5.3296,5.4077,5.3943,5.2596,5.2546,5.2483,5.2168,5.2337,5.2461,5.3141,5.3515,5.433,5.5837,5.6343,5.6715,5.7329,5.725,5.739,5.7868,5.7529,5.7687,5.815,5.8201,5.8236,5.82,5.846,5.8353,5.8317,5.7963,5.7782,5.7866,5.79,5.79,5.8105,5.7934,5.8053,5.79,5.849,5.8844,5.8863,5.9268,5.9573,5.9742,5.9844,5.9945,5.9945,6.0013,6.0216,6.0283,6.0283,6.025,6.0283,6.0588,6.0704,5.516,5.5522,5.5957,5.6391,5.6826,5.7248,5.7659,5.7913,5.7623,5.7188,5.6899,5.7623,5.7949,5.7972,5.8139,5.865,5.938,5.9202,5.9396,5.9885,5.9934,5.9786,5.9532,5.9406,5.9335,5.9235,5.9486,5.9616,5.9616,5.9866,6.0052,6.0146,6.0052,5.9794,5.9402,5.9366,5.9137,5.8674,5.7283,5.6369,5.5955,5.5611,5.4946,5.3975,5.4061,5.3873,5.3288,5.2558,5.2067,5.1856,5.1413,5.1222,5.1353,5.1675,5.1997,5.2261,5.2575,5.3256,5.4285,5.536,5.6009,5.6104,5.6649,5.6711,5.6019,5.5716,5.5598,5.5628,5.5642,5.5714,5.5952,5.6304,5.6884,5.7585,5.7998,5.86,5.9357,5.9323,5.9512,6.0237,6.0235,6.0216,6.0665,6.0734,6.07,6.0734,6.0632,6.0462,6.0185,6.0026,5.9606,5.8978,5.8819,5.9023,5.9329,5.9374,5.9318,5.93,5.9445,5.9573,5.9607,5.9945,6.008,6.0148,6.0452,6.0723,6.0757,6.1095,6.1298,6.1332,6.1332,6.1332,6.14,6.167,6.1704,5.65,5.6875,5.7478,5.8094,5.8746,5.9325,5.9602,5.9602,5.9783,5.9542,5.9059,5.9434,5.9602,5.9602,5.9602,6.0036,6.0724,6.0797,6.0905,6.105,6.1086,6.0697,6.0088,5.9944,5.9862,5.9802,6.0153,6.0325,6.0382,6.0852,6.1093,6.1093,6.1093,6.0772,6.0186,6.0151,5.9865,5.9295,5.9259,5.8809,5.7882,5.786,5.7453,5.6726,5.6312,5.5964,5.5596,5.5009,5.4522,5.4119,5.404,5.3904,5.3711,5.3858,5.3977,5.4031,5.4051,5.4737,5.6282,5.779,5.8544,5.8208,5.8857,5.9188,5.898,5.8988,5.8798,5.8608,5.8315,5.8261,5.8108,5.8663,5.9147,5.9004,5.9634,6.0329,6.1052,6.1239,6.1532,6.2242,6.2413,6.2427,6.2627,6.266,6.2541,6.2473,6.2546,6.2265,6.1966,6.1916,6.1432,6.0842,6.0229,6.0046,6.0713,6.0619,6.0508,6.0576,6.0547,6.054,6.0589,6.0638,6.0736,6.0905,6.124,6.1559,6.1622,6.1941,6.2245,6.2245,6.2212,6.2313,6.2245,6.2279,6.2381,5.7949,5.9167,5.9312,5.9398,5.9529,5.9615,5.9674,5.9747,6.0362,6.0652,6.0507,5.9905,5.9638,5.9602,5.9638,6.0109,6.0797,6.0797,6.1195,6.1811,6.1883,6.1709,6.1356,6.1349,6.1229,6.0946,6.0959,6.0944,6.0944,6.1037,6.1093,6.1093,6.1093,6.1058,6.0986,6.095,6.095,6.0879,6.0879,6.013,5.8688,5.8617,5.8238,5.7503,5.7461,5.6734,5.5481,5.5294,5.4937,5.4162,5.4852,5.5522,5.6015,5.675,5.7426,5.7989,5.8046,5.8267,5.8403,5.8588,5.8731,5.8738,6.005,6.0558,5.9972,6.1049,6.0762,5.896,5.8224,5.8375,5.8405,5.9206,6.0054,6.0695,6.1363,6.1942,6.219,6.2324,6.2508,6.2543,6.3033,6.2891,6.3144,6.3196,6.3041,6.314,6.314,6.2974,6.2743,6.2711,6.2839,6.2893,6.1988,6.0877,6.0976,6.0816,6.0968,6.095,6.1357,6.1608,6.176,6.2135,6.2666,6.2023,6.229,6.2334,6.227,6.2381,6.2381,6.2415,6.2415,6.2415,6.2415,6.2415,6.2415,5.9724,6.029,6.029,6.0579,6.0978,6.1014,6.1014,6.105,6.1376,6.1521,6.1485,6.1159,6.1014,6.1014,6.1014,6.1231,6.1485,6.1521,6.1666,6.1992,6.1992,6.1882,6.17,6.1651,6.1494,6.1226,6.1138,6.1093,6.1093,6.1093,6.1093,6.1093,6.1093,6.1093,6.1093,6.1093,6.1093,6.1093,6.1093,6.0772,6.0165,5.9651,5.9045,5.8331,5.8238,5.7975,5.7368,5.7317,5.7174,5.6833,5.7124,5.7495,5.7725,5.8046,5.8367,5.8688,5.8688,5.8688,5.8709,5.9152,5.9616,6.0079,6.1165,6.1679,6.1379,6.1965,6.191,6.1331,6.0788,6.059,6.0724,6.1494,6.2155,6.2537,6.2951,6.3396,6.4097,6.4194,6.445,6.4972,6.5141,6.5171,6.5222,6.5222,6.5007,6.4648,6.4489,6.4189,6.3515,6.3295,6.3298,6.3161,6.2261,6.2109,6.2522,6.2541,6.2304,6.228,6.2392,6.254,6.254,6.2612,6.277,6.2727,6.2615,6.2537,6.2386,6.24,6.2415,6.2415,6.2415,6.2415,6.2415,6.2415,6.2415,6.0797,6.076,6.0579,6.0797,6.134,6.134,6.134,6.134,6.134,6.134,6.134,6.134,6.134,6.1412,6.1774,6.2028,6.2028,6.2028,6.2019,6.2046,6.206,6.1992,6.1895,6.177,6.1587,6.1315,6.099,6.0738,6.0581,6.0759,6.086,6.094,6.1119,6.1211,6.1167,6.1152,6.1138,6.1093,6.1093,6.1093,6.1022,6.0522,5.9937,5.9437,5.9366,5.9259,5.9045,5.9045,5.8923,5.8709,5.8688,5.8688,5.8688,5.8688,5.8781,5.9009,5.903,5.9288,5.9688,6.0295,6.0967,6.1783,6.2555,6.2918,6.2775,6.2882,6.3132,6.3275,6.3214,6.2978,6.279,6.3489,6.4009,6.4151,6.4414,6.4965,6.5639,6.5626,6.5641,6.6322,6.5902,6.6134,6.6083,6.5946,6.5627,6.5207,6.533,6.5359,6.448,6.4339,6.4398,6.3941,6.3496,6.3282,6.3729,6.2956,6.2832,6.2809,6.2578,6.2763,6.2896,6.2814,6.2885,6.3,6.2731,6.2537,6.2498,6.2479,6.2415,6.2415,6.2415,6.2415,6.2415,6.2415,6.2415,6.0797,6.0688,5.9977,5.976,5.9747,5.9783,5.9747,5.9855,5.9783,5.9747,5.9819,5.9783,5.9747,5.9977,6.1353,6.1955,6.1969,6.191,6.1942,6.2026,6.2063,6.2135,6.2195,6.2024,6.1768,6.1357,6.0554,5.986,5.9258,5.981,6.0253,6.0452,6.1049,6.1387,6.1185,6.112,6.1205,6.0995,6.0959,6.1037,6.1051,6.1001,6.0873,6.0766,6.095,6.0522,5.9901,5.983,5.9473,5.8745,5.8688,5.8688,5.8688,5.8724,5.908,5.9687,5.9844,6.056,6.1887,6.2203,6.2656,6.357,6.4126,6.4373,6.3621,6.4,6.4107,6.3749,6.4193,6.4259,6.3866,6.4419,6.4971,6.5283,6.5869,6.6283,6.6597,6.5815,6.5627,6.5627,6.5301,6.512,6.4758,6.4504,6.4794,6.4845,6.5156,6.5453,6.5374,6.5916,6.6111,6.6043,6.5556,6.4967,6.2847,6.2544,6.2069,6.21,6.279,6.2648,6.277,6.2958,6.3174,6.3246,6.2981,6.2789,6.2673,6.2557,6.2454,6.2415,6.2415,6.2415,6.2415,6.2415,6.2415,6.1267,6.0724,5.9928,5.9602,5.9602,5.9602,5.9602,5.9602,5.9602,5.9602,5.9602,5.9602,5.9921,6.0508,6.1088,6.1075,6.0603,6.0695,6.076,6.0775,6.0775,6.1015,6.1359,6.0884,6.0801,6.0901,6.0087,5.9459,5.9197,5.9412,5.9548,5.9639,5.9891,5.9993,5.9951,5.9951,5.9909,5.9916,5.9951,5.9965,5.9952,6.0048,6.0062,5.9938,6.0696,6.0736,5.9937,5.9901,5.9544,5.8709,5.8688,5.8688,5.8759,5.9288,5.966,5.9945,6.0604,6.1207,6.173,6.2341,6.3025,6.3788,6.4103,6.4181,6.3843,6.3648,6.3541,6.3771,6.3585,6.3773,6.4783,6.5466,6.598,6.6064,6.5987,6.6025,6.5866,6.5337,6.5011,6.5482,6.57,6.5953,6.5736,6.5917,6.5736,6.5301,6.541,6.5374,6.4975,6.512,6.5446,6.5243,6.4848,6.421,6.3503,6.3355,6.331,6.3273,6.3427,6.3295,6.3326,6.3197,6.3324,6.3208,6.3038,6.2789,6.2596,6.2479,6.2415,6.2415,6.2415,6.2415,6.2415,6.2415,6.2415,6.0905,6.029,5.9289,5.8818,5.8818,5.8818,5.8963,5.9167,5.9216,5.9361,5.9579,5.9654,6.0036,6.0563,6.0726,6.046,6.006,6.0499,6.0792,6.0843,6.0843,6.1109,6.1386,6.0983,6.0929,6.1062,5.9989,5.9168,5.8623,5.8799,5.8894,5.8948,5.9164,5.9317,5.929,5.924,5.9249,5.9235,5.9331,5.9466,5.9641,5.9853,6.0038,6.0223,6.0963,6.0812,5.9667,5.9538,5.9437,5.9116,5.8852,5.8688,5.8774,5.9345,5.9831,6.0031,6.0999,6.1702,6.1947,6.2738,6.3473,6.3971,6.3999,6.397,6.3934,6.3703,6.3847,6.4099,6.4266,6.4591,6.5531,6.6283,6.6608,6.6551,6.6206,6.5989,6.5953,6.5301,6.5011,6.5156,6.5518,6.5881,6.6025,6.5989,6.5663,6.5265,6.5374,6.5301,6.4939,6.5048,6.5192,6.5178,6.5155,6.505,6.4767,6.4815,6.3892,6.3688,6.3624,6.3583,6.3556,6.3459,6.334,6.3189,6.2981,6.2712,6.2518,6.2454,6.2434,6.2434,6.2415,6.2415,6.2415,6.2415,6.2415,5.9674,5.9542,5.7913,5.7587,5.7768,5.7695,5.784,5.8601,5.8601,5.9048,5.9618,5.9735,5.9872,6.0022,6.0357,6.0274,6.0627,6.1671,6.2122,6.2115,6.2201,6.2325,6.251,6.2189,6.1989,6.1956,6.0316,5.875,5.7732,5.8257,5.852,5.8611,5.919,5.9414,5.9402,5.933,5.9335,5.9375,5.9542,5.9885,6.0499,6.0697,6.0995,6.1584,6.1738,6.0918,5.9135,5.9002,5.9288,5.9687,5.9137,5.8745,5.8809,5.9073,5.9444,6.0318,6.1164,6.2076,6.2932,6.3719,6.4275,6.4419,6.4238,6.4166,6.4332,6.4693,6.4982,6.5068,6.5713,6.6518,6.6467,6.6612,6.6684,6.6786,6.6605,6.6496,6.646,6.6025,6.5301,6.4794,6.4867,6.4541,6.4541,6.4939,6.5048,6.5084,6.5337,6.5736,6.5663,6.6062,6.6605,6.6641,6.6314,6.6045,6.6208,6.6222,6.4811,6.3731,6.3635,6.3572,6.3657,6.3617,6.3475,6.334,6.3095,6.2828,6.261,6.2513,6.242,6.242,6.24,6.2415,6.2415,6.2415,6.2415,6.0435,6.0326,5.9276,5.918,5.9566,5.9095,5.9325,5.9941,5.9493,5.9414,5.9699,5.9786,6.0205,6.0795,6.1017,6.1385,6.1997,6.2472,6.2106,6.13,6.1153,6.1508,6.1826,6.1398,6.1019,6.0821,6.0307,5.9695,5.9208,5.9316,5.9436,5.9348,5.9069,5.9173,5.9526,5.9121,5.9253,6.0246,6.0541,6.0729,6.0894,6.1113,6.1045,6.0677,6.0513,6.0089,5.9479,6.0192,6.0383,5.9966,5.9651,5.9544,5.9573,5.9681,6.0375,6.1659,6.2774,6.3459,6.3841,6.4592,6.5099,6.5069,6.4643,6.465,6.4976,6.4867,6.4744,6.4722,6.4983,6.5337,6.5844,6.5989,6.6243,6.675,6.6315,6.6062,6.6098,6.5808,6.5518,6.5374,6.57,6.5989,6.6025,6.5989,6.5917,6.5917,6.6207,6.6351,6.646,6.6569,6.6786,6.6822,6.6822,6.6822,6.6668,6.6578,6.5802,6.4737,6.4317,6.3885,6.3886,6.369,6.3588,6.3414,6.3189,6.2943,6.2727,6.2591,6.2498,6.244,6.2434,6.2415,6.2415,6.2415,6.2415,6.0978,6.1159,6.0362,6.0507,6.1159,6.0688,6.0942,6.1571,6.1239,6.1211,6.1508,6.1371,6.1646,6.2164,6.2044,6.2253,6.2793,6.2793,6.2242,6.1398,6.1288,6.1594,6.1961,6.1545,6.1043,6.075,6.0689,6.0444,6.0065,6.0027,5.9952,5.9743,5.9366,5.9316,5.9712,5.9376,5.9667,6.0464,6.0704,6.094,6.1146,6.1358,6.136,6.109,6.0978,6.097,6.1039,6.1801,6.1508,6.0325,6.0209,6.0358,6.0417,6.0841,6.1595,6.2638,6.3596,6.4173,6.4049,6.4599,6.4975,6.4722,6.4519,6.4577,6.5011,6.4794,6.4867,6.483,6.5229,6.5497,6.5953,6.6062,6.6315,6.675,6.6424,6.6062,6.6062,6.6062,6.6062,6.6134,6.646,6.675,6.6822,6.6822,6.6822,6.6822,6.6822,6.6822,6.6822,6.6786,6.6822,6.6822,6.6822,6.6822,6.6822,6.6712,6.6638,6.5956,6.528,6.4683,6.4288,6.3827,6.3581,6.3414,6.3208,6.3,6.2804,6.2707,6.2615,6.2552,6.2536,6.2415,6.2415,6.2415,6.2415,6.1376,6.1919,6.1304,6.1593,6.2245,6.2173,6.2599,6.3292,6.3294,6.3666,6.4185,6.3776,6.3688,6.3617,6.306,6.2853,6.2793,6.2793,6.2756,6.2609,6.2609,6.2646,6.2609,6.2536,6.2169,6.1716,6.1556,6.1128,6.064,6.0516,6.0161,6.0343,6.0197,6.0148,6.0256,6.0148,6.0221,6.0597,6.0614,6.1054,6.1639,6.1752,6.2046,6.2572,6.2583,6.2638,6.2861,6.2944,6.2248,6.0654,6.0954,6.1298,6.1522,6.222,6.2745,6.3247,6.3983,6.4017,6.3788,6.4321,6.446,6.4003,6.4366,6.4533,6.4938,6.5467,6.5707,6.5728,6.6221,6.6641,6.6714,6.6714,6.6735,6.6786,6.6714,6.6677,6.6786,6.675,6.6677,6.6714,6.6786,6.6822,6.6822,6.6822,6.6822,6.6822,6.6822,6.6822,6.6822,6.6822,6.6822,6.6822,6.6822,6.6822,6.6822,6.6808,6.6623,6.5962,6.5548,6.5326,6.4725,6.4194,6.4083,6.3846,6.3645,6.3315,6.3231,6.3392,6.3271,6.3182,6.3021,6.2623,6.2482,6.255,6.2415,6.2693,6.2911,6.3323,6.3925,6.4504,6.407,6.4285,6.4964,6.4511,6.4612,6.4898,6.4845,6.4498,6.4039,6.3857,6.3429,6.2976,6.2793,6.2793,6.2793,6.2793,6.2793,6.2793,6.2793,6.2683,6.2462,6.2352,6.2315,6.2119,6.1923,6.1909,6.1894,6.1285,6.1308,6.1657,6.1235,6.166,6.2509,6.2746,6.2823,6.3006,6.3105,6.3059,6.2743,6.2705,6.2726,6.2803,6.2619,6.2531,6.2277,6.2198,6.2378,6.2472,6.2796,6.33,6.3942,6.4208,6.4374,6.4344,6.4837,6.5141,6.5146,6.5255,6.5747,6.6428,6.6547,6.6649,6.6642,6.6787,6.6786,6.6822,6.6822,6.6822,6.6822,6.6837,6.6822,6.6822,6.6822,6.6822,6.6822,6.6822,6.6822,6.6822,6.6858,6.6895,6.6895,6.6931,6.6967,6.7112,6.7076,6.7221,6.6931,6.6858,6.6822,6.6822,6.6822,6.6524,6.5795,6.5613,6.5832,6.5285,6.4755,6.4927,6.5095,6.4866,6.4591,6.4678,6.482,6.4502,6.3925,6.3617,6.3286,6.3009,6.2922,6.2584,6.3613,6.4265,6.4685,6.5374,6.6025,6.5591,6.575,6.6147,6.5904,6.5838,6.5992,6.5793,6.5493,6.5044,6.4433,6.387,6.3356,6.2939,6.2793,6.2793,6.2793,6.2793,6.2793,6.2793,6.2793,6.2793,6.2793,6.2793,6.2756,6.2793,6.2755,6.2595,6.2216,6.2202,6.2444,6.2275,6.2361,6.3103,6.3337,6.3376,6.3363,6.3363,6.3218,6.2841,6.2717,6.2667,6.2627,6.2725,6.2776,6.2643,6.249,6.2621,6.3159,6.3498,6.407,6.4837,6.5002,6.5017,6.5039,6.5438,6.5698,6.5856,6.6094,6.6616,6.7008,6.7069,6.6983,6.6968,6.6932,6.6889,6.6889,6.6932,6.6947,6.6903,6.6874,6.6859,6.6801,6.6822,6.6822,6.6822,6.6822,6.6822,6.6822,6.7076,6.7257,6.7402,6.7764,6.7836,6.796,6.7779,6.7692,6.7583,6.7634,6.7764,6.7836,6.7836,6.7798,6.6996,6.6206,6.6385,6.604,6.5485,6.5537,6.5773,6.5842,6.5907,6.5817,6.5622,6.5118,6.4628,6.4313,6.397,6.3645,6.3402,6.2995,6.4301,6.5591,6.5714,6.6163,6.6743,6.683,6.6816,6.7054,6.7073,6.7227,6.7254,6.6826,6.6463,6.6402,6.4934,6.4213,6.3992,6.316,6.2866,6.2793,6.2793,6.2793,6.2793,6.2793,6.2793,6.2793,6.2793,6.2793,6.2793,6.2793,6.2793,6.278,6.2743,6.2756,6.2743,6.2743,6.2793,6.2878,6.3134,6.3208,6.3281,6.3355,6.3404,6.316,6.3086,6.2987,6.3081,6.3354,6.3477,6.2629,6.2445,6.3098,6.3825,6.4457,6.5081,6.5683,6.5786,6.5745,6.5812,6.5884,6.6058,6.6209,6.6818,6.7216,6.7252,6.7168,6.7119,6.7097,6.7011,6.7011,6.7026,6.714,6.7126,6.704,6.7033,6.6961,6.6845,6.6786,6.6822,6.6822,6.6822,6.6822,6.7097,6.7496,6.8017,6.8126,6.8431,6.854,6.8612,6.8576,6.8612,6.8721,6.8829,6.9011,6.9011,6.9011,6.894,6.8598,6.7544,6.7183,6.6889,6.6497,6.6255,6.6275,6.6689,6.6665,6.6391,6.6044,6.5749,6.5576,6.5451,6.4815,6.4199,6.401,6.3718,6.5265,6.5642,6.641,6.678,6.6939,6.7069,6.7196,6.7373,6.7414,6.7497,6.7596,6.7467,6.7063,6.6476,6.5485,6.4714,6.4103,6.3319,6.2793,6.2793,6.2793,6.2793,6.2793,6.2793,6.2793,6.2793,6.2793,6.2793,6.2793,6.2793,6.2793,6.2793,6.2793,6.2793,6.2793,6.2793,6.2793,6.2903,6.3392,6.3649,6.3759,6.415,6.4187,6.3796,6.3772,6.3783,6.3954,6.4526,6.4794,6.4752,6.4908,6.5154,6.5396,6.5642,6.5907,6.6048,6.6162,6.6112,6.6066,6.6512,6.6969,6.7053,6.7218,6.7483,6.7593,6.7456,6.7373,6.7359,6.7238,6.7168,6.7196,6.7308,6.7367,6.7283,6.7213,6.7156,6.699,6.6917,6.6895,6.6858,6.6931,6.704,6.764,6.7909,6.838,6.8793,6.9083,6.9192,6.93,6.9409,6.9518,6.9699,6.9663,6.9771,6.9771,6.9761,6.9746,6.9645,6.8809,6.7991,6.7741,6.7415,6.7142,6.7284,6.7669,6.7473,6.705,6.7177,6.6984,6.6782,6.6491,6.5906,6.5323,6.4937,6.4409,6.5482,6.6185,6.6765,6.6983,6.7011,6.714,6.7294,6.7456,6.752,6.7565,6.7674,6.77,6.7444,6.6953,6.5888,6.5044,6.4567,6.3796,6.316,6.3013,6.3135,6.3172,6.2829,6.2793,6.2793,6.2829,6.2793,6.2793,6.2793,6.2793,6.2793,6.2793,6.2793,6.2793,6.2793,6.2793,6.2793,6.2829,6.3196,6.3503,6.3613,6.3857,6.431,6.4103,6.4103,6.4249,6.4677,6.5448,6.5815,6.5996,6.6453,6.6619,6.6379,6.6356,6.6435,6.6683,6.6756,6.6743,6.6792,6.6988,6.7364,6.7483,6.7538,6.762,6.7647,6.7565,6.7534,6.7506,6.7414,6.7387,6.7419,6.7524,6.7621,6.7884,6.7822,6.7846,6.7957,6.7687,6.7366,6.7438,6.7764,6.809,6.8452,6.8669,6.9104,6.9735,7.0299,7.0408,7.048,7.0553,7.048,7.0568,7.046,7.046,7.0444,7.0439,7.041,7.0257,6.9883,6.9141,6.8609,6.8325,6.7989,6.8057,6.8014,6.8049,6.7748,6.7945,6.7879,6.7519,6.711,6.6859,6.6471,6.5872,6.5255,6.5583,6.6801,6.7005,6.7076,6.704,6.721,6.7364,6.7511,6.7511,6.7593,6.7687,6.77,6.7664,6.7333,6.6182,6.5521,6.5118,6.4677,6.3943,6.36,6.4016,6.3943,6.3527,6.3417,6.3417,6.316,6.2903,6.2829,6.2793,6.2793,6.2793,6.2793,6.2793,6.2793,6.2793,6.2793,6.2793,6.2829,6.3306,6.3563,6.3673,6.382,6.442,6.4543,6.4727,6.4934,6.5521,6.6219,6.6696,6.6696,6.7333,6.7247,6.6916,6.6733,6.6876,6.7488,6.7451,6.7337,6.7245,6.7383,6.7524,6.7524,6.762,6.7687,6.7674,6.7606,6.7552,6.7561,6.7561,6.7662,6.782,6.7967,6.828,6.8668,6.8733,6.8866,6.9135,6.8717,6.8503,6.8235,6.8488,6.8866,6.9337,6.9699,7.017,7.0604,7.1132,7.1494,7.1494,7.1458,7.1205,7.1132,7.0987,7.0951,7.0951,7.0899,7.0906,7.077,7.0568,6.9989,6.9362,6.8849,6.8477,6.8122,6.8083,6.8083,6.8083,6.8044,6.7945,6.7879,6.7736,6.7442,6.7102,6.6688,6.6171,6.6685,6.6852,6.7233,6.7331,6.7224,6.7474,6.7633,6.766,6.7647,6.7674,6.77,6.77,6.77,6.7407,6.6769,6.5962,6.5362,6.5068,6.4958,6.4738,6.5007,6.4884,6.4664,6.4554,6.4701,6.4481,6.371,6.305,6.2976,6.2793,6.3086,6.2903,6.2939,6.2976,6.3013,6.2829,6.305,6.3306,6.404,6.4591,6.4848,6.5558,6.6035,6.5888,6.5815,6.5999,6.6366,6.7026,6.7517,6.7517,6.7627,6.759,6.7444,6.7407,6.749,6.7587,6.7647,6.7606,6.7593,6.762,6.766,6.7674,6.7687,6.77,6.7687,6.7674,6.7647,6.7683,6.7757,6.7967,6.8628,6.8678,6.9119,6.9535,6.9608,6.9508,6.9675,6.9736,6.9626,6.9285,6.9373,6.9518,7.0061,7.046,7.0661,7.0915,7.1277,7.1494,7.1494,7.1494,7.1422,7.1422,7.1422,7.1422,7.1386,7.135,7.1307,7.1159,7.0924,7.0438,6.9832,6.927,6.8841,6.8513,6.8201,6.8083,6.8083,6.8083,6.8064,6.7965,6.7984,6.797,6.7664,6.7319,6.7261,6.6619,6.7026,6.7359,6.7442,6.7414,6.7606,6.77,6.77,6.77,6.77,6.77,6.77,6.77,6.748,6.6856,6.6072,6.5582,6.5778,6.5655,6.5472,6.5705,6.5668,6.5398,6.5362,6.5325,6.5105,6.4444,6.4077,6.4077,6.415,6.4004,6.4114,6.4114,6.4077,6.4114,6.4187,6.404,6.4297,6.4848,6.5325,6.5362,6.6256,6.6329,6.6549,6.6549,6.6696,6.715,6.7407,6.77,6.7664,6.77,6.77,6.77,6.77,6.77,6.77,6.77,6.77,6.77,6.77,6.77,6.77,6.77,6.77,6.77,6.77,6.77,6.7811,6.8201,6.8458,6.8811,6.9265,6.9889,7.0457,7.0427,7.0464,7.0688,7.0883,7.063,7.0315,7.0444,7.0625,7.0806,7.106,7.1168,7.1313,7.1494,7.1494,7.1494,7.1494,7.1494,7.1494,7.1494,7.1494,7.1494,7.1494,7.1494,7.1399,7.124,7.0761,7.0234,6.9671,6.9178,6.88,6.8513,6.8123,6.8083,6.8083,6.8083,6.8083,6.8064,6.8009,6.8044,6.7984,6.7805,6.6557,6.7224,6.7442,6.7511,6.7511,6.7633,6.77,6.77,6.77,6.77,6.77,6.77,6.77,6.7517,6.7063,6.6402,6.5839,6.6512,6.6366,6.6182,6.6439,6.6366,6.5962,6.5778,6.5925,6.6072,6.5875,6.5595,6.5105,6.5105,6.5215,6.5105,6.5251,6.5325,6.5178,6.5031,6.5288,6.5325,6.5521,6.5558,6.5742,6.5802,6.6035,6.6659,6.6733,6.7076,6.7554,6.7664,6.77,6.77,6.77,6.77,6.77,6.77,6.77,6.77,6.77,6.77,6.77,6.77,6.77,6.77,6.77,6.77,6.77,6.77,6.7774,6.8017,6.8421,6.9105,6.9559,7.0,7.0683,7.1264,7.1348,7.1252,7.1526,7.1629,7.1407,7.1308,7.151,7.1458,7.1365,7.135,7.135,7.135,7.1494,7.1494,7.1494,7.1494,7.1494,7.1494,7.1494,7.1494,7.1494,7.1494,7.1494,7.1463,7.1336,7.1009,7.0526,6.9973,6.9472,6.8838,6.8435,6.8083,6.8083,6.8083,6.8083,6.8083,6.8083,6.8083,6.8064,6.8044,6.7945,6.7249,6.7238,6.7552,6.7606,6.7524,6.7647,6.77,6.77,6.77,6.77,6.77,6.77,6.77,6.7627,6.759,6.7444,6.7407,6.7333,6.7333,6.715,6.7333,6.737,6.7333,6.7444,6.715,6.7063,6.7187,6.6549,6.5875,6.5545,6.5435,6.5472,6.5582,6.5398,6.5632,6.5692,6.5325,6.5472,6.6035,6.6659,6.7187,6.7247,6.737,6.7517,6.7517,6.759,6.7774,6.7774,6.7737,6.7811,6.7774,6.7737,6.77,6.77,6.77,6.77,6.77,6.77,6.77,6.77,6.77,6.77,6.77,6.77,6.7811,6.7884,6.8091,6.8715,6.8972,6.9545,7.0499,7.1013,7.1564,7.1888,7.2028,7.1903,7.2039,7.1857,7.1672,7.1557,7.1526,7.1526,7.149,7.151,7.1494,7.1494,7.1494,7.1494,7.1494,7.1494,7.1494,7.1494,7.1494,7.1494,7.1494,7.1494,7.1494,7.1494,7.1304,7.1107,7.0594,7.0008,6.9289,6.8724,6.8338,6.8103,6.8083,6.8083,6.8083,6.8083,6.8083,6.8083,6.8083,6.8044,6.8024,6.7378,6.7511,6.7552,6.7593,6.7606,6.7674,6.77,6.77,6.77,6.77,6.77,6.77,6.77,6.77,6.77,6.7664,6.77,6.77,6.77,6.77,6.77,6.77,6.7664,6.77,6.77,6.77,6.7664,6.7407,6.6733,6.6623,6.6659,6.6586,6.6623,6.6733,6.6476,6.6623,6.6696,6.6806,6.7026,6.732,6.759,6.7737,6.7921,6.8311,6.7994,6.8031,6.8201,6.7884,6.7994,6.8201,6.8385,6.8641,6.8935,6.9096,6.9082,6.9096,6.9096,6.8655,6.7884,6.7737,6.7737,6.77,6.7737,6.7884,6.8201,6.8385,6.8678,6.9486,7.0,7.061,7.1233,7.1711,7.2092,7.2342,7.2365,7.2218,7.2069,7.1924,7.177,7.1656,7.1557,7.1609,7.1593,7.151,7.1494,7.1494,7.1494,7.1494,7.1494,7.1494,7.1494,7.1494,7.1494,7.1494,7.1494,7.1494,7.1494,7.1431,7.1058,7.0845,7.0475,6.9902,6.9215,6.8743,6.8397,6.8221,6.8123,6.8083,6.8083,6.8083,6.8083,6.8083,6.8083,6.8064,6.8039,6.7373,6.7633,6.7524,6.7565,6.77,6.77,6.77,6.77,6.77,6.77,6.77,6.77,6.77,6.77,6.77,6.77,6.77,6.77,6.77,6.77,6.77,6.77,6.77,6.77,6.77,6.77,6.77,6.759,6.7627,6.759,6.7517,6.77,6.7444,6.7554,6.7627,6.7554,6.748,6.7517,6.7811,6.8017,6.8091,6.8325,6.8678,6.8862,6.8728,6.8582,6.9009,6.8752,6.8752,6.9045,6.9192,6.9449,6.9816,6.9853,6.9669,6.9559,6.9412,6.8898,6.8214,6.7884,6.7944,6.7944,6.7847,6.8104,6.9045,6.9119,6.9398,7.0257,7.0756,7.1197,7.1674,7.2151,7.2349,7.243,7.2409,7.2263,7.2129,7.2009,7.1939,7.1826,7.1765,7.1687,7.1656,7.1578,7.151,7.1494,7.1494,7.1494,7.1494,7.1494,7.1494,7.1494,7.1494,7.1494,7.1494,7.1494,7.1494,7.1399,7.1042,7.0644,7.0287,6.9849,6.9252,6.8857,6.8435,6.8241,6.8083,6.8083,6.8083,6.8083,6.8083,6.8083,6.8083,6.8098,6.7979,6.7219,6.7497,6.7483,6.7529,6.7664,6.77,6.77,6.759,6.7664,6.77,6.77,6.7737,6.7811,6.7811,6.7958,6.7958,6.7811,6.77,6.7811,6.7811,6.77,6.77,6.77,6.77,6.77,6.77,6.77,6.77,6.77,6.77,6.77,6.77,6.7921,6.7774,6.7847,6.8031,6.8068,6.8178,6.8531,6.8825,6.9009,6.9339,6.9816,6.9926,6.9963,6.9963,7.0,6.9743,6.9779,7.0,7.0036,7.0183,7.0477,7.0367,7.011,6.9743,6.9412,6.8935,6.8398,6.8421,6.8752,6.8605,6.8385,6.8508,6.9816,6.9339,6.9729,7.0977,7.1417,7.1711,7.2114,7.2445,7.2496,7.2481,7.2438,7.2351,7.2263,7.2218,7.2114,7.2009,7.1903,7.1796,7.1718,7.164,7.151,7.1494,7.1494,7.1494,7.1494,7.1494,7.1494,7.1494,7.1494,7.1494,7.1494,7.1494,7.1494,7.1415,7.1155,7.0661,7.013,6.9635,6.9159,6.8746,6.8358,6.8201,6.8083,6.8083,6.8083,6.8083,6.8083,6.8083,6.8024,6.7965,6.7839,6.7148,6.7272,6.688,6.6819,6.7003,6.748,6.7407,6.7113,6.748,6.77,6.7774,6.8164,6.8421,6.8531,6.9009,6.9155,6.9082,6.8605,6.8495,6.8238,6.8031,6.7774,6.77,6.7737,6.77,6.7737,6.77,6.77,6.77,6.7847,6.8104,6.8238,6.8458,6.8458,6.8531,6.8788,6.9059,6.9169,6.9412,6.9633,6.9706,6.9889,7.033,7.0807,7.022,7.044,7.066,7.0293,7.044,7.0697,7.0807,7.1027,7.1174,7.0954,7.055,7.0132,6.9779,6.9265,6.8972,6.9009,6.9082,6.9412,6.9045,6.9119,7.0624,7.0463,7.0903,7.1637,7.2018,7.2202,7.2349,7.2496,7.2532,7.2532,7.2467,7.2446,7.2402,7.2358,7.2314,7.2174,7.1994,7.1826,7.1765,7.1687,7.1609,7.1494,7.1494,7.1494,7.1494,7.1494,7.1494,7.1494,7.1494,7.1494,7.1494,7.1494,7.1494,7.1399,7.1288,7.0811,7.0234,6.949,6.8991,6.8609,6.8338,6.8221,6.8143,6.8103,6.8083,6.8083,6.8083,6.8083,6.8004,6.7905,6.7759,6.6921,6.7148,6.6335,6.615,6.6549,6.7113,6.704,6.6709,6.737,6.7884,6.8091,6.8678,6.9082,6.9376,6.9779,7.0036,6.9816,6.9522,6.9302,6.9082,6.8788,6.8325,6.8128,6.8091,6.8178,6.8068,6.8104,6.8141,6.8582,6.8421,6.8788,6.9192,6.9486,6.9559,6.9376,6.9743,7.011,7.011,7.0367,7.044,7.0477,7.0807,7.1027,7.1564,7.1174,7.1174,7.1468,7.1284,7.1248,7.1417,7.1527,7.1711,7.1784,7.1651,7.1064,7.0697,7.0257,6.9706,6.9376,6.9522,6.9596,7.022,6.9706,7.022,7.1123,7.149,7.149,7.2239,7.2459,7.2532,7.2532,7.2532,7.2532,7.2532,7.2532,7.2452,7.2409,7.238,7.2365,7.2321,7.2114,7.1903,7.1811,7.1697,7.1557,7.1494,7.1494,7.1494,7.1494,7.1494,7.1494,7.1494,7.1494,7.1494,7.1494,7.1494,7.1494,7.1463,7.132,7.1025,7.0475,6.9742,6.9122,6.8857,6.8609,6.8338,6.8182,6.8103,6.8083,6.8083,6.8083,6.8083,6.8024,6.7925,6.7819,6.6609,6.7264,6.5956,6.5839,6.6489,6.6512,6.6549,6.6623,6.743,6.8214,6.8862,6.9068,6.9486,7.0,7.0367,7.0513,7.044,7.022,7.0073,7.0,6.9706,6.9449,6.9119,6.8862,6.8898,6.8885,6.8898,6.9155,6.9706,6.9596,6.9816,7.0183,7.0513,7.083,7.0146,7.011,7.0146,7.022,7.0881,7.105,7.1087,7.1468,7.1762,7.1967,7.1931,7.1857,7.2092,7.2129,7.2018,7.1894,7.1527,7.1637,7.1872,7.0807,7.0183,7.0073,6.9339,6.8641,6.8068,6.9316,7.0367,7.1013,7.055,7.0807,7.1835,7.1931,7.1674,7.2459,7.2532,7.2532,7.2532,7.2532,7.2532,7.2532,7.2532,7.2481,7.2452,7.2438,7.2423,7.2336,7.2174,7.1957,7.1851,7.1728,7.1573,7.1494,7.1494,7.1494,7.1494,7.1494,7.1494,7.1494,7.1494,7.1494,7.1494,7.1494,7.1494,7.1479,7.1399,7.1175,7.0927,7.0475,6.9885,6.9287,6.8857,6.859,6.8319,6.8083,6.8083,6.8083,6.8083,6.8083,6.8024,6.7945,6.7819,6.6885,6.7235,6.6299,6.6179,6.6594,6.6515,6.6512,6.6733,6.7871,6.8935,6.9706,7.0206,7.0573,7.0977,7.1394,7.1578,7.1541,7.1013,7.0903,7.083,7.0477,7.0,6.9706,6.9596,6.9633,6.9669,6.9669,6.9339,6.9229,6.9889,7.011,7.0367,7.1284,7.1908,7.1762,7.1651,7.1541,7.1064,7.1123,7.105,7.0624,7.0844,7.1211,7.1674,7.1711,7.1894,7.2261,7.2275,7.2129,7.1747,7.1233,7.116,7.0991,6.9816,6.9412,6.9192,6.8641,6.8605,6.9132,7.0367,7.1211,7.1527,7.149,7.1431,7.2275,7.2312,7.2349,7.2422,7.2496,7.2532,7.2532,7.2532,7.2532,7.2532,7.2532,7.2532,7.2481,7.2467,7.2438,7.2307,7.2144,7.1866,7.1697,7.1666,7.1542,7.1494,7.1494,7.1494,7.1494,7.1494,7.1494,7.1494,7.1494,7.1494,7.1494,7.1494,7.1494,7.1479,7.1479,7.1415,7.1191,7.0894,7.0356,6.9599,6.9196,6.8803,6.8416,6.8083,6.8083,6.8083,6.8083,6.8083,6.8064,6.7945,6.7839,6.6969,6.7268,6.6396,6.6507,6.7018,6.6715,6.6769,6.7467,6.8752,6.9779,7.0499,7.1087,7.1454,7.1784,7.2239,7.2532,7.2459,7.2004,7.1711,7.1637,7.1233,7.066,7.0293,7.0073,6.9743,6.9816,6.9669,6.9449,6.9522,7.0183,7.0697,7.1211,7.1651,7.1784,7.1894,7.1784,7.1541,7.0954,7.0734,7.0624,7.0293,7.0257,7.0403,7.072,7.0954,7.1101,7.1505,7.1615,7.1468,7.0991,7.0624,7.044,6.9816,6.9192,6.8898,6.8862,6.9045,6.9316,7.033,7.083,7.1564,7.2239,7.1894,7.2004,7.2386,7.2422,7.2459,7.2496,7.2532,7.2532,7.2532,7.2532,7.2532,7.2532,7.2532,7.2532,7.2496,7.2481,7.2467,7.2321,7.2114,7.1821,7.1573,7.1542,7.1494,7.1494,7.1494,7.1494,7.1494,7.1494,7.1494,7.1494,7.1494,7.1494,7.1494,7.1494,7.1494,7.1494,7.1494,7.1494,7.132,7.1029,7.0475,6.9938,6.9344,6.8784,6.8358,6.8083,6.8083,6.8083,6.8083,6.8083,6.8083,6.7984,6.7899,6.6806,6.7433,6.6332,6.6728,6.7823,6.7345,6.7777,6.9022,6.9779,7.0587,7.1344,7.138,7.1747,7.2349,7.2532,7.2532,7.2496,7.2422,7.2275,7.2312,7.2004,7.1248,7.055,7.0197,6.9963,6.9376,6.9192,6.9669,7.0073,7.0477,7.1248,7.1798,7.1431,7.127,7.1123,7.094,7.066,7.022,7.0073,6.9889,6.9559,6.9706,6.9779,6.9963,7.011,7.022,7.044,7.044,7.0293,6.9926,6.9449,6.9559,6.9242,6.8508,6.9022,6.9486,6.983,7.0513,7.0977,7.127,7.1747,7.2422,7.2459,7.2496,7.2496,7.2532,7.2532,7.2532,7.2532,7.2532,7.2532,7.2532,7.2532,7.2532,7.2532,7.2532,7.2532,7.2481,7.2481,7.2336,7.2093,7.1836,7.1573,7.1494,7.1494,7.1494,7.1494,7.1494,7.1494,7.1494,7.1494,7.1494,7.1494,7.1494,7.1494,7.1494,7.1494,7.1494,7.1494,7.1463,7.1304,7.1078,7.0492,6.9902,6.9325,6.8765,6.828,6.8083,6.8083,6.8083,6.8083,6.8083,6.8083,6.8083,6.7984,6.7145,6.7455,6.7332,6.7983,6.9134,6.9982,7.0538,7.079,7.0923,7.138,7.2151,7.2151,7.2092,7.2496,7.2532,7.2459,7.2459,7.2422,7.2055,7.2055,7.2151,7.1321,7.077,7.0477,7.0279,6.9889,6.9669,6.9559,6.9963,7.044,7.0917,7.1344,7.0954,7.0403,7.0022,6.9619,6.9522,6.9376,6.9339,6.9009,6.8692,6.8618,6.8825,6.9119,6.9229,6.9449,6.9779,6.9889,6.9743,6.9192,6.9045,6.8972,6.8214,6.7958,6.8288,6.9192,7.011,7.1087,7.1344,7.1821,7.2239,7.2422,7.2496,7.2532,7.2496,7.2459,7.2459,7.2386,7.2496,7.2532,7.2532,7.2532,7.2532,7.2532,7.2532,7.2532,7.2532,7.2496,7.2467,7.2292,7.2033,7.1821,7.1573,7.1494,7.1494,7.1494,7.1494,7.1494,7.1494,7.1494,7.1494,7.1494,7.1494,7.1494,7.1494,7.1494,7.1494,7.1494,7.1494,7.1463,7.1352,7.1009,7.0457,6.9778,6.901,6.8571,6.8182,6.8083,6.8083,6.8083,6.8083,6.8083,6.8083,6.8083,6.8044,6.7623,6.7731,6.7993,6.8875,7.0138,7.1396,7.1968,7.2028,7.1614,7.1671,7.1945,7.1615,7.1578,7.1468,7.1468,7.1468,7.1468,7.1394,7.1321,7.1637,7.1835,7.1064,7.0697,7.044,6.9889,6.9596,6.9169,6.8875,6.9389,7.0073,7.0624,7.1674,7.077,7.0146,6.9853,6.9545,6.9009,6.8825,6.8605,6.8164,6.7884,6.77,6.8068,6.8311,6.8458,6.8788,6.9132,6.9206,6.8912,6.8495,6.8421,6.8238,6.7958,6.8214,6.8728,6.9743,7.0881,7.16,7.1931,7.2202,7.2422,7.2532,7.2496,7.2275,7.2275,7.2224,7.2129,7.2055,7.2312,7.2532,7.2532,7.2532,7.2532,7.2532,7.2532,7.2532,7.2532,7.2532,7.2365,7.2189,7.1994,7.1796,7.1656,7.1542,7.1494,7.1494,7.1494,7.1494,7.1494,7.1494,7.1494,7.1494,7.1494,7.1494,7.1494,7.1494,7.1494,7.1494,7.1494,7.1447,7.1368,7.0778,6.999,6.9272,6.8555,6.828,6.8083,6.8083,6.8083,6.8083,6.8083,6.8083,6.8083,6.8083,6.8024,6.807,6.812,6.8544,6.962,7.0994,7.1782,7.2421,7.2913,7.182,7.1416,7.1253,7.0541,7.0321,7.0491,7.0477,7.044,7.0587,7.066,7.077,7.1197,7.1417,7.0793,6.9926,6.9889,6.9265,6.8251,6.7921,6.8398,6.8582,6.9412,7.0807,7.2239,7.0881,7.022,7.0389,6.9655,6.9229,6.9155,6.8715,6.8251,6.7847,6.77,6.77,6.7737,6.7774,6.7847,6.7811,6.7774,6.7737,6.7774,6.7847,6.7921,6.8545,6.9265,6.9926,7.0513,7.1578,7.2092,7.2312,7.2459,7.2459,7.2532,7.2496,7.2092,7.1967,7.2188,7.2188,7.1894,7.2055,7.2422,7.2532,7.2532,7.2532,7.2532,7.2532,7.2532,7.2532,7.2481,7.2394,7.2233,7.2114,7.1918,7.1744,7.1682,7.1687,7.1573,7.1578,7.1578,7.1494,7.1494,7.1494,7.1494,7.1494,7.1494,7.1494,7.1494,7.1494,7.1494,7.1494,7.1479,7.1431,7.0541,6.9436,6.8841,6.8299,6.8201,6.8083,6.8083,6.8083,6.8083,6.8083,6.8083,6.8083,6.8083,6.8004,6.8083,6.8256,6.9731,7.0945,7.1936,7.2715,7.2661,7.2161,7.1294,7.1109,7.1237,7.0606,7.011,6.9917,6.9917,6.9903,7.0073,7.0257,7.0243,7.0426,7.072,7.0279,6.8898,6.9155,6.8605,6.8031,6.7847,6.8361,6.9353,7.0073,7.055,7.1417,7.0624,7.0477,7.0697,6.9926,6.9816,6.9779,6.9559,6.8802,6.8031,6.7774,6.77,6.7737,6.7811,6.7884,6.7884,6.7811,6.8141,6.8458,6.8568,6.8935,6.9536,7.0477,7.0917,7.1197,7.1894,7.2349,7.2532,7.2532,7.2532,7.2532,7.2422,7.1982,7.1857,7.2261,7.2261,7.1894,7.1857,7.2275,7.2532,7.2532,7.2459,7.2459,7.2532,7.2532,7.2532,7.2452,7.2394,7.2307,7.2218,7.2099,7.1897,7.1821,7.1826,7.178,7.1734,7.1687,7.1562,7.1494,7.1494,7.1494,7.1494,7.1494,7.1494,7.1494,7.1494,7.1494,7.1494,7.1494,7.1447,7.049,6.9455,6.8651,6.8103,6.8083,6.8083,6.8083,6.8083,6.8083,6.8083,6.8083,6.8083,6.8083,6.8019,6.8284,6.8494,7.0177,7.1403,7.2271,7.3051,7.2851,7.1969,7.114,7.0728,7.0494,6.975,6.9275,6.9168,6.9104,6.9454,6.9623,7.0,7.0279,7.0353,7.0132,6.9889,6.9302,6.8752,6.8311,6.7907,6.8238,6.8972,7.033,7.0734,7.105,7.1527,7.1064,7.077,7.0954,7.0881,7.0624,7.0624,7.066,6.9926,6.8839,6.8728,6.8765,6.8765,6.8728,6.8728,6.8765,6.8765,6.9022,6.9302,6.9412,6.9559,7.0073,7.077,7.1197,7.1454,7.1931,7.2532,7.2532,7.2532,7.2532,7.2532,7.2496,7.2129,7.1637,7.1967,7.2078,7.1784,7.2078,7.2496,7.2496,7.2532,7.2114,7.1967,7.2312,7.2532,7.2532,7.2481,7.2394,7.2292,7.2218,7.2159,7.2009,7.1842,7.1826,7.1765,7.1749,7.1672,7.1542,7.1494,7.1494,7.1494,7.1494,7.1494,7.1494,7.1494,7.1494,7.1494,7.1494,7.1123,7.0845,7.0251,6.9509,6.8689,6.8162,6.8083,6.8083,6.8083,6.8083,6.8083,6.8083,6.8083,6.8083,6.8083,6.8019,6.863,6.9013,7.0314,7.1478,7.2345,7.2939,7.2754,7.1923,7.1094,7.0226,6.9445,6.8628,6.8118,6.7978,6.8084,6.8469,6.9063,6.9867,7.0353,7.0279,7.0257,6.9816,6.9412,6.9009,6.8421,6.8274,6.8568,6.9729,7.1087,7.1197,7.1454,7.2114,7.2092,7.1798,7.2092,7.1894,7.1454,7.1454,7.1344,7.1064,7.0624,7.0183,6.9963,6.9963,7.011,7.011,7.0073,7.0073,7.0073,7.0367,7.0403,7.0624,7.077,7.1307,7.1454,7.1784,7.2114,7.2459,7.2532,7.2532,7.2532,7.2532,7.2532,7.2275,7.1821,7.1747,7.1894,7.2041,7.2334,7.2445,7.2496,7.2422,7.2004,7.1784,7.2188,7.2496,7.2496,7.2496,7.2446,7.2343,7.2277,7.2233,7.2114,7.1948,7.1842,7.1796,7.1687,7.1593,7.1494,7.1494,7.1494,7.1494,7.1494,7.1494,7.1494,7.1494,7.1494,7.1494,7.1415,7.0828,7.0286,7.0008,6.9491,6.8689,6.828,6.8143,6.8083,6.8083,6.8083,6.8083,6.8083,6.8083,6.8083,6.8064,6.8039,6.9274,7.045,7.0784,7.1775,7.2939,7.2679,7.1923,7.1094,7.0276,6.9435,6.8853,6.8606,6.8309,6.8105,6.8676,6.9111,6.9475,7.0128,6.9706,6.9376,7.0183,6.9816,6.9339,6.9082,6.8495,6.8678,6.9178,6.9912,7.1307,7.1454,7.1674,7.2386,7.2459,7.2312,7.2349,7.2188,7.2151,7.2114,7.2114,7.1945,7.1615,7.1027,7.0183,7.011,7.011,7.011,7.011,7.011,7.0513,7.1013,7.1578,7.1762,7.1872,7.1945,7.2055,7.2092,7.2408,7.2459,7.2532,7.2532,7.2532,7.2532,7.2532,7.2496,7.2202,7.2239,7.2312,7.2312,7.2496,7.2496,7.2532,7.2532,7.2239,7.2202,7.2422,7.2459,7.2445,7.2496,7.2489,7.246,7.2423,7.2394,7.2365,7.2204,7.2054,7.1948,7.1765,7.1635,7.1494,7.1494,7.1494,7.1494,7.1494,7.1494,7.1494,7.1494,7.1494,7.1494,7.1399,7.0976,7.0524,7.0078,6.9473,6.8784,6.8338,6.8103,6.8083,6.8083,6.8083,6.8083,6.8083,6.8083,6.8083,6.8064,6.8039]}]]